GFSSGP_con_mucape_000.txt.gz
CAPE
193 0 0 0 0 0 0 0 0 0 0 0 1 7 2 0 0 0 25 49 102 699 1189 1303 1527 1075 955 501 58 17 0 0 0 0 6 7 9 26 30 25 22 14 0 0 0 0 0 0 0
323 0 0 0 0 0 0 0 0 0 0 2 2 1 1 0 9 8 22 130 414 920 1147 1158 1690 1341 1032 365 61 22 0 0 0 0 4 11 22 28 18 29 12 1 0 0 0 0 0 0 0
0 0 0 0 0 0 0 0 0 0 0 0 1 0 0 0 27 26 62 235 542 907 1010 1238 1866 1797 1319 475 81 33 6 0 0 0 2 24 31 48 30 35 9 0 0 0 0 0 0 0 0
0 0 0 0 0 0 0 0 0 0 0 0 0 0 0 0 0 42 18 283 405 620 871 1570 1956 1880 1577 887 144 71 30 0 0 0 0 15 69 119 93 27 48 15 0 0 0 0 0 0 0
0 0 0 0 0 0 0 0 0 0 0 0 0 0 0 5 35 21 30 335 354 372 780 1733 1945 2022 1406 846 448 143 38 21 0 0 0 17 53 107 238 101 79 14 0 0 0 0 0 0 4
0 0 0 0 0 0 0 0 0 0 0 0 0 0 0 7 43 29 42 120 667 711 1264 1545 2011 1699 1291 1090 887 550 177 39 4 6 5 18 10 60 181 121 59 14 6 0 7 8 10 0 0
0 0 0 0 0 0 0 0 0 0 0 0 0 0 0 4 16 29 52 76 1088 1199 1484 1587 1599 1343 1443 1379 1130 865 628 312 105 37 16 46 27 12 61 286 112 51 19 19 30 29 4 6 9
0 0 0 0 0 0 0 0 0 0 0 0 0 0 0 12 26 70 69 288 1251 1371 1365 1385 1201 1138 961 1157 992 809 769 552 404 203 129 102 44 35 46 198 132 76 77 81 23 7 17 26 30
0 0 0 0 0 0 0 0 0 0 0 0 0 0 0 0 22 81 93 150 1236 1348 1182 1222 1035 907 759 607 668 551 499 455 349 144 69 32 0 0 1 31 58 174 83 63 87 96 141 277 162
0 1 0 0 0 0 0 0 0 0 0 0 0 0 0 0 54 106 211 195 365 734 744 728 697 532 649 518 375 354 215 222 119 63 30 16 0 0 0 9 48 112 171 246 229 249 429 296 24
0 1 0 0 0 0 0 0 0 0 0 0 0 0 0 0 0 0 46 196 281 448 536 548 524 427 520 369 292 257 117 118 72 43 33 48 11 2 10 22 53 80 96 101 85 34 9 10 5
0 0 0 5 0 0 0 0 0 0 0 0 0 0 0 0 0 0 0 5 110 329 542 577 540 564 698 549 462 279 151 151 88 103 86 59 36 53 72 107 140 117 165 102 32 5 2 0 0
0 0 0 13 14 0 0 0 0 0 0 0 0 0 0 0 0 0 0 0 0 107 463 589 655 725 741 532 415 290 219 191 82 81 55 51 79 115 129 128 118 111 37 12 2 0 0 0 0
0 8 0 0 1 18 0 0 0 0 0 0 0 0 0 0 0 0 0 0 0 13 374 571 687 821 708 595 502 324 197 117 114 94 106 97 85 94 99 35 77 34 0 0 0 0 0 0 0
0 0 2 0 0 0 19 1 0 0 0 0 0 0 0 0 0 0 0 0 0 35 311 570 687 723 686 631 613 367 210 297 127 103 101 224 118 121 29 66 4 0 0 0 0 0 0 0 0
0 0 0 0 5 6 24 0 0 0 0 0 0 0 0 0 0 0 0 0 0 46 354 522 564 675 676 652 588 336 292 326 247 191 23 21 2 1 0 0 0 0 0 0 0 0 0 0 0
0 0 0 0 1 18 15 0 0 0 0 0 0 0 0 0 0 0 0 0 0 25 53 152 408 660 582 513 461 393 287 275 230 113 11 0 2 0 0 0 0 0 0 0 0 0 0 0 0
0 0 0 0 8 19 0 0 0 0 0 0 0 0 0 0 0 0 0 0 0 0 4 39 412 604 407 338 306 218 266 68 38 3 0 0 0 0 0 0 0 0 0 0 0 0 0 0 0
0 0 0 0 0 0 0 2 2 0 0 0 0 0 0 0 0 0 0 0 0 0 0 0 440 401 306 170 89 94 61 7 0 0 0 0 0 0 0 0 0 0 0 0 0 0 0 0 0
0 0 0 0 0 21 3 0 0 0 0 0 0 0 0 0 0 0 0 0 0 0 0 67 337 263 209 160 51 36 13 0 0 0 0 0 0 0 0 0 0 0 0 0 0 0 0 0 0
0 0 0 0 0 14 0 0 0 0 0 5 0 0 0 0 0 0 0 0 0 0 0 143 175 170 145 92 41 6 0 0 0 0 0 0 0 0 0 0 0 0 0 0 0 0 0 0 0
0 0 0 0 0 0 64 0 0 0 0 0 0 0 0 0 0 0 0 0 0 0 0 72 90 98 36 6 0 0 0 0 0 0 0 0 0 0 0 0 0 0 0 0 0 0 0 0 0
0 0 0 0 0 0 0 0 0 0 0 0 0 0 0 8 0 0 0 0 0 0 0 8 6 0 0 0 0 0 0 0 0 0 0 0 0 0 0 0 0 0 0 0 0 0 0 0 0
24 0 0 0 0 0 0 0 0 0 0 0 0 0 6 14 0 0 0 0 0 0 0 7 5 0 0 0 0 0 0 0 0 0 0 0 0 0 0 0 0 0 0 0 0 0 0 0 0
0 0 0 0 0 0 0 0 0 0 0 0 0 0 20 4 0 0 0 0 0 0 0 0 0 0 0 0 0 0 0 0 0 0 0 0 0 0 0 0 0 0 0 0 0 0 0 0 0
0 0 0 0 0 0 57 0 0 0 0 0 0 0 1 0 0 0 0 0 0 0 0 0 0 0 0 0 0 0 0 0 0 0 0 0 0 0 0 0 0 0 0 0 0 0 0 0 0
1 0 0 0 0 0 1 0 0 0 0 0 1 0 0 0 0 0 0 0 0 0 0 0 0 0 0 0 0 0 0 0 0 0 0 0 0 0 0 0 0 0 0 0 0 0 0 0 0
5 1 0 0 0 0 10 2 0 0 0 0 0 10 0 2 0 0 0 0 0 0 0 0 0 0 0 0 0 0 0 0 0 0 0 0 0 0 0 0 0 0 0 0 0 0 0 0 0
20 13 21 0 0 0 24 0 0 0 10 7 13 7 5 2 0 0 0 0 0 0 0 0 0 0 0 0 0 0 0 0 0 0 0 0 0 0 0 0 0 0 0 0 0 0 0 0 0
1 0 0 0 0 0 13 0 4 0 0 0 4 17 4 0 0 0 0 0 0 0 0 0 0 0 0 0 0 0 0 0 0 0 0 0 0 0 0 0 0 0 0 0 0 0 0 0 0

GFSSGP_con_mucape_003.txt.gz
CAPE
370 0 0 0 0 0 0 0 0 0 0 0 0 7 13 8 1 0 45 48 88 306 1192 1593 1926 1269 583 263 51 4 0 0 0 0 2 9 10 24 23 31 22 0 0 0 0 0 0 0 0
3 0 0 0 0 0 0 0 0 0 0 0 0 0 7 25 22 15 52 62 314 826 1323 1256 1877 1152 849 437 67 27 0 0 0 0 11 19 33 39 22 25 3 0 0 0 0 0 0 0 0
0 0 0 0 0 0 0 0 0 0 0 0 0 0 0 14 48 15 60 232 810 1045 1253 1084 1740 1429 1175 476 94 34 3 0 0 0 12 31 23 43 48 10 0 0 0 0 0 0 0 0 0
0 0 0 0 0 0 0 0 0 0 0 0 0 3 0 0 27 71 68 479 791 995 1233 1464 1866 1804 1446 830 160 57 4 1 0 0 0 16 57 89 43 50 88 26 0 0 0 0 0 0 1
0 0 0 0 0 0 0 0 0 0 0 0 0 0 0 13 31 65 322 501 532 883 1074 1700 2174 2044 1632 957 384 98 23 1 0 0 0 10 42 61 113 128 47 20 0 0 0 0 0 1 0
0 0 0 0 0 0 0 0 0 0 0 0 0 0 0 5 59 40 371 430 386 644 1039 1891 2023 1992 1639 1103 709 385 51 9 0 0 0 14 7 46 137 106 73 20 3 1 0 8 12 18 7
0 0 0 0 0 0 0 0 0 0 0 0 0 0 0 9 55 49 190 410 551 676 1319 1721 1682 1642 1235 1025 843 585 308 175 20 24 9 11 24 6 58 218 106 66 38 21 35 62 16 7 26
0 0 0 0 0 0 0 0 0 0 0 0 0 0 0 0 0 63 81 427 1004 1254 1398 1480 1585 1256 999 924 911 777 612 379 276 107 46 57 26 21 29 198 122 100 92 116 82 39 66 112 121
0 0 0 0 0 0 0 0 0 0 0 0 0 0 0 0 17 91 89 560 1398 1410 1419 1311 1212 1116 926 916 703 685 675 447 341 125 47 12 0 0 0 20 44 112 176 111 146 213 261 377 263
0 0 0 0 0 0 0 0 0 0 0 0 0 0 0 0 28 103 114 353 1111 1430 1442 1227 1147 900 695 594 528 397 361 318 197 70 15 2 0 0 0 0 35 120 182 227 194 262 184 23 0
0 0 0 0 0 0 0 0 0 0 0 0 0 0 0 0 6 153 176 250 638 1144 1295 1239 1064 830 620 526 406 412 210 211 105 32 5 9 0 0 0 2 19 34 59 109 72 6 0 0 0
0 0 0 0 0 0 0 0 0 0 0 0 0 0 0 0 0 57 61 159 259 415 946 943 807 689 505 442 266 281 181 131 61 20 16 20 3 10 22 57 50 69 103 49 3 0 0 0 0
0 0 0 0 0 5 4 0 0 0 0 0 0 0 0 0 0 0 0 0 2 181 459 760 723 543 582 526 476 435 218 161 90 69 64 20 10 46 81 83 112 29 9 0 0 0 0 0 0
0 0 0 0 0 0 0 0 0 0 0 0 0 0 0 0 0 0 0 0 0 0 172 627 763 680 715 759 646 497 315 239 96 47 33 49 52 65 72 12 3 1 0 0 0 0 0 0 0
0 0 0 1 0 0 0 0 0 0 0 0 0 0 0 0 0 0 0 0 0 0 11 495 793 859 856 821 691 566 377 200 51 96 95 83 123 136 1 1 1 0 0 0 0 0 0 0 0
0 0 0 0 0 0 0 0 0 0 0 0 0 0 0 0 0 0 0 0 0 0 54 424 866 968 1035 893 853 1074 581 257 207 202 104 103 32 18 0 0 0 0 0 0 0 0 0 0 0
0 0 0 0 0 18 1 0 0 0 0 0 0 0 0 0 0 0 0 0 0 0 63 617 937 1031 973 885 801 916 602 357 164 157 125 1 0 2 0 0 0 0 0 0 0 0 0 0 0
0 0 0 0 0 0 0 0 0 0 0 0 0 0 0 0 0 0 0 0 0 0 273 693 947 997 921 853 775 604 373 261 198 199 116 1 0 0 0 0 0 0 0 0 0 0 0 0 0
0 0 0 0 0 0 0 0 0 0 0 0 0 0 0 0 0 0 0 0 0 0 39 670 762 913 855 747 299 581 550 238 103 89 2 0 0 0 0 0 0 0 0 0 0 0 0 0 0
0 0 0 0 0 0 0 0 0 0 0 0 0 0 0 0 0 0 0 0 0 0 0 43 480 830 834 497 104 40 169 137 24 2 0 0 0 0 0 0 0 0 0 0 0 0 0 0 0
0 0 0 0 0 0 0 0 0 0 0 0 0 0 0 0 0 0 0 0 0 0 0 0 302 735 726 376 82 2 98 16 0 0 0 0 0 0 0 0 0 0 0 0 0 0 0 0 0
0 0 0 0 0 0 0 0 0 0 0 0 0 0 0 0 0 0 0 0 0 0 0 0 287 642 552 300 142 68 8 0 0 0 0 0 0 0 0 0 0 0 0 0 0 0 0 0 0
0 0 0 0 0 0 0 0 0 0 0 0 0 0 0 0 0 0 0 0 0 0 0 30 428 407 328 185 129 46 11 0 0 0 0 0 0 0 0 0 0 0 0 0 0 0 0 0 0
0 0 0 0 0 0 0 0 0 0 0 0 0 0 0 0 0 0 1 0 0 8 40 240 258 250 214 66 38 7 0 0 0 0 0 0 0 0 0 0 0 0 0 0 0 0 0 0 0
0 0 0 0 0 0 0 0 0 0 0 0 0 0 0 0 0 0 3 4 0 17 105 160 165 95 53 1 0 0 0 0 0 0 0 0 0 0 0 0 0 0 0 0 0 0 0 0 0
0 0 0 0 0 0 0 0 0 0 0 0 0 0 0 0 0 0 6 10 0 20 49 74 65 48 0 0 0 0 0 0 0 0 0 0 0 0 0 0 0 0 0 0 0 0 0 0 0
0 24 0 0 0 0 0 0 0 0 0 0 0 0 0 0 0 0 7 0 0 16 22 28 32 4 0 0 0 0 0 0 0 0 0 0 0 0 0 0 0 0 0 0 0 0 0 0 0
0 0 5 0 0 0 0 0 0 0 0 0 0 0 0 0 0 0 0 0 0 6 8 2 0 0 0 0 0 0 0 0 0 0 0 0 0 0 0 0 0 0 0 0 0 0 0 0 0
7 0 2 0 0 0 0 0 15 12 0 0 0 0 6 28 7 2 3 0 0 0 0 0 0 0 0 0 0 0 0 0 0 0 0 0 0 0 0 0 0 0 0 0 0 0 0 0 0
3 0 0 5 0 0 0 0 18 45 0 0 0 0 18 25 0 0 0 0 0 0 0 0 0 0 0 0 0 0 0 0 0 0 0 0 0 0 0 0 0 0 0 0 0 0 0 0 0

GFSSGP_con_mucape_006.txt.gz
CAPE
25 0 0 0 0 0 0 0 0 0 0 0 0 29 17 8 13 9 22 55 52 55 373 1510 1774 1330 653 138 52 12 0 0 0 2 18 14 13 23 18 23 15 6 0 0 0 0 0 0 0
0 0 0 0 0 0 0 0 0 0 0 0 0 9 23 42 28 22 80 78 136 273 893 1519 1900 1235 689 299 92 22 0 0 0 0 5 27 21 38 30 38 2 0 0 0 0 0 0 0 0
0 0 0 0 0 0 0 0 0 0 0 0 0 0 5 15 57 25 48 93 497 979 1344 1287 1986 1438 1042 446 123 70 9 0 0 4 13 25 24 51 27 0 0 0 0 0 0 0 0 0 0
0 0 0 0 0 0 0 0 0 0 0 0 0 0 0 0 54 62 89 453 768 1111 1337 1395 1746 1557 1545 816 213 112 27 1 0 0 4 22 42 51 49 45 61 32 0 0 0 0 0 0 0
0 0 0 0 0 0 0 0 0 0 0 0 0 0 0 0 31 29 416 701 723 1151 1275 1461 1936 1725 1540 929 389 132 53 0 0 0 0 13 40 49 117 76 31 9 0 0 0 0 1 2 3
0 0 0 0 0 0 0 0 0 0 0 0 0 0 0 0 48 107 468 599 655 1012 1217 1551 1909 1992 1677 1200 712 340 80 8 0 0 0 5 18 35 166 145 73 28 0 7 0 8 19 10 2
0 0 0 0 0 0 0 0 0 0 0 0 0 0 0 0 37 66 425 527 532 811 1212 1682 1846 1804 1590 1220 849 595 259 95 0 18 9 12 20 0 41 168 89 59 51 16 35 44 20 31 60
0 0 0 0 0 0 0 0 0 0 0 0 0 0 0 0 3 74 347 531 635 811 1276 1621 1732 1631 1337 859 839 659 463 350 182 125 29 23 15 8 12 156 103 63 40 68 61 96 141 169 181
0 0 0 0 0 0 0 0 0 0 0 0 0 0 0 0 0 79 145 486 1035 1120 1280 1528 1587 1367 1116 754 706 712 581 357 262 60 20 4 0 0 0 0 2 22 67 68 108 215 219 41 5
2 3 0 0 0 0 0 0 0 0 0 0 0 0 0 0 0 78 153 179 949 1290 1987 1475 1920 1365 1071 865 733 548 493 340 200 57 10 0 0 0 0 0 0 21 22 18 39 26 5 0 0
0 0 0 0 0 0 0 0 0 0 0 0 0 0 0 0 0 87 131 183 489 1062 1537 2130 1987 1422 996 811 737 466 385 297 193 86 4 0 0 0 0 0 0 5 25 75 19 0 0 0 0
0 0 0 0 0 0 0 0 0 0 0 0 0 0 0 0 0 48 103 151 183 596 1138 1446 1637 1338 1036 702 550 495 294 240 148 38 0 2 0 0 5 14 1 16 43 9 0 0 0 0 0
1 0 0 0 0 0 0 0 0 0 0 0 0 0 0 0 0 0 6 5 34 175 333 1013 1382 1269 986 805 480 417 348 171 130 40 6 13 4 12 52 28 41 33 1 0 0 0 0 0 0
0 0 0 0 0 0 0 0 0 0 0 0 0 0 0 0 0 0 0 0 0 0 2 227 837 1105 857 665 544 471 423 205 164 108 82 17 124 55 58 60 1 2 1 0 0 0 0 0 0
0 0 0 0 0 0 0 0 0 0 0 0 0 0 0 0 0 0 0 0 0 0 0 68 408 904 841 729 856 677 479 340 216 162 103 102 90 51 3 0 0 0 0 0 0 0 0 0 0
0 0 0 0 0 0 0 0 0 0 0 0 0 0 0 0 0 0 0 0 0 0 0 20 309 772 907 884 1042 751 578 484 342 158 259 159 45 14 9 0 0 0 0 0 0 0 0 0 0
0 0 0 0 0 0 0 0 0 0 0 0 0 0 0 0 0 0 0 0 0 0 0 137 436 812 970 1063 983 569 568 481 435 252 135 71 0 0 0 0 0 0 0 0 0 0 0 0 0
0 0 0 0 0 0 0 0 0 0 0 0 0 0 0 0 0 0 0 0 0 0 0 330 595 951 1069 1120 992 838 546 384 360 166 89 67 2 0 0 0 0 0 0 0 0 0 0 0 0
0 0 0 0 0 0 0 0 0 0 0 0 0 0 0 0 0 0 0 0 0 0 42 513 832 1115 1198 1003 536 567 398 328 296 183 79 54 1 0 0 0 0 0 0 0 0 0 0 0 0
0 0 0 0 0 0 0 0 0 0 0 0 0 0 0 0 0 0 0 0 0 5 115 573 978 1154 1059 862 593 402 333 171 102 90 28 3 0 0 0 0 0 0 0 0 0 0 0 0 0
0 0 0 0 0 0 0 0 0 0 0 0 0 0 0 0 0 0 0 0 0 0 24 501 930 1108 921 760 619 175 76 29 69 14 1 0 0 0 0 0 0 0 0 0 0 0 0 0 0
0 0 0 0 0 0 0 0 0 0 0 0 0 0 0 0 0 0 0 0 0 0 0 23 517 911 759 527 635 204 1 2 17 2 0 0 0 0 0 0 0 0 0 0 0 0 0 0 0
0 0 0 0 0 0 0 0 0 0 0 0 0 0 0 0 0 0 0 0 0 0 0 0 6 396 288 338 436 170 2 1 11 0 0 0 0 0 0 0 0 0 0 0 0 0 0 0 0
0 0 0 0 0 0 0 0 0 0 0 0 0 0 0 0 0 0 0 0 0 0 0 0 0 207 434 563 199 49 0 11 2 0 0 0 0 0 0 0 0 0 0 0 0 0 0 0 0
0 0 0 0 0 0 0 0 0 0 0 0 0 0 0 0 0 0 0 0 0 0 0 1 65 180 568 309 166 123 50 32 0 0 0 0 0 0 0 0 0 0 0 0 0 0 0 0 0
0 0 0 0 0 0 0 0 0 0 0 0 0 0 0 0 0 0 0 0 0 0 20 150 312 443 431 223 81 49 17 0 0 0 0 0 0 0 0 0 0 0 0 0 0 0 0 0 0
31 0 0 0 0 0 0 0 0 0 0 0 0 0 0 0 0 0 0 0 0 20 152 344 397 363 200 56 4 0 0 0 0 0 0 0 0 0 0 0 0 0 0 0 0 0 0 0 0
8 0 19 0 0 0 0 0 0 0 0 0 0 0 0 0 0 0 0 0 16 68 236 341 327 206 49 0 0 0 0 0 0 0 0 0 0 0 0 0 0 0 0 0 0 0 0 0 0
0 8 0 2 0 0 0 0 0 0 0 0 0 0 0 0 0 0 0 3 26 73 197 235 187 138 4 0 0 0 0 0 0 0 0 0 0 0 0 0 0 0 0 0 0 0 0 0 0
0 0 0 0 0 0 0 0 16 67 11 1 0 0 0 0 0 0 0 3 15 43 115 116 58 2 0 0 0 0 0 0 0 0 0 0 0 0 0 0 0 0 0 0 0 0 0 0 0

GFSSGP_con_mucape_009.txt.gz
CAPE
0 0 0 0 0 0 0 0 0 0 0 0 0 8 14 16 32 26 8 51 36 153 695 1351 1697 1356 719 164 69 24 0 0 0 19 18 3 3 16 19 23 1 0 0 0 0 0 0 0 0
0 0 0 0 0 0 0 0 0 0 0 0 0 10 21 12 10 22 81 68 90 358 756 1369 1865 1381 763 227 101 29 3 0 0 1 13 13 16 38 24 28 1 0 0 0 0 0 0 0 0
0 0 0 0 0 0 0 0 0 0 0 0 0 0 14 11 18 18 48 79 282 448 905 1412 1832 1582 1072 433 167 60 8 0 0 2 15 27 28 36 13 3 0 0 0 0 0 0 0 0 0
0 0 0 0 0 0 0 0 0 0 0 0 0 0 1 5 39 16 70 488 688 895 1299 1591 1812 1656 1368 929 270 141 36 0 0 0 18 23 37 41 37 18 46 28 0 0 0 0 0 0 0
0 0 0 0 0 0 0 0 0 0 0 0 0 0 0 3 7 60 441 777 874 986 1451 1542 1881 1771 1586 1076 475 204 91 15 0 0 3 17 39 59 82 41 23 8 0 0 0 5 9 7 5
0 0 0 0 0 0 0 0 0 0 0 0 0 0 0 0 40 397 796 917 977 1166 1483 1583 1723 1873 1680 1249 896 422 118 42 0 0 0 5 22 23 149 96 44 15 0 6 0 11 18 6 6
0 0 0 0 0 0 0 0 0 0 0 0 0 0 0 0 54 502 798 826 1043 1283 1491 1603 1554 1595 1587 1296 929 649 231 85 11 0 0 2 18 0 134 140 63 40 35 16 34 53 51 90 120
0 0 0 0 0 0 0 0 0 0 0 0 0 0 0 0 75 274 574 686 811 1169 1511 1702 1876 1718 1538 1103 892 689 441 302 113 95 19 5 0 0 12 100 100 54 36 64 63 155 197 94 44
0 0 0 0 0 0 0 0 0 0 0 0 0 0 0 0 29 142 412 901 929 1049 1456 1506 1646 1761 1507 1141 725 632 483 349 196 78 10 0 0 0 0 0 0 21 53 64 87 40 0 0 0
0 0 0 0 0 0 0 0 0 0 0 0 0 0 0 0 0 76 186 580 1081 1169 1251 1511 1781 1535 1384 981 870 657 449 361 229 69 28 0 0 0 0 0 0 7 0 0 1 0 0 0 0
0 0 0 0 0 0 0 0 0 0 0 0 0 0 0 0 0 37 110 217 726 1162 1276 1221 1741 1601 1147 1173 893 661 602 436 265 92 13 0 0 0 0 0 0 2 6 2 1 0 0 0 0
0 0 0 0 0 0 0 0 0 0 0 0 0 0 0 0 0 14 84 130 241 887 1321 1225 2007 2376 1526 1147 891 621 515 413 252 124 25 0 0 0 0 8 1 9 5 9 0 0 0 0 0
0 0 0 0 0 0 0 0 0 0 0 0 0 0 0 0 0 0 7 59 118 254 1019 1363 1314 1807 1612 1061 814 584 405 357 244 89 15 0 0 0 42 11 2 4 0 0 0 0 0 0 0
0 0 0 0 0 0 0 0 0 0 0 0 0 0 0 0 0 0 0 0 2 28 141 755 1321 1435 1550 1249 805 565 425 320 179 82 31 14 2 33 48 12 2 0 0 0 0 0 0 0 0
0 0 0 0 0 0 0 0 0 0 0 0 0 0 0 0 0 0 0 0 0 0 0 12 735 1179 1475 1185 942 499 451 414 209 151 147 36 57 68 19 0 0 0 0 0 0 0 0 0 0
0 0 0 0 0 0 0 0 0 0 0 0 0 0 0 0 0 0 0 0 0 0 0 0 159 815 1132 1134 798 709 683 478 425 258 205 79 63 12 5 2 0 0 0 0 0 0 0 0 0
0 0 0 0 0 0 0 0 0 0 0 0 0 0 0 0 0 0 0 0 0 0 0 0 273 657 850 1085 852 872 792 509 322 295 176 93 57 5 1 0 0 0 0 0 0 0 0 0 0
0 0 0 0 0 0 0 0 0 0 0 0 0 0 0 0 0 0 0 0 0 0 0 70 393 482 848 1053 1070 1085 936 426 274 215 200 68 36 0 0 0 0 0 0 0 0 0 0 0 0
0 0 0 0 0 0 0 0 0 0 0 0 0 0 0 0 0 0 0 0 0 0 0 295 295 485 943 1052 1001 734 416 425 337 305 204 84 17 1 0 0 0 0 0 0 0 0 0 0 0
0 0 0 0 0 0 0 0 0 0 0 0 0 0 0 0 0 0 0 0 0 0 4 417 387 630 995 1032 848 418 377 291 259 215 195 60 10 0 0 0 0 0 0 0 0 0 0 0 0
0 0 0 0 0 0 0 0 0 0 0 0 0 0 0 0 0 0 0 0 0 0 0 519 571 828 1094 1032 770 385 525 316 167 155 110 23 0 0 0 0 0 0 0 0 0 0 0 0 0
0 0 0 0 0 0 0 0 0 0 0 0 0 0 0 0 0 0 0 0 0 0 0 374 819 1058 995 886 821 352 318 71 5 11 30 0 0 0 0 0 0 0 0 0 0 0 0 0 0
0 0 0 0 0 0 0 0 0 0 0 0 0 0 0 0 0 0 0 0 0 0 0 294 876 1012 971 1037 778 448 320 130 3 27 3 0 0 0 0 0 0 0 0 0 0 0 0 0 0
0 0 0 0 0 0 0 0 0 0 0 0 0 0 0 0 0 0 0 0 0 0 0 15 645 897 982 989 546 445 360 11 1 0 0 0 0 0 0 0 0 0 0 0 0 0 0 0 0
0 0 0 0 0 0 0 0 0 0 0 0 0 0 0 0 0 0 0 0 0 0 0 0 25 440 573 492 298 523 137 4 0 1 0 0 0 0 0 0 0 0 0 0 0 0 0 0 0
0 0 0 0 0 0 0 0 0 0 0 0 0 0 0 0 0 0 0 0 0 0 0 0 0 18 633 416 421 269 42 0 16 0 0 0 0 0 0 0 0 0 0 0 0 0 0 0 0
0 0 0 1 11 6 0 0 0 0 0 0 0 0 0 0 0 0 0 0 0 0 0 1 1 47 377 431 445 505 201 39 19 0 0 0 0 0 0 0 0 0 0 0 0 0 0 0 0
0 0 0 0 0 0 0 0 0 0 0 0 0 0 0 0 0 0 0 0 0 0 0 12 30 247 477 720 468 102 44 10 0 0 0 0 0 0 0 0 0 0 0 0 0 0 0 0 0
0 0 0 12 11 2 0 0 0 0 0 0 0 0 0 0 0 0 0 0 0 1 0 40 119 309 543 498 93 9 0 0 0 0 0 0 0 0 0 0 0 0 0 0 0 0 0 0 0
0 0 0 0 2 0 0 0 0 0 59 1 0 0 0 0 0 0 0 0 0 0 36 325 536 540 438 101 0 0 0 0 0 0 0 0 0 0 0 0 0 0 0 0 0 0 0 0 0

GFSSGP_con_mucape_012.txt.gz
CAPE
2 0 0 0 0 0 0 0 0 0 0 0 0 0 0 0 44 52 115 218 135 372 990 1350 1590 1204 670 164 69 31 1 0 0 20 4 0 1 7 24 18 0 0 0 0 0 0 0 0 3
0 0 0 0 0 0 0 0 0 0 0 0 0 0 0 4 5 73 84 178 203 504 1247 964 1806 1410 695 262 95 42 18 0 0 18 8 1 12 25 0 0 0 0 0 0 0 0 0 0 0
0 0 0 0 0 0 0 0 0 0 0 0 0 0 1 5 74 93 172 271 288 707 1224 1205 1925 1465 914 397 141 46 25 0 0 0 13 16 22 6 25 4 0 0 0 0 0 0 0 0 0
0 0 0 0 0 0 0 0 0 0 0 0 0 0 0 7 84 101 208 467 413 728 1228 1739 1808 1603 1248 801 226 89 15 0 0 0 11 21 34 42 0 0 7 0 0 0 0 0 2 4 3
0 0 0 0 0 0 0 0 0 0 0 0 0 0 0 1 75 131 469 697 564 757 1152 1673 2014 1766 1429 880 411 214 46 0 0 0 6 11 39 66 53 13 6 0 0 0 0 4 5 5 0
0 0 0 0 0 0 0 0 0 0 0 0 0 0 0 0 202 573 744 863 818 894 1228 1295 1787 1835 1569 1178 757 376 122 38 0 0 0 6 17 23 109 35 13 1 0 0 0 15 26 26 58
0 0 0 0 0 0 0 0 0 0 0 0 0 0 0 0 367 924 934 971 1062 989 1293 1203 1483 1379 1438 1267 1009 677 186 98 10 0 0 23 6 7 167 130 50 20 34 17 33 66 121 156 154
0 0 0 0 0 0 0 0 0 0 0 0 0 0 0 0 371 913 935 1035 1108 1129 1260 1267 1174 999 1339 1151 954 749 504 235 116 106 69 26 0 0 88 141 83 34 31 48 92 132 15 0 0
0 0 0 0 0 0 0 0 0 0 0 0 0 0 0 0 241 810 981 1111 1143 1211 1307 1391 1270 1335 1592 1153 774 607 468 247 122 88 16 0 0 0 0 0 0 15 48 30 27 0 0 0 0
1 0 0 0 0 0 0 0 0 0 0 0 0 0 0 0 34 434 744 1015 1203 1279 1296 1506 1526 1684 1521 1053 886 470 208 240 144 67 51 0 0 0 0 0 0 0 0 0 0 0 0 0 0
0 0 0 0 0 0 0 0 0 0 0 0 0 0 0 0 0 78 287 465 991 1213 1468 1549 1624 1817 1717 1347 988 620 382 448 367 176 118 0 0 0 0 1 5 57 1 1 0 0 0 0 0
0 0 0 0 0 0 0 0 0 0 0 0 0 0 0 0 0 0 96 301 593 1130 1470 1606 1676 1721 1714 1563 1175 842 537 513 465 305 152 19 0 1 0 37 54 1 0 0 0 0 0 0 0
0 0 0 0 0 0 0 0 0 0 0 0 0 0 0 0 0 0 0 87 419 830 1279 1593 1606 1639 1666 1682 1342 936 686 586 514 376 183 54 38 76 47 0 0 0 0 0 0 0 0 0 0
0 0 0 0 0 0 0 0 0 0 0 0 0 0 0 0 0 0 0 0 116 419 741 1438 1709 1739 1606 1863 1523 1212 832 579 625 466 152 138 120 132 0 1 3 0 0 0 0 0 0 0 0
1 0 0 0 0 0 0 0 0 0 0 0 0 0 0 0 0 0 0 0 0 6 89 461 1371 1722 1573 2135 1702 1312 913 671 641 408 253 209 33 5 13 10 2 0 0 0 0 0 0 0 0
0 0 0 0 0 0 0 0 0 0 0 0 0 0 0 0 0 0 0 0 0 0 0 0 80 1176 1654 2083 1716 1376 967 753 563 466 279 71 2 19 2 0 0 0 0 0 0 0 0 0 0
0 0 0 0 0 0 0 0 0 0 0 0 0 0 0 0 0 0 0 0 0 0 0 0 0 201 1039 1501 1556 1311 952 636 417 367 223 130 48 10 4 0 0 0 0 0 0 0 0 0 0
0 0 0 0 0 0 0 0 0 0 0 0 0 0 0 0 0 0 0 0 0 0 0 0 48 270 793 1255 1445 929 780 687 484 325 129 48 115 42 0 0 0 0 0 0 0 0 0 0 0
0 0 0 0 0 0 0 0 0 0 0 0 0 0 0 0 0 0 0 0 0 0 0 0 277 693 1013 1161 703 830 931 779 558 232 173 123 110 4 0 0 0 0 0 0 0 0 0 0 0
0 0 0 0 0 0 0 0 0 0 0 0 0 0 0 0 0 0 0 0 0 0 0 106 567 821 878 577 642 735 871 684 451 233 192 119 114 6 0 0 0 0 0 0 0 0 0 0 0
0 0 0 0 0 0 0 0 0 0 0 0 0 0 0 0 0 0 0 0 0 0 4 254 649 722 612 429 550 572 706 484 406 270 153 152 83 9 0 0 0 0 0 0 0 0 0 0 0
0 0 0 0 0 0 0 0 0 0 0 0 0 0 0 0 0 0 0 0 0 0 3 354 606 456 474 381 442 769 666 478 350 277 175 319 81 3 0 0 0 0 0 0 0 0 0 0 0
0 0 0 0 0 0 0 0 0 0 0 0 0 0 0 0 0 0 0 0 0 0 10 376 411 315 237 543 703 849 566 457 326 358 158 67 32 0 0 0 0 0 0 0 0 0 0 0 0
0 0 0 0 0 0 0 0 0 0 0 0 0 0 0 0 0 0 0 0 0 0 8 241 195 230 563 690 820 913 575 351 228 198 31 14 2 0 0 0 0 0 0 0 0 0 0 0 0
0 0 0 0 0 0 0 0 0 0 0 0 0 0 0 0 0 0 0 0 0 0 1 110 144 239 647 972 986 960 715 450 236 42 1 8 0 0 0 0 0 0 0 0 0 0 0 0 0
0 0 0 0 0 0 0 0 0 0 0 0 0 0 0 0 0 0 0 0 0 0 0 8 54 114 701 812 1043 1099 713 499 133 1 6 2 0 0 0 0 0 0 0 0 0 0 0 0 0
0 0 0 0 0 0 0 0 0 0 0 0 0 3 0 0 0 0 0 0 0 0 0 0 0 1 416 531 965 827 521 641 55 2 15 0 0 0 0 0 0 0 0 0 0 0 0 0 0
0 0 0 0 0 0 0 0 0 0 21 54 127 37 0 0 0 0 0 0 0 0 0 0 0 0 205 232 499 416 498 16 6 11 9 0 0 0 0 0 0 0 0 0 0 0 0 0 0
0 0 0 0 0 0 0 0 13 0 43 11 67 3 0 0 0 0 0 0 0 0 0 0 1 1 9 395 512 471 643 68 11 21 0 0 0 0 0 0 0 0 0 0 0 0 0 0 0
0 0 0 0 0 0 0 7 7 38 108 381 102 10 0 0 0 0 0 0 0 0 1 0 16 52 118 514 487 399 228 204 69 1 0 0 0 0 0 0 0 0 0 0 0 0 0 0 0

GFSSGP_con_mucape_015.txt.gz
CAPE
20 0 0 0 0 0 0 0 0 0 0 0 0 0 0 0 41 62 99 228 196 925 1255 1052 1419 1010 508 126 25 1 0 0 16 10 3 7 5 16 15 4 0 0 0 0 0 0 0 0 0
0 0 0 0 0 0 0 0 0 0 0 0 0 0 0 0 0 136 170 195 214 821 1159 976 1605 1251 665 239 74 36 0 0 8 7 0 0 0 0 0 0 0 0 0 0 0 0 0 0 0
0 0 0 0 0 0 0 0 0 0 0 0 0 0 0 6 23 161 308 224 289 795 1098 1293 1723 1439 841 375 103 63 3 0 0 0 0 0 3 0 0 0 0 0 0 0 0 0 0 0 0
0 0 0 0 0 0 0 0 0 0 0 0 0 0 0 0 112 129 304 271 362 869 1116 1340 1768 1464 1123 552 126 59 29 0 0 0 6 7 5 7 3 0 0 0 0 0 0 1 4 1 1
0 0 0 0 0 0 0 0 0 0 0 0 0 0 0 3 109 309 415 328 439 754 1666 1411 1805 1572 1275 711 246 107 30 8 2 0 0 24 27 49 38 1 9 0 0 0 0 2 10 2 0
0 0 0 0 0 0 0 0 0 0 0 0 0 0 0 7 142 463 621 511 412 747 1167 1524 1580 1591 1404 1020 636 223 49 18 7 3 0 12 1 92 55 17 11 0 1 0 2 10 21 53 108
0 0 0 0 0 0 0 0 0 0 0 0 0 0 0 0 508 692 753 649 627 760 995 1730 1550 1379 1310 1162 1009 615 195 70 25 16 0 59 3 115 121 55 21 1 0 0 37 124 130 75 37
0 0 0 0 0 0 0 0 0 0 0 0 0 0 0 29 500 710 697 774 758 803 1024 1137 1465 1485 1079 987 987 721 476 307 91 81 114 55 14 78 173 212 71 13 14 43 77 0 0 0 0
0 8 0 0 0 0 0 0 0 0 0 0 0 0 0 0 305 663 756 879 889 928 1076 1072 1061 938 1171 1085 759 683 480 207 173 98 33 0 0 0 0 1 10 25 14 31 0 0 0 0 0
1 0 0 0 0 0 0 0 0 0 0 0 0 0 0 0 26 433 679 857 881 1036 1117 1221 1142 1062 1409 1232 857 484 181 60 5 20 10 2 0 0 0 0 6 0 3 0 0 0 0 0 0
0 0 0 0 0 0 0 0 0 0 0 0 0 0 0 0 0 51 269 423 828 976 1198 1311 1448 1399 1283 957 1106 575 362 349 172 94 75 0 0 0 0 0 0 0 0 0 0 0 0 0 0
0 0 0 0 0 0 0 0 0 0 0 0 0 0 0 0 0 0 18 137 316 845 1154 1425 1597 1697 1727 1494 1140 766 463 448 386 209 113 0 0 0 0 0 46 12 0 0 0 0 0 0 0
2 0 0 0 0 0 0 0 0 0 0 0 0 0 0 0 0 0 0 12 160 560 977 1367 1670 1800 1850 1641 1371 984 562 553 489 382 247 12 0 8 10 5 0 0 0 0 0 0 0 0 0
6 0 0 0 0 0 0 0 0 0 0 0 0 0 0 0 0 0 0 0 15 311 714 1106 1536 1808 2135 1876 1603 1224 803 656 564 543 354 25 53 103 0 0 0 0 0 0 0 0 0 0 0
0 0 0 0 0 0 0 0 0 0 0 0 0 0 0 0 0 0 0 0 0 12 276 658 1268 1582 1710 2074 1797 1474 1193 731 657 873 336 127 209 61 0 0 0 0 0 0 0 0 0 0 0
0 0 0 0 0 0 0 0 0 0 0 0 0 0 0 0 0 0 0 0 0 0 0 118 630 1348 1633 1833 1931 1668 1332 914 731 880 553 295 86 0 0 0 0 0 0 0 0 0 0 0 0
0 0 0 0 0 0 0 0 0 0 0 0 0 0 0 0 0 0 0 0 0 0 0 0 2 473 1380 1629 1967 1772 1352 881 846 728 604 208 62 2 3 1 0 0 0 0 0 0 0 0 0
0 0 0 0 0 0 0 0 0 0 0 0 0 0 0 0 0 0 0 0 0 0 0 0 0 1 471 1589 1840 1563 1443 995 986 570 328 184 45 34 22 0 0 0 0 0 0 0 0 0 0
0 0 0 0 0 0 0 0 0 0 0 0 0 0 0 0 0 0 0 0 0 0 0 0 0 77 253 1051 1827 1395 1170 1118 675 656 311 167 47 72 21 0 0 0 0 0 0 0 0 0 0
0 0 0 0 0 0 0 0 0 0 0 0 0 0 0 0 0 0 0 0 0 0 0 0 1 120 546 1488 1548 1098 1283 736 646 644 360 177 151 61 39 0 0 0 0 0 0 0 0 0 0
0 0 0 0 0 0 0 0 0 0 0 0 0 0 0 0 0 0 0 0 0 0 0 0 38 347 909 1296 918 871 741 457 720 707 447 229 198 87 44 1 0 0 0 0 0 0 0 0 0
0 0 0 0 0 0 0 0 0 0 0 0 0 0 0 0 0 0 0 0 0 0 0 1 130 525 961 1110 668 309 303 508 720 655 405 319 231 117 189 7 0 0 0 0 0 0 0 0 0
0 0 0 0 0 0 0 0 0 0 0 0 0 0 0 0 0 0 0 0 0 0 0 19 160 565 849 779 864 177 170 507 646 533 350 354 244 144 119 0 0 0 0 0 0 0 0 0 0
0 0 0 0 0 0 0 0 0 0 0 0 0 0 0 0 0 0 0 0 0 0 2 40 276 584 770 829 351 57 177 439 614 497 393 437 180 326 69 0 0 0 0 0 0 0 0 0 0
0 0 0 0 0 0 0 0 0 0 0 0 0 0 0 0 0 0 0 0 0 0 0 68 357 528 585 435 20 60 283 613 585 507 385 344 258 220 29 0 0 0 0 0 0 0 0 0 0
0 0 0 0 0 0 0 0 0 0 0 0 0 0 0 0 0 0 0 0 0 0 0 1 283 432 264 28 47 199 415 661 559 433 344 510 162 78 4 0 0 0 0 0 0 0 0 0 0
0 0 0 0 0 0 0 0 0 0 0 0 0 0 0 7 0 0 0 0 0 0 0 2 205 480 27 7 160 212 552 848 614 329 246 50 18 13 0 0 0 0 0 0 0 0 0 0 0
0 0 0 0 0 0 0 0 0 0 0 3 0 4 7 36 0 0 0 0 0 0 0 0 104 91 3 5 313 536 818 804 401 211 50 6 26 13 0 0 0 0 0 0 0 0 0 0 0
0 0 0 0 0 0 0 0 0 0 0 18 11 57 172 103 97 49 0 0 0 0 0 4 85 17 0 33 329 798 715 559 291 474 68 28 36 0 0 0 0 0 0 0 0 0 0 0 0
0 0 0 0 0 0 0 0 0 0 12 21 35 206 73 35 60 107 6 5 0 0 2 7 29 2 0 14 278 638 471 431 193 87 6 10 4 0 0 0 0 0 0 0 0 0 0 0 0

GFSSGP_con_mucape_018.txt.gz
CAPE
55 0 0 0 0 0 0 0 0 0 0 0 0 0 0 0 8 88 156 82 906 966 1080 968 1114 872 399 88 34 0 0 1 22 42 47 44 46 49 8 0 0 0 0 0 2 0 0 0 0
0 0 0 0 0 0 0 0 0 0 0 0 0 0 0 0 122 68 219 119 1080 1225 811 705 1289 1034 416 99 48 0 0 6 0 0 0 0 0 0 0 0 0 0 0 0 0 0 0 0 0
0 0 0 0 0 0 0 0 1 0 0 0 0 0 0 18 17 200 255 171 963 1080 723 957 1448 1130 670 173 73 2 0 2 21 0 2 0 0 0 0 0 0 0 0 0 0 0 0 0 0
0 0 0 0 0 0 0 0 0 0 0 0 0 0 0 0 47 263 132 228 692 1021 967 1367 1513 1278 962 435 101 45 0 0 0 0 0 0 0 4 2 0 3 0 0 0 6 6 3 0 0
0 0 0 0 0 0 0 0 0 0 0 0 0 0 4 0 165 241 200 233 644 1095 1170 1266 1676 1377 1117 497 185 72 6 0 0 0 27 39 13 24 0 0 0 0 0 0 2 13 4 0 2
0 0 0 0 0 0 0 0 0 0 0 0 0 0 3 18 153 346 276 255 648 1497 1353 1132 1436 1440 1212 802 565 257 61 26 10 0 0 27 10 102 54 4 0 0 0 0 1 0 16 77 68
0 0 0 0 0 0 0 0 0 0 0 0 0 0 0 188 386 521 433 271 522 1399 1412 1066 1002 1100 1075 892 787 448 200 110 78 73 37 37 96 496 111 40 0 5 0 1 82 57 10 5 0
0 0 0 0 0 0 0 0 0 0 0 0 0 0 5 223 567 619 536 490 481 801 1388 1266 1144 957 823 791 839 652 508 240 145 90 221 41 57 370 292 199 111 2 10 49 0 0 0 0 0
0 0 0 0 0 0 0 0 0 0 0 0 0 0 0 156 451 523 566 629 511 793 990 1292 1272 1097 885 743 623 612 513 289 120 155 47 13 0 47 90 30 19 37 17 0 0 0 0 0 0
0 0 0 0 0 0 0 0 0 0 0 0 0 0 0 0 130 580 595 675 698 737 878 996 1370 1296 874 947 528 370 196 41 19 22 0 0 0 0 0 0 21 12 0 0 0 0 0 0 0
0 0 0 0 0 0 0 0 0 0 0 0 0 0 0 0 0 64 415 646 695 797 881 940 907 954 1092 1070 746 344 133 15 0 4 0 0 0 0 0 0 0 0 0 0 0 0 0 0 0
0 0 0 0 0 0 0 0 0 0 0 0 0 0 0 0 0 0 11 85 619 806 950 1019 1160 1258 1285 1097 987 497 299 186 120 66 46 2 0 0 0 0 0 0 0 0 0 0 0 0 0
0 0 0 0 0 0 0 0 0 0 0 0 0 0 0 0 0 0 0 0 35 722 942 1118 1267 1488 1321 1171 1035 604 481 381 315 255 117 40 0 0 0 2 1 0 0 0 0 0 0 0 0
2 0 0 0 0 0 0 0 0 0 0 0 0 0 0 0 0 0 0 0 0 103 726 1212 1393 1640 1657 1441 1262 924 712 489 445 355 203 95 0 0 1 8 0 0 0 0 0 0 0 0 0
0 0 0 0 0 0 0 0 0 0 0 0 0 0 0 0 0 0 0 0 0 0 406 821 1428 1681 1561 1468 1692 1834 854 613 552 553 310 151 45 31 4 1 0 0 0 0 0 0 0 0 0
0 0 0 0 0 0 0 0 0 0 0 0 0 0 0 0 0 0 0 0 0 0 0 564 1076 1565 1725 1457 1743 1779 1084 865 694 547 453 535 138 84 47 0 0 0 0 0 0 0 0 0 0
0 0 0 0 0 0 0 0 0 0 0 0 0 0 0 0 0 0 0 0 0 0 0 70 846 1296 1539 1605 1362 1422 1488 1021 723 609 450 562 199 187 6 0 0 0 0 0 0 0 0 0 0
0 0 0 0 0 0 0 0 0 0 0 0 0 0 0 0 0 0 0 0 0 0 0 0 76 1053 1356 1587 1336 1677 1664 1271 787 599 517 396 377 113 21 0 0 0 0 0 0 0 0 0 0
0 0 0 0 0 0 0 0 0 0 0 0 0 0 0 0 0 0 0 0 0 0 0 0 0 0 691 1584 1378 1664 1497 1099 1385 1094 815 539 286 95 40 4 0 0 0 0 0 0 0 0 0
0 0 0 0 0 0 0 0 0 0 0 0 0 0 0 0 0 0 0 0 0 0 0 0 0 0 0 1051 1573 1648 1342 1131 1177 850 984 644 249 123 70 6 1 0 0 0 0 0 0 0 0
0 0 0 0 0 0 0 0 0 0 0 0 0 0 0 0 0 0 0 0 0 0 0 0 0 0 0 98 1479 1437 1249 989 781 825 995 554 277 154 128 77 33 0 0 0 0 0 0 0 0
0 0 0 0 0 0 0 0 0 0 0 0 0 0 0 0 0 0 0 0 0 0 0 0 0 0 0 1194 1558 1312 1155 854 739 644 626 554 323 224 174 84 7 1 0 0 0 0 0 0 0
0 0 0 0 0 0 0 0 0 0 0 0 0 0 0 0 0 0 0 0 0 0 0 0 0 0 445 1047 1312 1217 963 628 564 671 614 576 379 325 159 211 62 7 0 0 0 0 0 0 0
0 0 0 0 0 0 0 0 0 0 0 0 0 0 0 0 0 0 0 0 0 0 0 0 0 10 641 1136 1091 861 589 324 454 249 788 532 403 398 222 79 65 5 0 0 0 0 0 0 0
0 0 0 0 0 0 0 0 0 0 0 0 0 0 0 0 0 0 0 0 0 0 0 0 0 87 675 846 947 648 187 24 29 134 471 475 317 293 203 60 145 3 0 0 0 0 0 0 0
0 0 0 0 0 0 0 0 0 0 0 0 0 0 0 0 0 0 0 0 0 0 0 0 10 242 656 769 725 572 197 97 7 266 463 389 218 300 114 165 76 0 0 0 0 0 0 0 0
0 0 0 0 0 0 0 0 0 0 0 0 0 0 0 0 2 7 0 0 0 0 0 0 91 306 563 738 701 446 144 0 34 271 449 396 280 252 210 126 91 0 0 0 0 0 0 0 0
0 0 0 0 0 0 0 0 0 0 0 0 0 0 0 0 1 13 0 0 0 0 0 23 209 365 489 512 483 226 0 2 155 463 419 277 208 153 2 23 3 0 0 0 0 0 0 0 0
0 0 0 0 0 0 0 0 0 0 0 0 0 0 1 28 47 69 67 0 8 2 0 6 135 283 164 246 256 1 13 82 378 385 351 221 160 118 3 11 0 0 0 0 0 0 0 0 0
0 0 0 0 0 0 0 0 0 0 0 0 0 0 0 0 8 44 99 104 116 127 111 132 135 145 69 214 38 130 108 200 612 281 160 200 44 16 10 9 0 0 0 0 0 0 0 0 0

GFSSGP_con_mucape_021.txt.gz
CAPE
15 0 0 0 0 0 0 0 0 0 0 0 0 0 0 0 0 24 77 424 858 921 879 801 1026 850 287 91 34 0 0 0 2 18 155 64 54 12 0 0 0 0 1 5 4 1 0 0 0
0 0 0 0 0 0 0 0 0 0 0 0 0 0 0 71 44 101 553 963 912 889 784 618 1148 852 257 81 32 0 45 0 15 46 28 24 30 5 1 0 0 0 0 1 0 0 0 0 0
0 0 0 0 0 0 0 0 0 0 0 0 0 0 0 38 55 138 248 981 1051 821 695 744 1223 878 370 111 28 9 32 0 10 30 15 0 2 13 4 1 0 0 0 2 3 1 0 0 0
0 0 0 0 0 0 0 0 0 0 0 0 0 0 0 65 135 195 312 1241 1127 723 651 1112 1197 1028 717 424 75 38 37 0 0 4 41 17 8 9 0 0 0 0 0 4 4 2 0 0 0
0 0 0 0 0 0 0 0 0 0 0 0 0 0 0 124 212 115 445 1260 1119 925 838 1063 1395 1220 869 667 363 63 67 0 22 51 22 6 6 14 3 0 0 0 0 0 6 4 0 0 1
0 0 0 0 0 0 0 0 0 0 0 0 0 0 0 136 167 125 239 1037 1096 994 891 1025 1297 1270 944 699 559 224 121 99 19 41 59 34 45 26 23 0 0 1 0 1 1 1 34 52 15
0 0 0 0 0 0 0 0 0 0 0 0 0 0 41 99 273 173 208 966 1148 1132 1068 1093 973 949 853 650 496 319 238 204 171 116 112 40 297 457 72 10 8 0 0 35 64 41 5 0 0
0 0 0 0 0 0 0 0 0 0 0 0 0 0 215 295 449 365 198 1184 1357 1302 1269 965 866 829 661 522 551 378 304 306 294 237 229 58 314 418 378 212 170 0 10 28 0 0 0 0 0
0 0 0 0 0 0 0 0 0 0 0 0 0 0 209 387 568 545 392 505 1563 1471 1119 860 818 810 641 573 460 451 383 210 215 210 66 11 195 191 115 46 56 90 57 0 0 0 0 0 0
0 0 0 0 0 0 0 0 0 0 0 0 0 0 183 307 487 514 536 427 837 1362 1259 1115 875 785 660 687 494 303 216 82 40 52 37 4 2 111 86 25 38 105 50 0 0 0 0 0 0
0 0 0 0 0 0 0 0 0 0 0 0 0 0 0 49 391 469 579 534 465 737 1509 1308 1086 984 808 732 448 294 184 56 17 12 10 0 0 9 28 0 0 1 0 0 0 0 0 0 0
0 0 0 0 0 0 0 0 0 0 0 0 0 0 0 0 2 267 471 560 598 579 779 1168 1316 1133 917 866 641 381 158 12 0 1 0 0 0 0 0 0 0 0 0 0 0 0 0 0 0
0 0 0 0 0 0 0 0 0 0 0 0 0 0 0 0 0 0 2 25 395 685 767 824 1217 1244 994 1055 812 716 318 96 41 61 80 7 0 0 0 0 7 0 0 0 0 0 0 0 0
0 0 0 0 0 0 0 0 0 0 0 0 0 0 0 0 0 0 0 0 0 470 845 960 964 1096 1141 1168 886 729 552 384 352 299 232 146 46 0 0 4 11 0 0 0 0 0 0 0 0
2 0 0 0 0 0 0 0 0 0 0 0 0 0 0 0 0 0 0 0 0 6 829 1018 1176 1348 1283 1167 993 730 580 587 491 411 299 229 49 0 0 3 45 0 0 0 0 0 0 0 0
0 0 0 0 0 0 0 0 0 0 0 0 0 0 0 0 0 0 0 0 0 0 151 1067 1263 1480 1634 1628 1281 983 823 753 570 519 583 393 229 71 46 54 41 0 0 0 0 0 0 0 0
0 0 0 0 0 0 0 0 0 0 0 0 0 0 0 0 0 0 0 0 0 0 0 819 1345 1607 1681 1751 1583 1182 967 984 698 590 466 432 249 121 106 75 33 0 0 0 0 0 0 0 0
0 0 0 0 0 0 0 0 0 0 0 0 0 0 0 0 0 0 0 0 0 0 0 0 1146 1621 1783 1574 1385 1352 1535 1083 1089 672 650 565 325 138 160 128 10 0 0 0 0 0 0 0 0
0 0 0 0 0 0 0 0 0 0 0 0 0 0 0 0 0 0 0 0 0 0 0 0 135 1409 1760 1637 1536 1383 1067 1329 1581 709 787 582 396 202 278 97 31 5 0 0 0 0 0 0 0
0 0 0 0 0 0 0 0 0 0 0 0 0 0 0 0 0 0 0 0 0 0 0 0 0 940 1458 1520 1625 1271 1302 1479 863 1002 821 845 468 321 263 113 36 22 1 0 0 0 0 0 0
0 0 0 0 0 0 0 0 0 0 0 0 0 0 0 0 0 0 0 0 0 0 0 0 0 62 1212 1448 1340 1351 1234 1109 1128 774 725 662 554 610 258 117 20 7 1 0 0 0 0 0 0
0 0 0 0 0 0 0 0 0 0 0 0 0 0 0 0 0 0 0 0 0 0 0 0 0 0 146 1356 1169 1388 1113 1001 1122 831 684 688 692 726 405 117 56 5 3 0 0 0 0 0 0
0 0 0 0 0 0 0 0 0 0 0 0 0 0 0 0 0 0 0 0 0 0 0 0 0 0 0 910 1167 1278 1182 848 960 871 644 600 585 712 435 130 74 9 5 8 0 0 0 0 0
0 0 0 0 0 0 0 0 0 0 0 0 0 0 0 0 0 0 0 0 0 0 0 0 0 0 65 657 677 939 1118 915 765 821 583 546 421 762 352 176 129 8 17 17 0 0 0 0 0
0 0 0 0 0 0 0 0 0 0 0 0 0 0 0 0 0 0 0 0 0 0 0 0 0 0 313 574 446 631 926 851 801 640 459 394 244 578 305 457 87 9 11 16 0 0 0 0 0
0 0 0 0 0 0 0 0 0 0 0 0 0 0 0 0 0 0 0 0 0 0 0 0 0 0 360 719 658 675 818 878 741 557 419 191 222 287 236 295 164 31 23 23 0 0 0 0 0
0 0 0 0 0 0 0 0 0 0 0 0 0 0 0 0 0 0 0 0 0 0 0 0 0 0 275 805 568 614 708 727 662 492 304 280 128 413 296 163 194 38 31 17 0 0 0 0 0
0 0 0 0 0 0 0 0 0 0 0 0 0 0 0 0 0 1 0 0 0 0 0 0 0 52 444 582 369 194 501 735 568 311 72 50 247 310 271 189 116 45 36 35 0 0 0 0 0
0 0 0 0 0 0 0 0 0 0 0 0 0 0 0 0 0 13 20 0 0 0 0 0 3 388 565 205 151 145 269 512 416 362 40 178 230 338 259 136 52 5 13 6 0 0 0 0 0
0 0 0 0 0 0 0 0 0 0 0 0 0 0 0 0 0 0 0 1 2 0 0 102 179 785 387 127 104 191 220 166 410 224 72 230 361 350 228 118 36 7 31 0 0 0 0 0 0

GFSSGP_con_mucape_024.txt.gz
CAPE
12 0 0 0 0 0 0 0 0 0 0 0 0 0 0 0 0 2 59 258 633 768 764 689 963 709 300 104 52 45 56 162 330 302 87 34 22 3 0 0 0 1 4 10 7 5 4 1 0
0 0 0 0 0 0 0 0 0 0 0 0 0 0 0 24 62 207 206 723 755 728 711 516 993 516 165 93 58 47 53 34 49 307 154 66 6 0 0 0 0 0 2 1 1 0 0 0 0
0 0 0 0 0 0 0 0 0 0 0 0 0 0 0 0 20 209 452 824 756 729 575 555 1012 686 164 98 50 126 67 105 151 91 69 28 2 1 0 0 0 0 0 1 0 0 0 0 0
0 0 0 0 0 0 0 0 0 0 0 0 0 0 0 0 28 109 889 814 746 666 548 887 1013 831 506 193 165 104 2 0 18 54 28 14 7 6 4 0 0 0 2 4 1 0 0 0 0
0 0 0 0 0 0 0 0 0 0 0 0 0 0 0 54 35 628 1011 852 690 627 614 839 1145 736 419 273 349 281 59 20 20 29 3 5 10 6 3 0 0 1 4 5 8 0 0 0 0
0 0 0 0 0 0 0 0 0 0 0 0 0 0 0 88 117 981 1148 1063 807 593 764 812 1095 971 791 425 293 414 242 70 64 100 58 37 44 30 29 0 0 2 1 11 10 11 35 36 0
0 0 0 0 0 0 0 0 0 0 0 0 0 0 47 82 85 941 1308 1244 1017 752 724 806 866 773 780 692 315 275 362 290 395 383 315 276 306 187 89 27 31 0 7 45 89 86 21 0 0
0 0 0 0 0 0 0 0 0 0 0 0 0 0 41 133 117 271 1254 1226 1073 977 862 862 873 692 500 450 475 297 308 359 290 411 238 83 339 407 341 210 208 19 95 74 35 9 0 0 0
0 0 0 0 0 0 0 0 0 0 0 0 0 0 13 205 276 112 957 1085 1147 1109 1065 926 864 683 499 415 298 357 340 348 286 266 57 163 319 244 203 91 165 168 187 31 1 0 0 0 0
0 0 0 0 0 0 0 0 0 0 0 0 0 4 256 338 404 188 1021 1212 1270 1245 1164 981 768 661 517 467 333 213 150 106 102 111 39 66 269 233 133 113 70 246 221 15 0 0 0 0 0
0 0 0 0 0 0 0 0 0 0 0 0 0 107 319 378 485 481 320 1326 1429 1375 1326 974 811 681 558 536 394 233 160 53 50 67 47 3 107 233 134 78 37 75 4 0 0 0 0 0 0
0 0 0 0 0 0 0 0 0 0 0 0 0 0 7 281 428 492 417 647 1285 1465 1314 1071 1014 887 712 588 455 288 206 70 13 29 33 12 0 95 146 55 0 0 0 0 0 0 0 0 0
0 0 0 0 0 0 0 0 0 0 0 0 0 0 0 0 0 176 478 531 468 933 1339 1303 1230 1094 1033 778 679 367 191 75 0 0 0 0 0 0 37 0 0 0 0 0 0 0 0 0 0
0 0 0 0 0 0 0 0 0 0 0 0 0 0 0 0 0 0 49 320 472 532 732 1396 1459 1246 1223 917 764 611 545 356 0 0 0 0 8 2 17 0 18 0 0 0 0 0 0 0 0
0 0 0 0 0 0 0 0 0 0 0 0 0 0 0 0 0 0 0 0 0 0 404 775 1387 1402 1387 1013 888 864 770 467 151 59 70 80 66 64 0 0 27 0 0 0 0 0 0 0 0
0 0 0 0 0 0 0 0 0 0 0 0 0 0 0 0 0 0 0 0 0 0 0 474 886 1314 1455 1147 1083 1028 912 645 455 385 354 293 207 136 0 15 40 23 21 0 0 0 0 0 0
0 0 0 0 0 0 0 0 0 0 0 0 0 0 0 0 0 0 0 0 0 0 0 32 731 1003 1237 1201 1245 1120 1062 745 707 536 505 405 288 178 36 12 32 57 28 0 0 0 0 0 0
0 0 0 0 0 0 0 0 0 0 0 0 0 0 0 0 0 0 0 0 0 0 0 0 495 1061 1197 1187 1235 1128 1012 874 815 778 585 398 312 278 117 58 66 52 14 2 0 0 0 0 0
0 0 0 0 0 0 0 0 0 0 0 0 0 0 0 0 0 0 0 0 0 0 0 0 58 945 1310 1287 1175 1171 1143 942 1010 797 652 676 486 471 89 60 100 108 0 0 0 0 0 0 0
0 0 0 0 0 0 0 0 0 0 0 0 0 0 0 0 0 0 0 0 0 0 0 0 0 585 1343 1286 1232 1131 1215 1018 982 1087 749 949 792 946 665 139 180 60 0 0 0 0 0 0 0
0 0 0 0 0 0 0 0 0 0 0 0 0 0 0 0 0 0 0 0 0 0 0 0 0 24 1233 1410 1328 1121 958 887 979 1015 1012 666 684 582 930 591 249 81 0 0 0 0 0 0 0
0 0 0 0 0 0 0 0 0 0 0 0 0 0 0 0 0 0 0 0 0 0 0 0 0 0 757 1366 1286 1026 720 640 835 1031 918 571 509 681 649 249 333 126 0 0 4 0 0 0 0
0 0 0 0 0 0 0 0 0 0 0 0 0 0 0 0 0 0 0 0 0 0 0 0 0 0 0 1239 1170 1199 762 460 663 927 817 605 469 395 360 446 455 434 41 0 5 2 0 0 0
0 0 0 0 0 0 0 0 0 0 0 0 0 0 0 0 0 0 0 0 0 0 0 0 0 0 0 751 1099 952 778 593 645 821 689 675 493 432 405 610 595 372 124 10 15 1 2 0 0
0 0 0 0 0 0 0 0 0 0 0 0 0 0 0 0 0 0 0 0 0 0 0 0 0 0 0 55 892 925 776 709 667 780 519 510 485 403 454 562 452 417 176 9 9 2 22 1 0
0 0 0 0 0 0 0 0 0 0 0 0 0 0 0 0 0 0 0 0 0 0 0 0 0 0 0 35 508 704 732 578 666 763 494 383 416 318 377 316 233 516 219 46 13 6 12 6 0
0 0 0 0 0 0 0 0 0 0 0 0 0 0 0 0 0 0 0 0 0 0 0 0 0 0 0 91 348 488 566 544 522 568 310 209 227 266 343 207 132 345 201 115 16 9 19 2 0
0 0 0 0 0 0 0 0 0 0 0 0 0 0 0 0 0 0 0 0 0 0 0 0 0 0 0 86 518 392 306 484 438 341 337 231 227 291 404 197 266 212 157 133 20 4 11 1 0
0 0 0 0 0 0 0 0 0 0 0 0 0 0 0 0 0 0 0 0 0 0 0 0 0 0 0 307 660 538 392 518 402 325 253 239 178 312 233 449 248 201 59 59 1 14 1 16 0
0 0 0 0 0 0 0 0 0 0 0 0 0 0 0 0 0 0 0 0 0 2 0 0 0 0 88 396 574 446 282 463 366 256 272 304 146 231 189 209 228 99 27 26 7 0 14 4 0

GFSSGP_con_mucape_027.txt.gz
CAPE
6 0 0 0 0 0 0 0 0 0 0 0 0 0 0 0 0 0 41 220 352 598 598 456 558 396 355 277 348 520 631 674 533 276 129 50 15 1 0 0 0 1 7 11 18 9 15 3 0
0 0 0 0 0 0 0 0 0 0 0 0 0 0 0 8 55 114 200 392 558 605 582 427 654 409 298 133 100 147 324 523 498 247 116 58 5 0 0 0 0 4 11 8 4 3 1 0 0
0 0 0 0 0 0 0 0 0 0 0 0 0 0 0 0 23 113 113 608 634 619 498 501 954 631 171 106 73 59 76 91 453 285 184 22 0 0 0 0 0 0 1 1 0 0 0 0 0
0 0 0 0 0 0 0 0 0 0 0 0 0 0 0 0 5 144 641 714 640 626 442 800 887 511 372 124 137 194 211 239 383 348 115 29 1 0 0 0 0 0 2 1 0 0 0 0 0
0 0 0 0 0 0 0 0 0 0 0 0 0 0 0 0 32 631 787 696 624 566 480 714 950 526 233 189 433 145 81 148 120 71 77 60 22 16 0 0 0 1 4 4 2 0 0 2 2
0 0 0 0 0 0 0 0 0 0 0 0 0 0 0 0 639 830 802 708 587 532 614 684 764 731 462 336 493 311 205 95 110 167 84 65 51 48 14 0 0 0 3 27 7 7 30 21 0
0 0 0 0 0 0 0 0 0 0 0 0 0 0 0 11 383 1006 885 707 611 568 665 676 627 600 563 401 501 347 309 254 269 254 256 255 222 167 63 23 13 1 35 52 51 119 43 0 0
0 0 0 0 0 0 0 0 0 0 0 0 0 0 0 33 504 1126 1057 948 798 659 679 729 711 606 529 289 315 416 364 394 446 460 370 263 268 303 285 183 187 16 84 236 163 63 0 0 0
0 0 0 0 0 0 0 0 0 0 0 0 0 0 0 46 288 1215 1265 1229 1034 870 721 781 736 603 508 426 219 277 360 339 359 353 156 75 159 261 221 103 207 170 279 109 59 0 0 0 0
0 0 0 0 0 0 0 0 0 0 0 0 0 0 22 63 181 1058 1225 1280 1205 1045 794 778 773 684 445 359 254 157 174 213 166 203 66 127 322 310 211 136 171 312 340 109 0 0 0 0 0
0 0 0 0 0 0 0 0 0 0 0 0 0 24 181 178 184 504 955 1103 1196 1142 975 905 802 706 441 354 257 155 134 156 118 98 55 96 336 327 228 163 127 146 137 0 0 0 0 0 0
0 0 0 0 0 0 0 0 0 0 0 0 0 22 263 293 297 222 684 991 1026 1243 1144 931 854 737 550 388 290 158 116 97 84 70 48 0 278 296 235 152 68 28 7 0 0 0 0 0 0
0 0 0 0 0 0 0 0 0 0 0 0 0 0 11 172 349 449 408 599 1126 1209 1278 1196 1050 855 742 624 371 243 110 81 44 47 59 20 0 137 179 126 48 1 0 0 0 0 0 0 0
0 0 0 0 0 0 0 0 0 0 0 0 0 0 0 0 1 31 98 516 428 1194 1347 1334 1246 994 907 836 645 553 376 129 48 10 39 35 3 0 88 122 19 0 0 0 0 0 0 0 0
0 0 0 0 0 0 0 0 0 0 0 0 0 0 0 0 0 0 0 0 497 513 715 1275 1257 1112 1118 1044 1006 769 595 249 176 56 0 7 0 0 0 56 3 30 0 0 0 0 0 0 0
0 0 0 0 0 0 0 0 0 0 0 0 0 0 0 0 0 0 0 0 0 55 66 305 1153 1141 1244 1244 1138 1003 737 623 570 193 6 1 0 5 19 14 0 53 17 7 0 0 0 0 0
3 0 0 0 0 0 0 0 0 0 0 0 0 0 0 0 0 0 0 0 0 0 0 0 464 1293 1305 1345 1191 1140 951 812 809 521 149 117 174 179 152 68 0 34 16 30 3 0 0 0 0
0 0 0 0 0 0 0 0 0 0 0 0 0 0 0 0 0 0 0 0 0 0 0 0 129 866 1271 1200 1202 1108 1083 1031 880 694 442 396 403 275 210 137 46 27 18 33 6 0 0 0 0
0 0 0 0 0 0 0 0 0 0 0 0 0 0 0 0 0 0 0 0 0 0 0 0 10 475 921 1061 1008 937 869 1045 1100 815 696 614 559 317 254 276 69 43 48 48 0 0 0 0 0
0 0 0 0 0 0 0 0 0 0 0 0 0 0 0 0 0 0 0 0 0 0 0 0 0 132 775 915 952 808 733 814 1093 880 802 852 763 398 226 316 164 56 203 81 0 0 0 0 0
0 0 0 0 0 0 0 0 0 0 0 0 0 0 0 0 0 0 0 0 0 0 0 0 0 0 529 983 1009 893 824 725 835 930 958 903 833 432 537 401 315 402 98 128 0 0 0 0 0
0 0 0 0 0 0 0 0 0 0 0 0 0 0 0 0 0 0 0 0 0 0 0 0 0 0 0 982 1039 985 700 568 614 728 883 905 844 481 615 630 336 399 252 253 6 0 0 0 0
0 0 0 0 0 0 0 0 0 0 0 0 0 0 0 0 0 0 0 0 0 0 0 0 0 0 0 402 1058 783 726 524 512 570 787 808 819 592 470 433 391 415 274 276 124 3 0 0 0
0 0 0 0 0 0 0 0 0 0 0 0 0 0 0 0 0 0 0 0 0 0 0 0 0 0 0 8 983 1004 790 629 561 520 647 596 627 606 450 367 388 402 352 281 146 44 0 1 1
0 0 0 0 0 0 0 0 0 0 0 0 0 0 0 0 0 0 0 0 0 0 0 0 0 0 0 0 451 1050 914 629 663 505 586 559 486 402 399 352 399 251 333 370 255 81 18 7 8
0 0 0 0 0 0 0 0 0 0 0 0 0 0 0 0 0 0 0 0 0 0 0 0 0 0 0 0 0 730 832 796 705 699 480 499 456 454 363 300 302 228 230 327 217 137 44 8 12
0 0 0 0 0 0 0 0 0 0 0 0 0 0 0 0 0 0 0 0 0 0 0 0 0 0 0 0 0 264 592 634 582 533 340 474 378 315 401 256 104 115 94 276 203 73 55 29 19
0 0 0 0 0 0 0 0 0 0 0 0 0 0 0 0 0 0 0 0 0 0 0 0 0 0 0 0 0 92 273 484 465 358 305 195 395 327 299 80 76 102 73 240 124 66 13 11 3
0 0 0 0 0 0 0 0 0 0 0 0 0 0 0 0 0 0 0 0 0 0 0 0 0 0 0 0 4 118 129 305 449 367 273 297 310 322 226 171 119 91 248 188 102 103 14 72 0
0 0 0 0 0 0 0 0 0 0 0 0 0 0 0 0 0 0 0 0 0 0 0 0 1 6 6 18 63 144 196 217 296 375 294 357 343 326 220 105 157 178 244 100 89 51 85 22 0

GFSSGP_con_mucape_030.txt.gz
CAPE
61 0 0 0 0 0 0 0 0 0 0 0 0 0 0 0 0 0 2 128 243 424 633 532 1202 952 763 1082 1024 1024 1026 1061 762 229 99 21 2 0 0 0 0 3 2 47 46 28 6 7 0
2 0 0 0 0 0 0 0 0 0 0 0 0 0 0 0 7 30 81 220 416 532 476 236 664 771 450 590 663 763 833 831 531 300 126 46 1 0 0 1 3 7 18 32 12 3 6 1 0
0 0 0 0 0 0 0 0 0 0 0 0 0 0 0 0 1 44 61 362 505 499 360 167 745 628 450 306 293 407 607 746 598 321 152 49 0 0 0 1 3 5 2 1 0 0 0 0 1
0 0 0 0 0 0 0 0 0 0 0 0 0 0 0 0 0 67 360 567 532 530 383 507 886 671 407 218 118 126 142 308 634 337 117 29 0 0 0 0 2 3 1 1 0 0 0 0 2
0 0 0 0 0 0 0 0 0 0 0 0 0 0 0 0 57 453 595 616 488 511 428 682 922 469 211 175 362 401 208 265 551 412 136 61 19 0 0 0 0 3 5 3 0 1 6 17 16
0 0 0 0 0 0 0 0 0 0 0 0 0 0 0 0 366 993 696 615 474 505 586 536 621 626 391 416 454 349 341 328 263 290 221 109 57 24 0 0 0 2 10 35 18 35 60 4 0
0 0 0 0 0 0 0 0 0 0 0 0 0 0 0 10 502 1419 763 599 552 506 605 557 480 455 433 478 445 268 330 296 308 313 289 260 225 133 42 14 8 15 57 62 86 160 28 0 0
0 0 0 0 0 0 0 0 0 0 0 0 0 0 0 15 833 1046 766 652 573 560 583 535 497 419 253 283 483 367 319 278 332 344 315 239 243 297 167 160 126 27 101 153 219 69 0 0 0
0 0 0 0 0 0 0 0 0 0 0 0 0 0 0 13 958 882 810 723 625 550 536 578 530 465 269 164 282 341 328 279 299 315 249 192 169 206 188 92 164 127 267 177 109 1 0 0 0
0 0 0 0 0 0 0 0 0 0 0 0 0 0 0 371 1008 1073 1359 966 893 739 581 546 518 514 426 259 144 214 208 203 232 250 191 153 133 205 211 115 176 230 298 159 13 0 0 0 0
0 0 0 0 0 0 0 0 0 0 0 0 0 0 18 129 965 968 1422 1414 1135 1163 810 625 958 591 528 379 213 110 176 183 160 195 178 38 209 238 262 153 182 142 163 4 0 0 0 0 0
0 0 0 0 0 0 0 0 0 0 0 0 0 0 40 116 179 869 979 1105 1158 1126 988 748 1151 1074 700 484 287 144 104 172 158 122 116 35 269 334 288 187 158 69 73 0 0 0 0 0 0
0 0 0 0 0 0 0 0 0 0 0 0 0 0 40 209 274 270 280 684 1028 1441 1371 1191 1310 1415 934 600 379 207 97 96 136 124 86 68 179 331 311 186 120 22 15 0 0 0 0 0 0
0 0 0 0 0 0 0 0 0 0 0 0 0 0 0 152 201 242 392 415 483 1008 996 1060 1147 1606 1384 756 621 479 222 143 69 85 92 67 23 175 255 171 106 48 2 0 0 0 0 0 0
0 0 0 0 0 0 0 0 0 0 0 0 0 0 0 0 0 13 100 99 233 537 990 1146 1169 1156 1362 947 784 690 504 461 313 126 29 53 40 3 43 104 100 37 0 0 0 0 0 0 0
0 0 0 0 0 0 0 0 0 0 0 0 0 0 0 0 0 0 0 0 0 0 296 836 1133 1166 1257 1115 969 928 832 706 559 207 67 6 29 16 0 29 65 8 0 0 0 0 0 0 0
0 0 0 0 0 0 0 0 0 0 0 0 0 0 0 0 0 0 0 0 0 0 0 152 790 1012 1120 1126 1071 1014 899 833 732 471 394 321 8 5 0 0 6 8 1 24 0 0 0 0 0
0 0 0 0 0 0 0 0 0 0 0 0 0 0 0 0 0 0 0 0 0 0 0 0 1 875 1027 1045 1054 963 988 942 923 705 678 566 142 55 19 88 87 30 17 27 0 9 0 0 0
0 0 0 0 0 0 0 0 0 0 0 0 0 0 0 0 0 0 0 0 0 0 0 0 0 2 853 915 962 910 918 907 1044 1001 739 762 444 195 225 206 128 71 30 16 32 12 0 0 0
0 0 0 0 0 0 0 0 0 0 0 0 0 0 0 0 0 0 0 0 0 0 0 0 0 0 251 795 793 723 739 695 946 1019 963 925 692 412 397 270 103 94 35 64 49 174 0 0 0
22 0 0 0 0 0 0 0 0 0 0 0 0 0 0 0 0 0 0 0 0 0 0 0 0 0 29 549 740 769 812 753 724 735 878 1024 865 684 526 419 146 85 214 34 14 124 0 0 0
0 0 0 0 0 0 0 0 0 0 0 0 0 0 0 0 0 0 0 0 0 0 0 0 0 0 0 321 621 537 569 586 692 679 732 902 963 772 656 643 233 191 186 113 123 141 29 0 0
0 0 0 0 0 0 0 0 0 0 0 0 0 0 0 0 0 0 0 0 0 0 0 0 0 0 0 0 638 679 558 483 527 613 654 696 930 839 676 630 412 282 239 265 308 217 164 10 3
0 0 0 0 0 0 0 0 0 0 0 0 0 0 0 0 0 0 0 0 0 0 0 0 0 0 0 0 97 684 538 520 568 636 611 570 711 711 518 634 506 329 327 299 338 259 219 137 28
0 0 0 0 0 0 0 0 0 0 0 0 0 0 0 0 0 0 0 0 0 0 0 0 0 0 0 0 0 505 645 551 463 537 462 604 580 550 552 489 511 341 423 356 327 267 190 161 96
0 0 0 0 0 0 0 0 0 0 0 0 0 0 0 0 0 0 0 0 0 0 0 0 0 0 0 0 0 22 581 584 627 542 439 292 343 492 543 494 409 340 385 326 279 262 143 181 110
0 0 0 0 0 0 0 0 0 0 0 0 0 0 0 0 0 0 0 0 0 0 0 0 0 0 0 0 0 0 12 530 495 456 385 277 338 310 424 476 408 296 293 303 267 150 125 145 105
0 0 0 0 0 0 0 0 0 0 0 0 0 0 0 0 0 0 0 0 0 0 0 0 0 0 0 0 0 0 0 62 236 300 258 339 339 345 289 423 432 359 129 127 131 89 58 122 130
0 0 0 0 0 0 0 0 0 0 0 0 0 0 0 0 0 0 0 0 0 0 0 0 0 0 0 0 0 0 0 20 70 158 225 212 275 331 358 284 369 328 260 118 68 84 52 95 107
0 0 0 0 0 0 0 0 0 0 0 0 0 0 0 0 0 0 0 0 0 0 0 0 0 0 0 0 0 0 4 44 150 157 185 239 217 186 241 321 296 293 271 64 61 58 76 61 6

GFSSGP_con_mucape_033.txt.gz
CAPE
31 0 0 0 0 0 0 0 0 0 0 0 0 0 0 0 0 0 2 222 161 312 867 555 1228 1164 1104 1328 1355 1495 1388 1214 750 387 107 27 2 0 0 0 0 0 63 87 98 36 1 0 0
1 0 0 0 0 0 0 0 0 0 0 0 0 0 0 0 0 21 166 224 341 638 681 372 1081 1169 1296 1422 1506 1399 1206 845 824 322 80 28 0 0 0 0 0 0 36 25 10 5 2 0 0
0 0 0 0 0 0 0 0 0 0 0 0 0 0 0 0 0 74 38 456 510 642 384 224 882 842 634 850 895 1031 1051 866 619 334 112 29 0 0 0 3 6 6 22 6 1 1 0 1 3
0 0 0 0 0 0 0 0 0 0 0 0 0 0 0 0 0 24 348 605 558 533 262 422 885 764 684 679 541 666 765 934 698 451 129 9 0 1 1 3 2 0 0 0 0 0 0 0 2
0 0 0 0 0 0 0 0 0 0 0 0 0 0 0 0 183 428 601 623 582 504 342 307 957 719 485 417 398 484 364 602 756 361 109 20 0 1 1 1 1 3 1 0 1 8 27 23 5
0 0 0 0 0 0 0 0 0 0 0 0 0 0 0 34 389 1041 851 597 538 537 500 416 727 605 493 406 481 453 352 267 730 542 163 62 5 1 0 1 9 13 19 16 39 61 31 0 0
0 0 0 0 0 0 0 0 0 0 0 0 0 0 0 0 385 1239 1108 973 477 609 625 547 436 372 417 554 516 463 589 706 650 562 437 216 173 47 0 11 21 36 103 88 99 83 0 0 0
0 0 0 0 0 0 0 0 0 0 0 0 0 0 0 0 782 1251 1314 937 696 738 622 527 470 384 220 337 339 274 397 370 402 345 257 189 175 179 101 77 70 63 133 139 187 11 0 0 0
0 0 0 0 0 0 0 0 0 0 0 0 0 0 0 52 1335 1335 1233 914 658 657 681 575 507 427 221 321 235 233 266 242 240 209 167 115 139 160 115 55 91 125 256 224 95 0 0 0 0
0 0 0 0 0 0 0 0 0 0 0 0 0 0 6 798 1446 1241 1658 569 1405 665 826 523 573 484 254 189 281 234 187 210 211 210 237 203 220 253 182 83 113 168 245 177 11 0 0 0 0
0 0 0 0 0 0 0 0 0 0 0 0 0 0 0 758 1494 1391 1266 1247 1282 1039 953 440 493 501 456 214 210 237 224 210 255 252 222 159 153 222 283 226 240 187 77 3 0 0 0 0 0
0 0 0 0 0 0 0 0 0 0 0 0 0 0 0 0 588 1086 1322 1358 1364 1426 1127 1168 852 722 449 469 255 157 172 189 194 207 188 128 160 217 288 244 236 169 68 0 0 0 0 0 0
0 0 0 0 0 0 0 0 0 0 0 0 0 0 0 0 72 140 461 886 1311 1361 1386 1256 828 1272 907 533 461 303 129 168 176 149 138 113 146 226 225 202 156 111 9 0 0 0 0 0 0
0 0 0 0 0 0 0 0 0 0 0 0 0 0 0 0 19 178 249 253 570 915 853 1102 1329 1307 954 857 572 482 295 160 125 121 105 63 75 199 208 202 131 66 0 0 0 0 0 0 0
0 0 0 0 0 0 0 0 0 0 0 0 0 0 0 0 0 65 199 180 243 381 844 846 704 1360 1238 1006 1324 701 579 391 210 143 70 55 30 93 187 212 139 66 24 0 0 0 0 0 0
0 0 0 0 0 0 0 0 0 0 0 0 0 0 0 0 0 0 6 32 0 0 12 737 820 761 1006 1371 1377 1330 750 637 528 384 222 138 26 19 50 87 91 52 44 0 0 0 0 0 0
0 0 0 0 0 0 0 0 0 0 0 0 0 0 0 0 0 0 0 0 0 0 0 0 628 988 884 985 1413 1561 1293 734 705 667 587 330 80 34 19 1 19 40 41 0 0 0 0 0 0
0 0 0 0 0 0 0 0 0 0 0 0 0 0 0 0 0 0 0 0 0 0 0 0 0 548 1089 940 1013 847 1325 815 848 810 775 645 280 200 121 2 0 15 22 0 0 0 0 0 0
0 0 0 0 0 0 0 0 0 0 0 0 0 0 0 0 0 0 0 0 0 0 0 0 0 0 759 901 728 853 577 680 851 960 838 837 633 520 336 57 31 8 58 45 0 0 2 1 0
0 0 0 0 0 0 0 0 0 0 0 0 0 0 0 0 0 0 0 0 0 0 0 0 0 0 0 658 708 536 540 586 757 607 875 915 897 713 588 154 64 96 107 42 2 4 5 2 0
0 0 0 0 0 0 0 0 0 0 0 0 0 0 0 0 0 0 0 0 0 0 0 0 0 0 0 41 734 448 406 348 366 649 647 812 960 839 748 458 147 150 146 35 10 4 30 51 0
0 5 0 0 0 0 0 0 0 0 0 0 0 0 0 0 0 0 0 0 0 0 0 0 0 0 0 3 420 433 144 196 282 392 479 676 787 870 818 719 404 239 215 83 56 36 10 22 13
0 0 0 0 0 0 0 0 0 0 0 0 0 0 0 0 0 0 0 0 0 0 0 0 0 0 0 0 220 572 444 499 564 356 393 547 649 726 782 766 633 537 384 178 92 67 60 76 81
0 0 0 0 0 0 0 0 0 0 0 0 0 0 0 0 0 0 0 0 0 0 0 0 0 0 0 0 0 280 500 479 491 391 431 473 525 618 655 695 686 688 598 278 224 153 134 229 161
0 0 0 0 0 0 0 0 0 0 0 0 0 0 0 0 0 0 0 0 0 0 0 0 0 0 0 0 0 0 60 466 370 219 344 342 326 422 663 692 648 625 602 480 262 224 225 239 190
0 0 0 0 0 0 0 0 0 0 0 0 0 0 0 0 0 0 0 0 0 0 0 0 0 0 0 0 0 0 0 21 225 200 268 367 515 399 346 493 613 724 544 426 398 272 273 270 192
0 0 0 0 0 0 0 0 0 0 0 0 0 0 0 0 0 0 0 0 0 0 0 0 0 0 0 0 0 0 0 0 1 220 258 334 417 389 402 397 423 550 529 415 294 260 324 214 206
0 0 0 0 0 0 0 0 0 0 0 0 0 0 0 0 0 0 0 0 0 0 0 0 0 0 0 0 0 0 0 0 0 13 52 200 299 320 364 385 344 309 442 494 407 288 204 217 156
0 0 0 0 0 0 0 0 0 0 0 0 0 0 0 0 0 0 0 0 0 0 0 0 0 0 0 0 0 0 0 0 1 19 45 96 147 138 180 268 376 342 315 411 405 358 179 2 109
0 0 0 0 0 0 0 0 0 0 0 0 0 0 0 0 0 0 0 0 0 0 0 0 0 0 0 0 0 0 0 0 0 23 66 187 247 176 146 139 143 92 310 275 326 277 295 159 118

GFSSGP_con_mucape_036.txt.gz
CAPE
90 0 0 0 0 0 0 0 0 0 0 0 0 0 0 0 0 13 197 567 288 753 594 336 1530 1636 1887 2044 1956 1916 1811 1547 881 448 123 21 4 0 0 0 0 64 196 93 70 21 0 0 0
15 0 0 0 0 0 0 0 0 0 0 0 0 0 0 0 8 314 474 570 349 684 548 354 1085 959 1285 1793 1752 1750 1467 1360 767 349 49 1 0 0 0 0 0 64 50 23 11 3 0 0 0
0 0 0 0 0 0 0 0 0 0 0 0 0 0 0 0 36 286 457 611 471 737 601 522 939 935 1363 1481 1650 1533 1362 1117 763 435 69 0 0 0 1 1 1 21 9 5 2 0 1 0 3
0 0 0 0 0 0 0 0 0 0 0 0 0 0 0 0 41 293 696 611 678 679 519 490 933 903 1259 1000 1278 1406 1177 894 604 360 54 0 0 0 2 4 0 0 0 0 0 0 0 0 7
0 0 0 0 0 0 0 0 0 0 0 0 0 0 0 102 544 557 840 754 717 533 379 350 876 863 738 648 646 904 1047 1017 658 269 53 0 0 1 2 1 0 0 0 0 0 3 7 4 0
1 0 0 0 0 0 0 0 0 0 0 0 0 0 0 280 744 785 874 849 716 573 390 308 604 758 570 506 531 589 578 953 899 511 92 8 0 2 1 2 4 2 2 5 22 53 1 0 0
5 0 0 0 0 0 0 0 0 0 0 0 0 0 0 179 802 577 756 929 824 668 448 306 353 290 398 477 474 496 423 513 924 544 375 189 61 12 1 24 32 49 59 65 101 5 0 0 0
0 13 12 1 0 0 0 0 0 0 0 0 0 0 0 99 626 642 829 810 898 816 550 388 333 230 172 189 429 349 550 834 767 481 335 198 135 97 40 99 80 116 157 170 92 0 0 0 0
0 1 6 0 0 0 0 0 0 0 0 0 0 0 0 23 852 917 1349 939 902 872 700 473 299 173 140 182 169 185 240 252 265 234 163 93 73 45 23 18 84 159 178 241 26 0 0 0 0
0 0 0 0 0 0 0 0 0 0 0 0 0 0 195 374 1107 1178 1483 1194 1564 832 743 600 362 185 162 146 195 95 91 159 173 166 145 106 95 89 39 24 66 198 268 213 5 0 0 0 0
0 0 0 0 0 0 0 0 0 0 0 0 0 0 65 370 632 613 1041 727 714 1165 706 572 429 300 240 155 194 173 101 126 146 135 112 107 123 198 196 121 117 94 68 88 0 0 0 0 0
0 0 0 0 0 0 0 0 0 0 0 0 0 0 0 240 523 515 813 551 881 1057 657 967 584 418 365 302 208 209 147 134 134 135 130 182 230 243 233 221 129 92 83 37 0 0 0 0 0
0 0 0 0 0 0 0 0 0 0 0 0 0 0 0 0 47 521 685 659 729 697 1054 653 485 462 331 382 507 309 248 157 114 153 149 153 197 268 264 235 191 153 90 8 0 0 0 0 0
0 0 0 0 0 0 0 0 0 0 0 0 0 0 0 0 0 0 113 559 909 1016 901 682 615 535 403 839 749 700 479 240 163 126 142 167 146 200 236 219 256 175 139 20 0 0 0 0 0
0 0 0 0 0 0 0 0 0 0 0 0 0 0 0 0 0 0 0 44 111 203 751 1092 945 813 628 608 582 657 874 573 302 187 124 120 102 127 195 279 296 224 155 41 0 0 0 0 0
4 0 0 0 0 0 0 0 0 0 0 0 0 0 0 0 0 0 0 0 38 57 55 46 578 1034 870 763 938 724 854 875 742 439 223 130 84 73 149 233 306 290 146 23 0 0 0 0 0
10 0 0 0 0 0 0 0 0 0 0 0 0 0 0 0 0 0 0 0 0 8 0 0 0 469 894 979 1026 1016 835 1027 1081 851 517 331 287 154 65 135 188 187 126 0 0 0 0 0 0
0 0 0 0 0 0 0 0 0 0 0 0 0 0 0 0 0 0 0 0 0 0 0 0 0 0 296 957 1228 963 1113 647 1078 1071 875 577 496 387 126 49 81 117 83 0 0 0 0 0 0
0 0 0 0 0 0 0 0 0 0 0 0 0 0 0 0 0 0 0 0 0 0 0 0 0 0 0 200 932 1058 1238 986 990 1109 1038 855 606 528 403 172 122 82 48 0 0 0 13 0 0
0 0 0 0 0 0 0 0 0 0 0 0 0 0 0 0 0 0 0 0 0 0 0 0 0 0 0 0 229 750 868 822 746 482 1031 911 741 566 518 450 307 179 54 22 11 60 46 0 0
0 0 0 0 0 0 0 0 0 0 0 0 0 0 0 0 0 0 0 0 0 0 0 0 0 0 0 0 0 396 770 821 711 565 476 629 862 621 501 466 483 267 125 80 67 110 46 7 0
0 0 0 0 0 0 0 0 0 0 0 0 0 0 0 0 0 0 0 0 0 0 0 0 0 0 0 0 0 0 351 379 365 367 567 519 596 670 658 400 532 457 209 117 71 156 46 5 1
0 0 0 0 0 0 0 0 0 0 0 0 0 0 0 0 0 0 0 0 0 0 0 0 0 0 0 0 0 0 20 26 49 216 529 539 458 755 474 333 364 470 515 240 98 232 67 30 16
0 0 0 0 0 0 0 0 0 0 0 0 0 0 0 0 0 0 0 0 0 0 0 0 0 0 0 0 0 0 0 57 77 382 781 773 663 511 611 296 245 385 496 518 210 253 157 85 40
6 0 0 0 0 0 0 0 0 0 0 0 0 0 0 0 0 0 0 0 0 0 0 0 0 0 0 0 0 0 0 0 92 334 519 596 641 413 595 669 389 233 464 500 449 377 299 147 92
0 0 0 0 0 0 0 0 0 0 0 0 0 0 0 0 0 0 0 0 0 0 0 0 0 0 0 0 0 0 0 0 0 41 243 344 352 499 257 223 299 255 279 272 280 354 428 244 213
0 0 0 0 0 0 0 0 0 0 0 0 0 0 0 0 0 0 0 0 0 0 0 0 0 0 0 0 0 0 0 0 0 0 10 109 246 405 475 325 296 379 340 276 226 257 284 296 256
0 0 0 0 0 0 0 0 0 0 0 0 0 0 0 0 0 0 0 0 0 0 0 0 0 0 0 0 0 0 0 0 0 0 0 28 134 229 464 282 194 233 383 423 370 301 311 237 238
0 0 0 0 0 0 0 0 0 0 0 0 0 0 0 0 0 0 0 0 0 0 0 0 0 0 0 0 0 0 0 0 0 0 1 20 79 218 299 257 228 232 187 281 369 346 311 247 221
0 0 0 0 0 0 0 0 0 0 0 0 0 0 0 0 0 0 0 0 0 0 0 0 0 0 0 0 0 0 0 0 0 0 0 0 27 69 112 186 289 307 300 310 241 275 248 315 394

GFSSGP_con_mucape_042.txt.gz
CAPE
36 0 0 0 0 0 0 0 0 0 0 0 0 0 0 0 169 371 442 459 1110 742 768 1211 1986 2070 2122 2331 2039 1908 1554 1690 1212 491 103 0 0 0 0 4 88 68 76 50 2 0 0 0 0
11 16 0 0 0 0 0 0 0 0 0 0 0 0 0 43 519 319 642 493 916 587 526 836 1980 2181 2297 2263 1997 1851 1720 1349 712 195 21 0 0 0 0 81 73 138 51 17 0 0 0 2 3
50 75 0 0 0 0 0 0 0 0 0 0 0 0 0 38 265 624 796 376 736 499 371 747 1506 2098 2137 2203 2022 1850 1502 979 552 63 0 0 0 0 4 65 23 21 14 15 0 0 2 3 4
69 14 0 0 0 0 0 0 0 0 0 0 0 0 16 250 390 650 505 459 496 276 493 761 1064 1658 1864 1725 1715 1712 1163 637 356 34 0 0 0 2 18 12 2 0 0 0 0 0 0 2 0
102 26 0 0 0 0 0 0 0 0 0 0 0 0 212 402 592 515 401 499 419 445 424 239 1018 1240 1050 1189 1449 1267 811 789 318 57 0 0 1 5 10 1 0 0 0 0 0 2 3 0 0
30 0 0 0 0 0 1 2 0 0 0 0 0 13 420 508 705 533 452 482 365 572 416 178 710 834 833 807 933 1266 1064 826 453 116 0 0 2 1 1 1 0 0 0 3 17 2 0 0 0
5 0 0 0 0 2 0 0 0 0 0 0 0 0 424 879 865 690 630 512 338 372 287 151 133 237 449 415 472 655 1104 983 594 248 86 58 12 1 0 0 0 0 10 44 10 0 0 0 0
58 27 0 0 0 1 0 7 0 0 0 0 0 0 572 866 817 876 753 610 436 270 279 148 138 104 75 99 141 148 144 792 456 206 89 18 0 0 3 27 45 59 49 108 0 0 0 0 0
76 0 0 0 1 8 4 7 0 0 0 0 0 16 393 844 615 717 796 801 619 391 259 161 151 117 68 63 74 132 126 160 203 121 29 2 0 0 0 0 24 103 217 109 0 0 0 0 0
94 0 0 0 19 39 10 6 0 0 0 0 0 0 360 594 504 424 443 676 770 588 361 240 166 86 37 31 61 54 113 127 210 105 45 13 0 0 0 0 45 107 211 97 0 0 0 0 0
18 0 4 67 77 22 11 0 0 0 0 0 0 0 58 419 421 507 417 425 822 632 554 282 134 90 53 77 93 52 103 90 164 127 80 43 13 7 0 0 1 56 96 40 0 0 0 0 0
0 0 29 70 36 9 5 4 0 0 0 0 0 0 0 100 376 499 480 618 506 505 590 487 357 121 63 62 102 54 38 53 67 118 138 91 26 21 20 19 2 25 73 69 18 0 0 0 0
0 0 0 56 29 4 1 3 0 0 0 0 0 0 0 0 23 198 465 555 679 589 395 377 426 352 130 93 55 58 44 0 27 45 50 63 26 52 47 25 29 16 56 42 60 0 0 0 0
0 0 0 16 0 0 0 9 0 0 0 0 0 0 0 0 0 5 313 390 478 537 618 363 401 363 392 188 189 120 136 103 102 37 45 48 35 91 62 54 49 41 32 24 22 8 0 0 0
14 0 0 0 0 0 0 0 0 0 0 0 0 0 0 0 0 0 0 21 419 411 674 627 432 478 477 455 219 368 475 269 263 153 25 22 22 58 109 71 81 67 46 52 30 8 0 0 0
16 12 2 0 0 0 0 0 0 0 0 0 0 0 0 0 0 0 0 0 0 81 267 735 736 659 612 514 568 273 605 699 525 330 201 100 36 21 50 80 70 116 100 62 61 14 0 0 0
37 0 0 0 0 0 0 0 0 0 0 0 0 0 0 0 0 0 0 0 0 0 0 32 134 717 784 735 699 718 465 492 836 872 742 305 218 132 46 41 54 127 121 88 100 109 13 0 0
0 0 0 0 0 0 0 0 0 0 0 0 0 0 0 0 0 0 0 0 0 0 0 0 0 0 55 711 854 798 729 541 489 858 935 631 445 351 218 109 73 136 112 117 76 67 48 2 0
0 0 0 0 0 0 0 0 0 0 0 0 0 0 0 0 0 0 0 0 0 0 0 0 0 0 0 0 17 863 855 651 533 407 524 935 795 555 427 249 210 91 142 144 121 67 55 0 0
5 0 0 0 0 0 0 0 0 0 0 0 0 0 0 0 0 0 0 0 0 0 0 0 0 0 0 0 0 0 750 678 504 397 338 387 749 817 708 457 280 231 116 193 208 88 81 56 7
0 0 0 0 0 0 0 0 0 0 0 0 0 0 0 0 0 0 0 0 0 0 0 0 0 0 0 0 0 0 0 445 592 418 308 389 418 510 846 736 515 359 254 174 167 170 146 109 40
0 0 0 0 0 0 0 0 0 0 0 0 0 0 0 0 0 0 0 0 0 0 0 0 0 0 0 0 0 0 0 0 85 496 502 464 396 386 488 704 797 852 461 202 168 187 197 169 120
3 14 0 0 0 0 0 0 0 0 0 0 0 0 0 0 0 0 0 0 0 0 0 0 0 0 0 0 0 0 0 0 0 0 237 540 587 704 699 578 773 617 746 623 270 271 206 194 194
34 0 0 0 0 0 0 0 0 0 0 0 0 0 0 0 0 0 0 0 0 0 0 0 0 0 0 0 0 0 0 0 0 0 0 73 81 166 580 614 470 432 723 817 638 691 306 193 149
14 0 0 0 0 0 0 0 0 0 0 0 0 0 0 0 0 0 0 0 0 0 0 0 0 0 0 0 0 0 0 0 0 0 0 2 20 92 344 382 511 272 272 612 671 767 555 440 266
0 0 0 0 0 0 0 0 0 0 0 0 0 0 0 0 0 0 0 0 0 0 0 0 0 0 0 0 0 0 0 0 0 0 0 0 3 18 68 146 249 392 333 407 567 659 669 532 563
0 0 0 1 0 0 0 0 0 0 0 0 0 0 0 0 0 0 0 0 0 0 0 0 0 0 0 0 0 0 0 0 0 0 0 0 0 0 0 49 63 228 337 390 506 502 593 563 532
0 0 0 3 0 0 0 0 0 0 0 0 0 0 0 0 0 0 0 0 0 0 0 0 0 0 0 0 0 0 0 0 0 0 0 0 0 0 0 0 12 46 71 171 370 487 584 623 500
0 0 0 1 0 0 0 0 0 0 0 0 0 0 0 0 0 0 0 0 0 0 0 0 0 0 0 0 0 0 0 0 4 0 0 0 0 0 0 0 0 0 2 86 225 333 397 532 498
0 0 0 0 0 0 0 0 0 0 0 0 0 0 0 0 0 0 0 0 0 0 0 0 0 0 0 0 0 0 0 0 0 0 0 0 0 0 0 0 2 5 4 9 92 75 110 185 265

GFSSGP_con_mucape_045.txt.gz
CAPE
53 0 0 0 0 0 0 0 0 0 0 0 0 0 106 30 164 111 343 638 549 1008 1531 1649 2291 2455 2480 2306 2083 1814 1781 1670 1292 441 46 0 0 0 0 89 28 103 41 1 1 0 1 1 0
201 7 0 0 0 0 0 0 0 0 0 0 0 0 16 369 179 324 665 830 727 906 1000 1297 2068 2327 2435 2207 1900 1678 1676 1290 872 163 13 0 0 0 114 88 149 81 20 0 0 0 2 2 0
71 3 0 0 0 0 0 0 0 0 0 0 0 0 25 233 552 565 630 1006 843 529 682 1168 2179 2348 2335 2076 1835 1808 1387 977 429 18 0 0 0 1 196 113 92 18 13 0 0 1 3 2 0
65 0 0 0 0 0 0 0 0 0 0 0 0 6 110 359 517 701 651 856 779 584 686 1379 1906 2170 2091 1943 1807 1604 1065 606 152 2 0 0 0 11 51 27 5 5 2 0 0 1 3 0 0
19 3 0 0 0 0 0 0 0 0 0 0 0 46 353 577 568 485 579 757 633 487 337 437 1575 1850 1811 1746 1676 1151 1117 593 102 0 0 0 1 9 9 5 0 0 0 0 0 2 1 0 0
9 10 0 0 0 0 2 0 0 0 0 0 6 255 442 622 472 483 587 591 505 482 337 442 1016 1028 1113 1233 1238 955 1146 818 179 21 0 2 3 4 3 1 0 0 0 2 1 0 0 0 0
1 0 0 0 0 0 9 0 0 0 0 0 0 300 589 653 467 497 513 549 538 478 399 222 354 452 599 533 831 869 827 868 344 67 39 22 4 2 2 0 0 0 3 38 0 0 0 0 0
11 0 0 0 0 2 6 5 0 0 0 0 0 80 759 832 823 675 545 579 484 363 218 99 89 85 68 106 240 361 663 616 376 99 67 22 10 27 25 50 41 57 74 48 0 0 0 0 0
63 0 0 0 0 1 26 4 0 0 0 0 53 540 895 879 894 767 611 477 431 327 230 118 70 46 51 62 82 100 127 346 174 73 28 12 0 5 10 0 74 140 193 22 0 0 0 0 0
64 0 0 0 0 6 9 6 0 0 0 0 302 945 886 488 948 867 752 633 578 354 264 193 110 64 55 61 68 65 61 242 121 67 42 15 0 0 0 0 35 172 196 64 0 0 0 0 0
45 0 0 0 0 0 0 0 0 0 0 0 45 709 669 497 444 524 812 795 658 513 340 243 186 107 57 44 39 0 48 36 137 89 50 18 2 3 0 11 25 48 123 48 8 0 0 0 0
21 14 2 49 66 43 0 3 0 0 0 0 0 343 442 381 548 436 360 817 732 607 487 355 207 106 58 31 54 35 50 25 138 110 53 44 13 9 12 9 10 29 76 47 21 6 0 0 0
15 0 44 67 18 0 0 0 0 0 0 0 1 54 50 208 406 486 431 517 512 659 549 441 353 134 74 39 27 0 12 46 64 98 80 60 21 9 15 25 15 19 55 64 38 18 0 0 0
1 4 3 4 16 8 0 0 0 2 0 0 0 0 0 0 24 147 508 514 601 598 377 432 412 331 214 24 0 0 22 26 41 9 48 84 50 0 3 35 36 35 43 50 76 60 16 0 0
0 2 7 1 0 0 0 0 0 0 0 0 0 0 0 0 0 0 218 315 490 560 469 492 274 399 330 326 83 66 158 65 92 97 73 0 0 0 16 20 49 42 38 30 25 25 13 4 0
29 1 11 0 0 0 0 0 0 7 10 0 0 0 0 0 0 0 0 0 104 384 508 641 529 407 306 403 370 158 195 350 193 125 224 162 41 19 43 75 102 78 19 59 51 23 22 28 1
33 4 0 0 0 0 0 0 0 0 0 0 0 0 0 0 0 0 0 0 0 0 285 727 661 723 608 419 471 447 345 387 566 400 255 263 231 172 58 39 107 109 118 102 99 56 45 26 19
0 0 0 0 0 0 0 0 0 0 0 0 0 0 0 0 0 0 0 0 0 0 0 0 6 716 666 699 664 592 604 492 447 683 702 503 230 327 277 197 104 52 103 132 127 101 47 35 33
0 0 0 0 0 0 0 0 0 0 0 0 0 0 0 0 0 0 0 0 0 0 0 0 0 0 0 107 743 766 715 681 526 342 446 625 559 278 363 341 288 156 106 168 171 146 92 75 53
0 0 0 0 0 0 0 0 0 0 0 0 0 0 0 0 0 0 0 0 0 0 0 0 0 0 0 0 0 0 627 746 780 631 497 346 243 310 421 259 401 345 213 154 195 206 188 130 102
0 0 0 0 0 0 0 0 0 0 0 0 0 0 0 0 0 0 0 0 0 0 0 0 0 0 0 0 0 0 0 140 392 510 552 473 358 229 205 253 251 431 443 278 204 234 218 168 141
0 0 0 0 0 0 0 0 0 0 0 0 0 0 0 0 0 0 0 0 0 0 0 0 0 0 0 0 0 0 0 0 0 191 468 490 404 282 287 217 201 318 393 552 344 265 255 269 193
0 0 1 0 0 0 0 0 0 0 0 0 0 0 0 0 0 0 0 0 0 0 0 0 0 0 0 0 0 0 0 0 0 0 0 4 248 473 505 421 315 303 396 372 597 558 451 185 205
2 0 0 0 0 0 0 0 0 0 0 0 0 0 0 0 0 0 0 0 0 0 0 0 0 0 0 0 0 0 0 0 0 0 0 0 0 0 213 423 507 584 349 420 536 531 544 494 308
1 0 0 0 0 0 0 0 0 0 0 0 0 0 0 0 0 0 0 0 0 0 0 0 0 0 0 0 0 0 0 0 0 0 0 0 0 0 1 23 225 304 340 211 175 441 452 514 475
0 0 0 0 0 0 0 0 0 0 0 0 0 0 0 0 0 0 0 0 0 0 0 0 0 0 0 0 0 0 0 0 0 0 0 0 0 0 0 2 2 27 68 114 254 245 293 372 413
0 0 0 0 0 0 0 0 0 0 0 0 0 0 0 0 0 0 0 0 0 0 0 0 0 0 0 0 0 0 0 0 0 0 0 0 0 0 0 0 0 11 30 67 84 114 119 177 261
0 0 0 0 0 1 0 0 0 0 0 0 0 0 0 0 0 0 0 0 0 0 0 0 0 0 0 0 0 0 0 0 0 0 0 0 0 0 0 0 0 0 0 0 32 79 87 113 180
0 0 0 0 0 0 0 0 0 0 0 0 0 0 0 0 0 0 0 0 0 0 0 0 0 0 0 0 0 0 0 0 0 0 0 0 0 0 0 0 0 0 0 0 0 0 12 20 15
0 0 0 0 0 0 0 0 0 0 0 0 0 0 0 0 0 0 0 0 0 0 0 0 0 0 0 0 0 0 0 0 0 0 0 0 0 0 0 0 0 0 0 1 1 2 4 3 2

GFSSGP_con_mucape_048.txt.gz
CAPE
134 0 0 0 0 0 0 0 0 0 0 0 0 22 71 18 61 1 404 440 907 1147 1482 2034 2420 2436 2433 2219 1823 1852 1775 1547 1060 233 33 0 0 0 57 6 96 17 4 1 0 1 0 0 0
139 0 0 0 0 0 0 0 0 0 0 0 0 9 57 281 227 488 455 634 809 1057 1485 1901 2450 2499 2298 2179 1907 1907 1813 1209 499 99 0 0 0 91 308 103 148 23 0 0 0 1 1 0 0
141 0 0 0 0 0 0 0 0 0 0 0 0 16 73 506 320 528 606 536 856 969 1322 1784 2311 2473 2332 1984 1882 1942 1571 671 206 2 0 0 0 422 349 285 60 6 0 0 0 2 0 0 0
15 0 0 0 0 0 0 0 0 0 0 0 0 76 247 302 397 658 805 775 526 695 1004 1746 2161 2296 2129 1844 1883 1548 1127 377 75 0 0 0 6 231 96 63 19 7 1 0 0 2 0 0 0
1 0 0 0 0 0 0 0 0 0 0 0 0 126 406 496 684 850 1010 857 568 501 827 1562 2217 2215 1963 1835 1754 1370 1233 385 25 0 0 0 21 82 26 4 3 0 0 0 1 1 0 0 0
8 0 0 0 0 0 0 0 0 0 0 0 212 330 471 437 600 833 926 799 600 584 778 755 1580 1845 1804 1698 1377 1287 1123 552 54 11 0 4 9 23 39 20 0 0 0 1 1 0 0 0 0
8 0 0 0 0 0 11 0 0 0 0 0 156 360 508 489 532 713 788 625 485 375 305 420 520 887 913 1049 979 1031 996 582 196 71 37 14 6 9 25 20 0 0 2 22 0 0 0 0 0
0 0 0 0 0 0 0 1 0 0 0 12 83 319 593 634 690 709 643 548 500 401 385 233 273 222 203 381 547 543 759 446 178 101 71 27 13 22 38 73 74 64 116 64 0 0 0 0 0
9 0 0 0 0 0 0 3 2 0 0 16 159 506 744 780 638 635 616 587 542 407 188 170 85 58 67 144 311 428 401 304 123 77 33 9 2 18 28 15 61 128 194 52 0 0 0 0 0
44 0 0 0 0 0 0 0 0 0 3 267 849 902 903 888 718 685 710 556 429 328 201 135 106 78 52 62 82 78 330 234 77 50 30 12 3 13 29 22 56 124 187 75 3 0 0 0 0
25 0 0 0 0 0 3 0 0 0 0 36 694 861 926 880 774 630 611 554 474 394 261 182 110 61 56 57 46 45 41 268 112 63 35 28 0 5 12 16 45 96 130 60 15 0 0 0 0
48 24 0 2 24 27 1 1 0 0 0 0 183 743 356 421 727 822 787 683 622 500 369 251 152 54 36 30 33 31 31 23 137 67 40 28 8 0 8 7 33 73 82 63 33 14 0 0 0
22 1 5 46 65 14 0 0 4 0 0 0 114 627 426 253 187 260 894 861 753 642 493 327 220 109 74 37 17 0 0 0 21 84 34 16 19 6 4 14 15 16 41 51 35 27 12 0 0
22 4 39 31 23 35 0 0 3 0 0 7 243 261 181 272 329 349 278 404 870 725 582 426 242 198 50 16 24 21 0 0 0 11 47 24 34 20 0 1 18 24 5 20 18 20 25 7 0
8 61 46 6 0 19 24 0 0 0 0 0 44 1 0 0 0 372 477 374 519 557 504 529 431 290 153 72 43 0 0 0 0 18 17 36 63 86 19 0 0 19 23 25 18 30 41 37 22
21 26 18 0 0 0 0 0 0 0 0 0 0 0 0 0 0 0 163 418 358 578 553 377 315 456 376 269 104 19 37 6 7 73 87 138 133 67 17 0 0 0 31 56 24 20 38 39 13
30 0 0 0 0 0 0 0 0 13 5 0 0 0 0 0 0 0 0 0 14 377 518 469 550 499 399 351 331 237 111 129 276 167 142 110 175 171 62 32 9 7 55 84 43 42 70 69 18
0 0 0 0 0 0 0 0 0 0 0 0 0 0 0 0 0 0 0 0 0 0 0 270 543 626 579 564 406 385 421 360 195 320 428 230 189 224 142 162 217 135 74 84 86 95 108 130 105
0 0 0 0 0 0 1 0 0 0 0 0 0 0 0 0 0 0 0 0 0 0 0 0 0 0 225 543 575 539 527 471 481 347 378 525 495 364 193 153 218 227 186 184 149 132 135 144 162
0 0 0 0 0 2 0 0 0 0 0 0 0 0 0 0 0 0 0 0 0 0 0 0 0 0 0 0 0 282 567 659 655 663 492 332 251 262 310 205 128 193 217 165 233 195 163 200 189
0 0 0 0 0 0 0 0 0 0 0 0 0 0 0 0 0 0 0 0 0 0 0 0 0 0 0 0 0 0 0 6 204 242 338 396 415 437 329 203 134 143 186 188 116 259 252 218 211
4 0 0 0 0 0 0 0 0 0 0 0 0 0 0 0 0 0 0 0 0 0 0 0 0 0 0 0 0 0 0 0 0 0 0 39 224 230 279 275 191 135 86 103 201 288 291 272 183
0 0 0 0 0 0 0 0 0 0 0 0 0 0 0 0 0 0 0 0 0 0 0 0 0 0 0 0 0 0 0 0 0 0 0 0 0 0 0 60 286 250 104 88 140 204 207 218 290
6 0 0 0 0 0 0 0 0 0 0 0 0 0 0 0 0 0 0 0 0 0 0 0 0 0 0 0 0 0 0 0 0 0 0 0 0 0 0 0 14 161 220 182 100 80 79 141 192
13 1 0 0 0 0 0 0 0 0 0 0 0 0 0 0 0 0 0 0 0 0 0 0 0 0 0 0 0 0 0 0 0 0 0 0 0 0 0 0 0 6 150 220 42 53 71 66 53
9 6 0 0 0 0 0 0 0 0 0 0 0 0 0 0 0 0 0 0 0 0 0 0 0 0 0 0 0 0 0 0 0 0 0 0 0 0 0 0 0 0 0 15 24 29 108 100 84
4 0 0 0 0 0 0 0 0 0 0 0 0 0 0 0 0 0 0 0 0 0 0 0 0 0 0 0 0 0 0 0 0 0 0 0 0 0 0 0 0 0 0 0 0 14 29 28 40
0 0 0 0 0 0 0 0 0 0 0 0 0 0 0 0 0 0 0 0 0 0 0 0 0 0 0 0 0 0 0 0 0 0 0 0 0 0 0 0 0 0 0 0 0 0 0 1 3
0 0 0 0 0 0 0 0 0 0 0 0 0 0 0 0 0 0 0 0 0 0 0 0 0 0 0 0 0 0 0 0 0 0 0 0 0 0 0 0 0 0 0 0 0 0 0 0 0
0 0 0 0 0 0 0 0 0 0 0 0 0 0 0 0 0 0 0 0 0 0 0 0 0 0 0 0 0 0 0 0 0 0 0 0 0 0 0 0 0 0 0 0 0 0 0 1 1

GFSSGP_con_mucape_051.txt.gz
CAPE
250 0 0 0 0 0 0 0 0 0 0 0 0 22 0 22 2 1 211 514 877 1240 1710 1848 2152 2213 2419 2300 1775 1831 1672 1284 790 233 55 0 0 0 0 132 10 2 1 0 2 0 0 0 0
268 3 0 0 0 0 0 0 0 0 0 5 38 65 98 99 216 359 379 732 1087 1273 1710 1877 2333 2464 2219 2014 1657 1802 1372 773 290 68 0 0 0 149 1 214 11 1 0 0 0 0 0 0 0
99 2 0 0 0 0 0 0 0 0 0 0 1 34 191 291 442 407 482 904 942 1224 1690 1949 2446 2386 2246 1913 1859 1757 1128 500 173 0 0 0 276 430 217 240 16 0 0 0 0 0 0 0 0
4 0 0 0 0 0 0 0 0 0 0 0 1 111 334 405 533 482 713 797 921 1337 1617 2091 2341 2323 2168 2066 2042 1791 815 342 71 3 0 4 402 515 433 113 15 0 0 0 0 0 0 0 0
0 0 0 0 0 0 0 0 0 0 0 0 0 208 366 499 440 669 702 629 743 1213 1497 1787 2325 2313 2085 1943 1814 1457 885 213 27 0 0 40 263 115 142 74 3 0 0 0 0 0 0 0 0
3 0 0 0 0 0 0 0 0 0 0 32 101 275 349 508 763 818 807 640 689 906 1257 1525 2031 2052 1899 1883 1722 1423 965 274 45 8 0 4 116 90 92 63 24 0 0 0 1 0 0 0 0
0 0 0 0 0 0 0 0 0 0 0 0 118 328 427 587 990 1075 898 694 425 563 748 1097 1424 1438 1435 1347 1435 1226 946 448 212 80 36 44 31 69 68 63 44 13 2 1 0 0 0 0 0
10 0 0 0 0 0 6 0 0 0 0 0 149 237 477 580 807 1059 812 569 454 598 642 521 648 953 732 726 758 736 658 386 230 96 57 25 23 45 62 70 70 42 50 43 3 0 0 0 0
37 13 0 0 0 0 3 5 0 0 0 5 284 436 540 649 704 916 684 566 517 566 451 345 465 656 322 319 433 416 338 180 109 68 28 7 4 18 32 18 31 96 154 72 8 0 0 0 0
44 0 0 0 0 0 0 4 0 0 0 108 684 720 745 761 758 804 692 603 550 524 386 223 342 252 103 160 291 207 291 82 59 32 15 0 0 9 18 15 37 107 167 95 23 3 0 0 0
61 2 0 0 0 1 0 2 5 0 0 0 18 866 908 784 741 753 712 684 643 501 235 180 140 129 77 93 138 199 290 173 69 36 20 15 1 4 13 15 51 63 96 78 30 6 0 0 0
44 0 2 1 45 0 0 0 4 0 0 0 5 479 821 793 768 819 801 704 563 438 267 200 133 82 76 62 65 48 43 233 128 63 18 12 7 0 0 4 18 49 82 89 40 22 1 0 0
87 22 7 86 58 4 10 0 0 0 0 0 0 61 653 838 786 726 730 608 558 571 404 303 165 126 93 70 52 46 34 33 127 71 38 10 3 0 0 0 0 18 61 69 41 22 20 10 0
66 63 70 58 30 20 1 0 0 0 0 0 0 309 295 391 744 802 743 719 691 679 580 426 307 202 88 60 37 35 32 6 0 68 60 20 0 0 0 0 0 0 13 20 27 17 6 10 1
79 70 91 80 47 15 0 0 0 0 0 0 18 66 331 318 237 187 331 884 875 801 716 603 444 299 226 97 64 29 31 14 0 0 0 26 0 0 17 0 0 0 11 14 16 0 0 0 9
41 39 39 43 37 5 24 0 0 0 0 0 4 14 9 4 38 310 348 268 250 754 781 724 585 478 355 220 132 80 36 14 0 0 0 3 41 46 19 41 28 0 0 0 18 28 4 0 0
25 0 1 0 0 0 0 0 0 0 0 0 0 0 0 0 0 0 0 336 350 405 522 531 504 533 466 351 282 213 119 57 54 19 43 66 32 44 103 99 69 17 7 0 0 23 36 17 4
0 0 0 0 0 0 0 0 0 0 0 0 0 0 0 0 0 0 0 0 49 207 340 546 518 456 414 442 413 360 241 180 144 164 227 187 161 147 99 146 155 96 112 125 59 19 30 24 76
0 0 0 0 0 0 0 0 0 0 0 0 0 0 0 0 0 0 0 0 0 0 0 1 128 340 518 568 491 426 319 359 384 378 324 233 392 374 242 238 215 178 94 114 155 152 131 124 119
0 0 0 0 0 1 0 0 5 0 0 0 0 0 0 0 0 0 0 0 0 0 0 0 0 0 0 48 318 484 573 503 465 509 533 499 372 332 309 244 173 155 115 104 128 183 166 157 152
0 0 0 0 0 0 0 2 5 0 0 0 0 0 0 0 0 0 0 0 0 0 0 0 0 0 0 0 0 0 0 78 212 298 521 558 544 551 425 319 283 166 141 117 126 167 202 179 130
0 0 0 0 0 0 0 0 0 0 0 0 0 0 0 0 0 0 0 0 0 0 0 0 0 0 0 0 0 0 0 0 0 0 0 0 0 0 19 109 183 225 223 150 101 67 64 120 146
0 0 0 0 0 0 0 0 0 0 0 0 0 0 0 0 0 0 0 0 0 0 0 0 0 0 0 0 0 0 0 0 0 0 0 0 0 0 0 0 0 0 153 213 76 52 53 77 132
5 10 0 0 0 0 0 0 0 0 0 0 0 0 0 0 0 0 0 0 0 0 0 0 0 0 0 0 0 0 0 0 0 0 0 0 0 0 0 0 0 1 1 114 169 121 95 82 66
10 13 0 0 0 0 0 0 0 0 0 0 0 0 0 0 0 0 0 0 0 0 0 0 0 0 0 0 0 0 0 0 0 0 0 0 0 0 0 0 0 0 0 12 93 109 70 62 61
3 7 0 0 0 0 0 0 0 0 0 0 0 0 0 0 0 0 0 0 0 0 0 0 0 0 0 0 0 0 0 0 0 0 0 0 0 0 0 0 0 0 0 3 23 68 70 63 71
4 0 0 0 0 0 0 0 0 0 0 0 0 0 0 0 0 0 0 0 0 0 0 0 0 0 0 0 0 0 0 0 0 0 0 0 0 0 0 0 0 0 0 0 1 19 20 36 39
1 0 0 0 0 0 0 0 0 0 0 0 0 0 0 0 0 0 0 0 0 0 0 0 0 0 0 0 0 0 0 0 0 0 0 0 0 0 0 0 0 0 0 0 0 0 0 0 0
2 0 0 0 0 0 0 0 0 0 0 0 0 0 0 0 0 0 0 0 0 0 0 0 0 0 0 0 0 0 0 0 0 0 0 0 0 0 0 0 0 0 0 0 0 0 0 0 0
0 0 0 0 0 0 0 0 0 0 0 0 0 0 0 0 0 0 0 0 0 0 0 0 0 0 0 0 0 0 0 0 0 0 0 0 0 0 0 0 0 0 0 0 0 0 0 0 0

GFSSGP_con_mucape_054.txt.gz
CAPE
410 0 0 0 0 0 0 0 0 0 0 0 0 9 0 15 0 0 154 477 716 1302 1650 1844 2109 2113 2185 2145 1716 1706 1484 1142 691 256 61 0 0 0 212 6 2 1 0 1 2 2 1 0 2
228 1 0 0 0 0 0 0 0 0 0 11 29 49 48 100 207 270 374 552 980 1375 1601 1622 2169 2318 2407 2159 1694 1600 1216 735 280 83 1 0 0 0 270 20 2 0 0 0 0 0 0 0 0
64 2 0 0 0 0 0 0 0 0 0 39 0 32 173 213 314 300 416 973 1082 1271 1665 1680 2121 2447 2241 1929 1856 1527 878 451 138 0 0 0 307 64 382 80 0 0 0 0 1 0 0 0 0
37 0 0 0 0 0 0 0 0 0 0 0 0 85 334 346 419 405 893 1048 1072 1374 1704 2037 2349 2327 2142 2044 1933 1446 733 336 53 0 0 433 469 302 322 90 0 0 0 0 1 1 0 0 0
17 0 0 0 0 0 0 0 0 0 0 0 4 104 307 427 451 780 948 972 837 1328 1712 2012 2351 2315 2137 2070 1902 1403 669 210 29 0 0 473 533 506 226 86 0 0 0 0 0 0 0 0 0
14 0 0 0 0 0 0 0 0 0 0 0 78 252 264 488 682 863 859 838 901 1218 1690 1903 2109 2122 1948 1980 1708 1327 870 150 31 8 4 305 282 292 176 86 29 0 0 0 0 0 0 0 0
6 0 0 0 0 0 0 0 0 0 0 0 68 216 291 603 754 747 700 693 997 1257 1348 1570 1603 1657 1567 1616 1450 1213 872 458 107 56 41 107 140 164 128 96 57 29 0 1 0 0 0 0 0
5 2 0 0 0 0 0 0 0 0 0 0 138 71 349 650 873 917 773 646 900 1041 1049 1164 1177 1253 1101 1309 1143 898 649 431 231 78 62 45 26 49 114 74 65 53 46 45 21 0 0 0 0
42 0 0 0 0 0 0 0 0 0 0 8 95 396 407 840 1101 983 733 534 558 584 571 686 735 860 741 664 832 466 302 165 92 51 24 16 11 23 32 26 39 84 114 78 25 9 0 0 0
88 49 0 0 0 0 2 0 0 0 0 25 25 242 553 602 1080 978 711 533 457 523 565 495 362 639 469 428 525 475 146 70 50 31 12 0 0 16 26 22 22 62 136 77 22 8 1 0 0
84 8 0 0 0 0 1 11 0 0 0 0 0 0 391 477 918 932 746 585 557 654 520 348 401 597 398 227 253 135 135 77 57 47 16 13 1 1 11 8 21 36 64 76 29 5 0 0 0
52 6 1 0 8 9 0 0 0 0 0 0 0 0 40 417 609 874 775 658 637 583 456 304 344 370 263 105 161 181 212 144 82 58 37 10 9 0 0 0 4 21 27 49 36 13 6 0 0
46 39 11 28 2 10 3 0 2 0 0 0 0 0 36 232 471 618 784 761 751 652 426 254 223 186 139 80 76 85 79 167 152 79 54 18 0 0 0 0 0 0 13 30 31 12 4 8 0
24 58 38 31 13 26 0 0 0 0 2 0 0 2 27 234 430 522 839 906 827 597 516 356 266 169 110 92 64 45 43 42 53 78 49 0 0 0 0 0 0 0 0 1 11 1 0 0 0
65 56 76 85 66 61 42 0 0 0 11 0 0 0 2 64 119 578 775 846 742 652 624 548 418 297 196 110 63 46 29 35 22 14 53 39 0 0 0 0 0 0 0 0 0 0 10 0 0
61 40 60 43 51 42 27 0 0 0 0 0 0 0 0 15 149 175 448 826 824 790 758 702 618 507 386 274 113 61 34 9 22 8 0 0 0 0 4 11 28 32 3 0 0 0 2 27 19
46 6 5 6 45 38 8 0 0 0 0 0 0 17 10 6 2 66 214 277 446 702 821 831 744 658 524 412 312 207 149 122 77 51 36 0 0 12 17 30 53 59 40 23 42 40 20 12 27
0 0 0 0 7 4 0 0 0 0 0 0 0 4 8 0 0 0 0 0 290 364 409 531 626 574 569 500 404 352 307 281 176 117 94 55 29 33 80 104 107 109 143 131 98 107 115 115 93
0 0 0 0 0 0 1 7 0 7 0 0 0 0 0 0 0 0 0 0 0 11 387 341 506 539 440 441 435 468 446 413 355 272 220 207 219 204 229 280 274 205 205 192 173 142 115 105 122
0 0 0 0 0 24 0 0 4 0 0 0 0 0 0 0 0 0 0 0 0 0 0 0 94 189 268 426 553 586 494 459 419 379 370 383 439 421 311 257 319 283 166 169 129 127 92 68 92
3 0 0 0 0 14 2 0 0 0 0 0 0 0 0 0 0 0 0 0 0 0 0 0 0 0 6 48 143 192 224 279 349 456 527 555 559 569 547 495 445 406 253 153 151 106 123 64 43
0 0 0 0 0 1 5 0 0 0 0 0 0 0 0 0 0 0 0 0 0 0 0 0 0 0 0 0 0 0 0 0 0 0 0 0 0 0 0 1 11 70 127 174 215 215 150 97 50
5 0 0 0 0 0 0 1 0 0 0 0 0 0 0 0 0 0 0 0 0 0 0 0 0 0 0 0 0 0 0 0 0 0 0 0 0 0 0 0 0 0 0 0 13 156 130 80 48
0 16 11 0 0 0 0 0 0 0 0 0 0 0 0 0 0 0 0 0 0 0 0 0 0 0 0 0 0 0 0 0 0 0 0 0 0 0 0 0 0 0 1 3 1 21 135 135 93
16 9 0 0 0 0 0 0 0 0 0 0 0 0 0 0 0 0 0 0 0 0 0 0 0 0 0 0 0 0 0 0 0 0 0 0 0 0 0 0 0 0 0 1 1 23 89 102 102
0 0 0 0 0 0 0 0 0 0 0 0 0 0 0 0 0 0 0 0 0 0 0 0 0 0 0 0 0 0 0 0 0 0 0 0 0 0 0 0 0 0 0 0 0 17 52 90 70
0 0 0 0 0 0 0 0 0 0 0 0 0 0 0 0 0 0 0 0 0 0 0 0 0 0 0 0 0 0 0 0 0 0 0 0 0 0 0 0 0 0 0 0 1 11 47 32 33
0 0 0 0 0 0 0 0 0 0 0 0 0 0 0 0 0 0 0 0 0 0 0 0 0 0 0 0 0 0 0 0 0 0 0 0 0 0 0 0 0 0 0 0 0 0 0 1 3
0 0 0 0 0 0 0 0 0 0 0 0 0 0 0 0 0 0 0 0 0 0 0 0 0 0 0 0 0 0 0 0 0 0 0 0 0 0 0 0 0 0 0 0 0 0 0 0 0
10 0 0 0 0 0 0 0 0 0 0 0 0 0 0 0 0 0 0 0 0 0 0 0 0 0 0 0 0 0 0 0 0 0 0 0 0 0 0 0 0 0 0 0 0 0 0 0 0

GFSSGP_con_mucape_057.txt.gz
CAPE
334 28 0 0 0 0 0 0 0 0 0 0 0 16 15 0 0 0 54 414 400 1026 1502 1456 2008 2061 2134 2139 1890 1773 1402 1136 635 242 25 0 60 283 2 5 1 0 2 9 8 7 8 6 2
236 0 2 0 0 0 0 0 0 0 0 0 0 15 28 142 210 431 468 573 826 1243 1398 1336 2075 2149 2294 2191 1834 1696 1188 688 284 94 0 0 40 408 86 6 0 0 0 0 0 1 3 2 0
66 5 0 0 0 0 0 0 0 0 0 0 0 20 116 233 315 323 318 931 1158 1332 1417 1570 2075 2402 2302 2023 1834 1436 832 423 135 2 0 3 45 463 159 5 0 0 0 0 0 0 1 0 0
81 41 0 0 0 0 0 0 0 0 0 19 0 94 311 295 343 329 838 951 1324 1362 1385 1626 2258 2290 2166 2060 1907 1290 646 269 42 0 0 513 163 569 276 5 0 0 1 0 0 1 0 0 0
62 6 0 0 0 0 0 0 0 0 0 0 0 42 341 414 432 836 1156 1113 1046 1319 1431 1568 2358 2294 2118 2016 1729 1281 573 201 4 0 159 751 380 652 240 20 0 0 0 1 0 0 0 0 0
55 5 0 0 0 0 0 0 0 0 0 0 57 196 288 486 1179 947 1150 1069 787 1210 1668 1679 1935 2048 1982 1942 1516 1180 782 131 16 25 531 752 867 509 125 55 21 0 0 3 1 0 0 0 0
29 7 0 0 0 0 0 0 0 0 0 0 125 234 239 624 1256 1265 967 1006 905 1330 1719 1699 1624 1523 1703 1551 1341 1106 801 383 82 59 334 521 444 273 157 104 50 23 7 27 26 0 0 0 0
36 1 3 0 0 0 0 0 0 0 0 1 183 86 192 494 982 890 859 952 1195 1441 1496 1609 1567 1296 1367 1421 994 807 659 386 171 70 64 38 45 136 147 51 74 39 30 32 13 0 0 0 0
54 76 3 0 0 0 0 0 0 0 0 9 102 250 253 468 750 687 676 684 851 982 1151 1206 1284 1245 1162 1288 899 478 337 188 70 51 24 17 29 43 52 29 30 59 66 51 15 0 0 0 0
197 43 7 0 0 0 1 1 0 0 0 4 49 5 327 1022 1135 703 545 604 777 861 806 726 792 890 805 845 962 536 209 126 54 37 22 9 9 25 26 20 17 50 102 67 17 6 0 0 0
80 17 0 1 12 4 0 0 4 0 0 2 18 1 58 839 986 755 595 532 576 565 469 455 384 567 553 545 652 401 144 80 54 46 16 0 0 5 22 16 25 44 42 83 28 3 0 0 0
59 30 2 1 10 0 0 0 7 0 0 0 5 0 0 249 484 1069 655 510 459 431 507 573 336 525 619 341 321 270 204 78 71 67 48 11 0 0 0 0 7 24 39 57 46 12 0 0 0
12 43 13 22 33 1 0 1 2 2 0 0 0 0 0 67 201 479 561 472 595 678 680 467 334 494 542 379 240 169 265 188 109 92 72 37 0 0 0 0 0 2 13 19 28 12 0 0 0
32 41 61 60 78 46 2 0 0 0 0 0 0 0 0 56 152 269 410 492 627 737 647 472 325 380 397 284 133 118 132 139 150 110 66 43 12 0 0 0 0 0 0 0 3 0 0 0 0
39 50 49 52 67 79 25 0 0 0 0 0 0 0 11 84 59 95 321 422 486 683 671 442 330 279 231 172 118 99 75 63 47 41 57 48 35 0 0 0 0 0 0 0 0 0 0 0 0
63 38 40 38 81 59 30 0 0 0 0 0 0 0 14 15 1 35 90 433 518 723 717 609 517 436 324 213 146 109 70 31 34 32 0 14 21 0 0 0 0 0 0 0 0 0 0 0 0
43 0 0 8 69 43 7 0 0 0 0 0 0 0 0 0 0 14 50 140 370 649 725 710 702 643 559 459 361 245 150 104 72 49 34 25 8 0 0 0 15 28 25 17 9 10 14 30 31
0 0 2 0 28 43 15 1 3 1 0 0 0 0 0 0 0 6 40 97 212 369 697 814 810 766 701 598 505 397 340 253 181 153 86 47 46 44 0 0 63 67 48 52 95 134 136 88 91
0 0 0 2 34 76 39 17 4 3 0 0 0 0 0 0 1 0 0 0 0 115 350 348 524 608 662 630 588 467 397 331 322 308 246 174 143 141 149 157 177 183 208 198 143 125 87 75 53
0 0 0 0 19 65 36 14 0 0 0 0 0 0 1 0 0 0 0 0 0 0 0 303 339 438 583 513 472 453 433 436 430 405 394 351 305 283 292 349 350 255 253 291 241 165 137 90 110
0 0 0 0 0 23 11 0 0 0 0 0 0 0 0 0 0 0 0 0 0 0 0 0 2 84 345 445 411 435 497 540 523 408 396 387 370 369 375 428 415 390 345 314 340 295 146 104 82
0 0 0 0 0 0 0 0 0 0 0 0 0 0 0 0 0 0 0 0 0 0 0 0 0 0 0 0 7 38 66 45 3 0 0 0 0 13 23 19 7 284 59 78 258 155 175 157 85
0 0 0 0 0 0 0 0 0 0 0 0 0 0 0 0 0 1 0 0 0 0 0 0 0 0 0 0 0 0 0 0 0 0 0 0 0 0 0 0 0 0 1 4 5 4 106 20 100
14 0 4 1 3 0 0 0 0 0 0 0 0 0 0 0 0 0 0 0 0 0 0 0 0 0 0 0 0 0 0 0 0 0 0 0 0 0 0 0 0 0 1 1 2 3 3 4 98
27 7 0 0 0 0 0 0 0 0 0 0 0 0 0 0 0 0 0 0 0 0 0 0 0 0 0 0 0 0 0 0 0 0 0 0 0 0 0 0 0 0 0 0 2 3 2 3 3
0 0 0 0 0 0 0 0 0 0 0 0 0 0 0 0 0 0 0 0 0 0 0 0 0 0 0 0 0 0 0 0 0 0 0 0 0 0 0 0 0 0 0 0 0 1 6 39 23
0 0 0 0 0 0 0 0 0 0 0 0 0 0 0 0 0 0 0 0 0 0 0 0 0 0 0 0 0 0 0 0 0 0 0 0 0 0 0 0 0 0 0 0 0 1 1 10 34
1 0 0 0 0 0 0 0 0 0 0 0 0 0 0 0 0 0 0 0 0 0 0 0 0 0 0 0 0 0 0 0 0 0 0 0 0 0 0 0 0 0 0 0 0 2 2 2 4
0 0 0 0 0 0 0 0 0 0 0 0 0 0 0 0 0 0 0 0 0 0 0 0 0 0 0 0 0 0 0 0 0 0 0 0 0 0 0 0 0 0 0 0 0 0 0 0 0
0 0 0 0 0 0 0 0 0 0 0 0 0 0 0 0 0 0 0 0 0 0 0 0 0 0 0 0 0 0 0 0 0 0 0 0 0 0 0 0 0 0 0 0 0 0 0 0 0

GFSSGP_con_mucape_060.txt.gz
CAPE
386 17 0 2 0 0 0 0 0 1 0 0 0 17 0 31 0 40 395 617 465 615 1233 1609 2405 2385 2173 2012 1592 1441 1188 748 430 133 0 302 241 7 11 1 0 4 11 11 14 18 8 9 4
390 0 0 0 0 0 0 0 0 0 0 0 4 19 8 16 514 632 587 660 579 787 1015 1212 2322 2334 2285 2031 1610 1566 946 562 247 73 0 93 472 107 36 0 0 1 2 3 7 8 6 1 0
175 6 4 1 0 0 0 0 0 0 0 0 0 71 200 453 717 724 648 722 750 963 842 1199 1966 2314 2367 1962 1717 1239 725 355 132 6 0 36 611 284 35 0 0 0 2 1 2 3 0 0 0
103 39 0 0 0 0 0 0 0 0 0 0 0 183 543 513 742 680 883 791 996 1025 891 1390 1910 2380 2255 2073 1824 1013 561 215 45 0 0 106 531 441 77 0 0 1 1 3 2 1 0 0 0
95 27 2 0 0 0 0 0 0 0 0 0 0 167 669 896 963 1080 976 877 840 974 963 1334 2396 2351 2237 2085 1611 1168 425 152 0 41 514 669 666 473 84 0 0 2 2 0 2 2 0 0 0
176 33 2 0 0 0 0 0 0 0 0 0 41 257 725 798 1060 1218 1346 1025 814 946 1028 1487 1954 2056 2099 1807 1469 1175 518 104 0 249 1321 835 1051 388 124 54 7 0 23 1 0 0 0 0 0
81 18 3 0 0 0 0 0 0 0 0 0 37 313 667 942 1286 1440 1083 865 931 1087 1042 1230 1412 1445 1656 1444 1262 1075 722 258 48 514 767 982 747 516 157 90 52 10 28 31 5 0 0 0 0
103 39 39 11 0 0 0 0 0 0 0 44 375 280 535 505 1331 1319 1200 950 720 1376 1281 1262 1464 1111 1054 1308 912 789 618 344 187 190 82 54 105 148 176 80 80 41 42 41 5 0 0 0 0
248 90 88 6 0 0 0 5 0 0 0 50 81 16 27 470 1282 1049 1261 1023 1086 1447 1523 1271 1094 957 1071 1211 722 424 345 184 63 50 20 32 35 55 46 41 38 58 46 33 7 0 0 0 0
273 95 17 2 6 0 0 10 0 0 0 11 5 0 8 498 898 940 986 913 946 1058 1263 1341 1207 1045 1023 1074 871 438 272 240 119 54 13 0 0 5 8 28 16 45 75 46 6 0 0 0 0
209 74 20 40 0 5 0 23 2 0 1 0 11 27 57 864 1209 1027 706 735 725 791 1046 1086 1223 999 968 886 996 549 324 321 261 87 49 9 0 0 0 2 7 31 21 47 21 9 0 0 0
138 119 129 104 30 13 0 0 0 0 0 0 28 48 40 274 792 913 662 902 918 999 1055 973 877 881 838 782 986 590 380 333 338 187 73 42 20 0 0 0 0 3 3 8 27 13 6 0 0
108 180 143 120 26 36 24 1 3 3 0 0 0 24 0 131 270 279 951 673 837 817 756 913 853 677 881 905 776 754 535 425 358 329 160 74 52 30 0 0 0 0 0 0 0 6 0 0 0
70 93 163 152 82 53 36 12 0 0 1 0 0 0 0 62 85 140 503 754 716 772 1033 1087 888 757 955 916 837 693 530 511 495 408 317 130 79 56 24 0 0 0 0 0 0 18 20 10 0
42 127 136 78 78 0 66 81 1 0 1 0 0 0 0 14 69 103 196 652 753 781 747 899 804 738 798 791 708 533 423 391 411 406 363 225 100 63 35 19 0 0 0 0 0 0 2 16 17
37 112 90 57 101 9 72 2 0 6 11 5 2 0 0 0 80 59 73 263 775 801 676 669 518 592 617 534 510 412 368 312 293 287 299 281 130 66 59 37 20 0 0 0 1 4 22 36 31
91 14 22 75 129 150 145 20 23 6 0 0 2 0 2 1 84 53 4 36 542 859 772 670 613 566 633 614 554 523 445 384 308 301 261 161 80 47 70 95 84 68 57 50 54 61 60 126 133
6 19 21 34 100 100 156 63 0 24 0 0 0 0 0 0 69 8 0 13 147 538 826 734 672 704 760 762 684 670 590 508 396 325 229 141 117 106 162 201 192 146 149 159 159 127 170 175 174
5 29 39 50 110 166 106 82 25 0 0 0 0 0 0 0 37 5 6 23 94 171 459 711 768 769 798 827 708 624 743 676 635 513 345 225 176 151 163 238 267 297 288 246 207 230 181 175 159
10 0 16 4 147 162 114 77 82 7 0 3 0 0 0 0 0 0 11 16 15 0 0 290 500 773 929 1117 1033 917 847 707 638 542 410 364 335 287 279 336 406 390 341 312 281 279 183 122 135
20 0 2 0 168 37 34 25 7 0 0 0 0 0 0 0 0 0 5 4 0 0 0 0 174 355 515 780 591 509 483 432 442 536 546 347 352 352 337 331 320 323 348 353 418 298 213 235 179
0 7 4 24 13 1 0 0 0 0 0 0 0 0 0 0 0 5 0 0 0 0 0 0 0 0 75 373 484 451 333 356 112 383 263 72 22 28 32 42 43 102 100 407 275 182 202 176 124
0 0 0 1 0 0 0 0 0 0 0 0 0 0 0 0 0 19 1 0 0 0 0 0 0 0 0 0 0 0 0 0 0 0 0 0 0 0 0 0 0 0 0 0 3 2 3 7 6
0 0 0 0 0 0 0 0 0 0 0 0 0 0 0 6 10 2 0 0 0 0 0 0 0 0 0 0 0 0 0 0 0 0 0 0 0 0 0 0 0 0 0 0 1 2 4 4 7
7 4 0 0 0 0 0 0 0 0 0 0 0 0 0 0 0 0 0 0 0 0 0 0 0 0 0 0 0 0 0 0 0 0 0 0 0 0 0 0 0 0 0 0 1 5 4 3 15
0 0 0 0 0 0 0 0 0 0 0 0 0 0 0 0 0 0 0 0 0 0 0 0 0 0 0 0 0 0 0 0 0 0 0 0 0 0 0 0 0 0 0 0 0 5 19 28 36
0 0 0 0 0 0 0 0 0 0 0 0 0 0 0 0 0 0 0 0 0 0 0 0 0 0 0 0 0 0 0 0 0 0 0 0 0 0 0 0 0 0 0 0 0 9 15 4 3
0 0 0 0 0 0 0 0 0 0 0 0 0 0 0 0 0 0 0 0 0 0 0 0 0 0 0 0 0 0 0 0 0 0 0 0 0 0 0 0 0 0 0 0 0 0 2 4 3
0 0 0 0 0 0 0 0 0 0 0 0 0 0 0 0 0 0 0 0 0 0 0 0 0 0 0 0 0 0 0 0 0 0 0 0 0 0 0 0 0 0 0 0 0 0 0 0 0
0 0 0 0 0 0 0 0 0 0 0 0 0 0 0 0 0 0 0 0 0 0 0 0 0 0 0 0 0 0 0 0 0 0 0 0 0 0 0 0 0 0 0 0 0 0 0 0 0

GFSSGP_con_mucape_063.txt.gz
CAPE
683 303 1 16 0 0 0 6 8 0 0 0 0 15 31 195 66 556 301 420 698 1052 1250 1528 2336 2252 1994 1838 1311 1258 881 620 289 7 333 166 37 35 0 1 11 21 24 88 131 18 8 3 1
594 68 8 1 0 0 0 0 0 0 13 0 1 18 8 383 732 684 589 527 510 1072 1405 1193 2466 2296 2058 1808 1307 1200 826 401 161 3 110 390 147 55 1 0 3 6 11 14 16 5 2 1 1
661 95 0 1 0 0 0 0 0 0 0 1 11 16 72 656 788 578 699 554 436 921 979 1813 2449 2468 2149 1831 1448 1068 601 278 100 3 21 614 343 93 0 0 2 2 2 6 8 3 4 0 0
350 35 34 0 0 0 0 2 0 0 0 0 0 21 630 912 879 1003 641 461 560 749 884 1619 2265 2374 2172 1926 1681 887 417 125 30 0 93 502 531 89 0 0 3 4 5 6 5 4 2 0 0
531 97 2 0 0 0 0 0 0 0 0 0 0 57 837 975 1055 932 632 527 672 617 1271 1058 2230 2291 2045 1959 1521 959 289 74 0 98 303 350 658 105 0 0 2 2 4 6 5 2 0 0 0
247 154 44 1 0 0 0 0 0 0 0 4 7 115 1037 842 1086 1035 713 706 735 702 1040 1079 1937 2023 1867 1676 1375 963 288 7 63 385 957 628 672 214 46 0 0 2 1 0 0 0 0 0 0
158 70 40 11 4 7 0 0 0 0 0 43 170 253 991 511 1166 978 960 640 698 732 930 967 1153 1336 1524 1313 1180 932 429 49 121 894 1275 1270 650 417 101 53 19 18 37 15 0 0 0 0 0
152 110 92 88 55 5 0 0 0 3 0 293 449 435 826 273 893 984 1253 601 643 712 1061 730 1140 1016 1004 1026 822 647 414 158 401 359 217 151 149 290 176 93 66 30 46 29 4 0 0 0 0
333 99 78 110 65 15 0 1 1 2 69 107 8 66 276 574 1436 1229 1180 750 765 737 1108 1281 1226 802 854 787 465 345 209 81 37 43 25 24 45 59 22 46 54 51 38 25 3 0 0 0 0
322 166 41 57 92 64 0 1 10 38 34 31 0 0 583 639 781 1305 1310 941 782 1161 1151 1137 1076 1054 911 1035 439 319 185 98 42 0 4 0 0 7 10 25 15 36 51 32 5 0 0 0 0
279 173 3 88 51 37 5 8 11 49 90 40 0 0 12 670 1009 922 945 962 891 936 1258 1419 1053 879 1109 1016 665 520 328 371 338 121 32 0 0 0 0 0 0 6 20 14 2 0 0 0 0
146 163 239 188 69 65 35 38 26 18 27 0 9 20 0 272 666 752 1015 831 853 856 1060 1062 1069 998 912 1127 990 610 345 279 353 252 92 34 12 1 0 0 0 0 0 0 10 9 0 0 0
165 165 201 146 41 25 4 1 3 3 0 0 25 37 6 50 328 589 605 859 881 820 818 650 821 855 711 769 1066 624 381 292 263 328 234 89 55 48 16 0 0 0 0 0 0 0 0 0 0
132 65 191 184 86 53 10 2 13 0 0 0 1 19 7 51 119 369 620 723 886 902 872 751 627 692 423 875 802 681 423 357 264 255 277 202 72 52 33 0 0 0 0 0 0 0 15 13 1
125 6 25 204 98 155 60 48 0 0 0 3 2 3 17 30 89 64 288 879 971 968 980 1049 1250 1108 731 801 722 639 381 295 296 256 245 215 112 64 37 9 0 0 0 0 0 0 0 17 20
108 30 0 98 138 54 48 1 2 9 34 2 8 14 13 1 59 70 66 293 839 955 1071 1130 910 741 615 745 884 533 315 254 253 282 319 330 201 98 102 50 41 43 39 11 10 4 25 39 35
81 5 0 18 66 65 11 0 71 9 1 0 0 8 15 16 7 57 99 80 448 860 1007 1011 983 778 726 567 554 520 462 422 356 370 385 366 326 193 193 219 183 154 175 153 132 116 129 129 124
1 0 7 37 90 51 22 0 39 19 18 0 0 3 0 6 0 6 62 78 80 796 957 1058 1061 841 764 780 760 873 710 607 503 471 449 396 314 264 264 276 276 278 299 342 585 410 316 279 294
0 0 0 0 43 13 0 28 12 12 20 1 0 0 1 0 0 0 26 52 37 187 877 1073 1095 989 887 934 990 993 1044 976 833 670 594 482 428 404 415 434 381 589 364 395 532 273 466 230 391
25 45 73 42 75 44 44 21 66 53 7 2 0 0 0 1 1 0 11 66 26 93 213 800 1028 1058 1003 1016 962 1075 1077 1103 1019 1091 789 629 547 486 447 444 390 564 537 523 549 644 266 249 310
21 43 75 27 12 94 74 46 17 18 17 0 0 0 0 0 1 4 3 48 29 65 74 106 620 788 1022 1056 1205 1116 902 851 877 876 806 747 641 597 610 531 1055 835 873 772 550 440 394 237 228
0 0 0 8 54 2 6 0 0 0 0 1 4 0 0 0 0 1 0 1 13 30 11 0 1 143 592 764 906 775 522 674 717 500 574 382 331 334 209 104 100 171 104 102 109 136 115 283 45
22 13 26 99 97 22 7 1 0 0 0 0 0 0 0 0 0 0 0 0 0 3 0 0 0 0 0 40 275 331 391 349 242 59 51 0 0 0 0 0 0 0 0 0 0 1 4 9 4
5 81 64 67 0 0 0 0 0 0 0 0 0 0 0 0 0 0 0 0 0 0 0 0 0 0 0 0 2 23 27 5 0 0 0 0 0 0 0 0 0 0 0 0 0 2 4 4 5
8 16 0 0 0 0 0 0 0 0 0 0 0 0 0 0 0 0 0 0 0 0 0 0 0 0 0 0 0 0 0 0 0 0 0 0 0 0 0 0 0 0 0 0 0 1 5 3 6
25 0 0 0 0 0 0 0 0 0 0 0 0 0 0 0 0 0 0 0 2 0 0 0 0 0 0 0 0 0 0 0 0 0 0 0 0 0 0 0 0 0 0 0 0 0 8 17 41
32 0 0 0 0 0 0 0 0 0 0 0 0 0 0 0 0 0 0 0 0 8 0 0 0 0 0 0 0 0 0 0 0 0 0 0 0 0 0 0 0 0 0 0 0 3 10 10 11
12 12 0 0 0 0 0 0 0 0 0 0 0 0 0 0 0 0 0 0 0 0 0 0 0 0 0 0 0 0 0 0 0 0 0 0 0 0 0 0 0 0 0 0 0 0 0 0 4
0 0 0 0 0 0 0 0 0 0 0 0 0 0 0 0 0 0 0 0 0 0 0 0 1 6 0 0 0 0 0 0 0 0 0 0 0 0 0 0 0 0 0 0 0 0 0 0 1
29 0 0 0 0 0 0 0 0 0 0 0 0 0 0 0 0 0 0 0 0 0 0 0 0 0 0 0 0 0 0 0 0 0 0 0 0 0 0 0 0 0 0 0 0 0 0 0 0

GFSSGP_con_mucape_066.txt.gz
CAPE
716 602 421 64 42 1 0 0 19 33 1 0 0 3 6 487 355 285 97 643 1356 945 1215 1732 2082 2079 1804 1620 1265 1329 825 547 181 481 129 51 7 0 1 17 17 7 221 97 30 14 7 2 0
530 506 0 68 0 0 0 0 24 33 1 0 0 0 30 597 375 194 366 733 1076 1153 1043 1371 2255 2059 1830 1713 1430 1212 525 179 12 409 170 203 7 0 3 6 13 7 30 39 8 12 6 3 0
773 839 2 0 0 0 0 0 13 7 0 2 0 46 560 810 357 396 440 640 936 1078 922 1648 2222 2091 1933 1708 1444 793 293 116 7 261 781 311 13 0 1 4 6 10 14 4 11 6 2 1 0
500 463 68 0 0 0 0 0 16 4 0 2 0 543 775 607 847 790 444 639 1133 897 1409 1947 2152 2096 1891 1687 1468 585 213 52 3 215 724 424 40 0 1 3 5 8 10 8 4 1 0 0 0
547 182 27 1 0 0 0 1 16 0 0 20 15 187 895 799 1081 648 396 463 769 1365 1424 1883 2230 2069 1785 1725 1281 801 125 0 0 177 570 574 83 0 0 3 2 2 2 2 1 0 0 0 0
245 244 4 0 0 0 1 11 0 0 0 45 13 32 1061 845 1015 821 469 461 669 1249 1056 1586 1969 1908 1745 1559 1119 718 221 42 273 747 726 724 144 30 0 1 2 0 0 0 0 0 0 0 4
163 63 9 0 0 0 68 2 0 0 0 92 235 262 741 714 861 1036 741 825 841 1063 974 1200 1294 1477 1446 1186 922 614 187 264 856 1068 1034 902 527 196 53 0 9 27 0 0 0 0 0 0 2
215 125 16 5 9 2 72 5 0 0 147 236 343 288 469 478 807 1015 1150 773 737 880 767 873 1049 1081 982 627 564 321 122 396 500 443 562 162 155 196 130 68 44 38 35 14 0 0 0 0 0
314 147 28 9 68 82 19 0 0 47 113 155 104 226 540 598 810 1170 1248 702 981 1051 745 1148 1026 862 824 459 294 140 47 32 112 57 54 30 35 26 10 39 43 58 42 13 4 0 0 0 0
193 112 19 3 52 79 1 0 0 102 78 36 125 572 688 785 960 1367 889 710 868 1018 859 955 872 759 791 511 213 59 13 0 0 28 2 8 20 28 37 30 37 62 62 28 8 0 0 0 0
157 89 0 29 97 66 3 4 1 90 96 48 5 153 771 827 1196 1420 986 636 662 1120 953 1299 733 649 909 601 338 247 106 112 27 16 0 0 0 0 1 0 1 13 32 7 4 1 0 0 0
133 105 98 61 117 134 10 23 3 142 70 17 0 9 495 698 838 1359 1191 859 703 1126 1126 987 756 733 972 951 486 355 235 166 222 112 24 1 0 0 0 0 0 0 0 0 4 0 0 0 0
60 105 117 126 70 64 47 50 52 48 40 1 3 13 11 483 814 769 823 911 823 860 1070 947 946 779 738 759 782 485 248 142 257 226 101 33 14 6 0 0 0 0 0 0 0 0 0 0 0
43 108 155 106 19 0 49 5 2 10 28 0 17 17 6 31 388 576 638 739 853 796 819 869 863 778 752 715 768 651 312 281 191 266 182 120 53 34 18 0 0 0 0 0 0 0 0 0 0
140 126 68 52 55 82 19 2 0 0 0 0 13 27 18 14 125 294 650 708 870 921 764 595 577 527 585 681 574 610 519 365 277 223 231 157 74 37 25 0 0 0 0 0 0 0 0 0 0
59 106 48 42 11 44 42 0 0 0 0 0 0 16 20 7 56 88 131 841 874 906 793 764 835 737 718 804 674 594 500 266 244 224 216 199 143 50 28 3 0 0 0 0 0 0 0 0 0
59 83 26 0 15 51 28 27 13 6 0 0 0 0 0 5 15 35 51 111 792 813 1015 994 915 739 732 656 717 628 454 255 159 181 239 295 249 146 79 143 70 68 88 71 42 30 49 32 5
0 0 7 0 0 5 11 43 20 4 4 0 0 7 0 0 6 8 17 61 247 760 1024 1044 1031 840 732 555 593 469 454 355 311 314 330 327 325 278 196 201 233 233 373 428 361 209 207 448 244
0 0 0 0 0 0 9 0 0 0 0 1 0 0 0 1 0 1 0 14 62 682 925 953 1027 865 728 725 683 649 591 580 448 452 461 442 387 290 263 305 303 490 732 486 476 398 289 151 115
3 0 0 6 53 46 0 1 1 0 0 0 0 0 0 0 2 2 0 0 17 168 781 995 1119 971 869 858 878 795 813 811 755 699 668 577 533 487 405 394 374 609 298 699 512 491 252 133 105
6 0 17 12 48 54 30 6 0 0 0 0 0 0 0 0 0 0 0 0 0 36 59 746 1111 1081 1014 1023 953 839 844 872 884 803 847 799 670 593 516 530 854 633 450 931 625 430 246 165 127
0 46 73 38 30 0 35 0 0 0 0 0 1 0 3 3 0 0 0 0 0 0 21 61 676 1024 1135 1072 1075 1101 991 964 899 742 801 682 560 589 473 388 281 220 95 72 53 23 15 20 18
16 30 10 1 25 0 0 0 0 0 0 0 5 0 0 0 0 0 0 0 0 0 0 32 40 523 714 986 1100 1119 1071 593 542 590 607 650 345 128 0 0 0 0 0 0 0 0 0 0 0
37 12 16 18 30 0 1 0 0 0 0 0 2 1 0 0 0 0 0 0 0 0 0 9 14 0 17 399 765 762 473 435 436 383 218 22 0 0 0 0 0 0 0 0 0 0 0 0 0
44 5 0 0 0 0 0 0 0 0 0 0 0 0 0 0 0 0 0 0 0 0 0 1 6 5 0 0 0 9 35 24 18 3 0 0 0 0 0 0 0 0 0 0 0 0 0 0 0
28 0 0 0 0 0 0 0 0 0 0 0 0 0 0 0 0 0 0 0 0 0 0 0 0 2 0 0 0 0 0 0 0 0 1 0 0 0 0 0 0 0 0 0 0 0 0 2 6
3 0 1 0 0 0 0 0 0 0 0 0 0 0 0 0 0 0 0 0 0 0 0 3 12 5 0 0 0 0 0 0 0 0 0 0 0 0 0 0 0 0 0 0 0 0 0 2 3
16 1 0 0 0 0 0 0 0 0 0 0 0 0 0 0 0 0 0 0 0 0 0 3 3 7 13 4 4 0 0 0 0 0 0 0 0 0 0 0 0 0 0 0 0 0 0 0 0
2 0 0 1 0 0 0 0 0 0 0 0 0 0 0 0 0 0 0 0 0 0 0 0 0 26 49 8 0 0 0 1 2 0 0 0 0 0 0 0 0 0 0 0 0 0 0 0 0
3 0 0 0 0 0 0 0 0 0 0 0 0 0 0 0 0 0 0 0 0 0 0 0 0 0 0 0 0 0 0 0 0 0 0 0 0 0 0 0 0 0 0 0 0 0 0 0 0

GFSSGP_con_mucape_069.txt.gz
CAPE
448 390 522 139 17 0 0 0 2 36 0 0 1 4 352 285 258 59 672 1142 923 1064 1358 1775 2075 1824 1540 1258 912 1133 623 483 791 277 35 0 2 17 16 7 165 163 24 13 10 6 2 0 0
833 798 415 7 0 0 0 0 0 2 22 1 0 6 87 297 214 301 1169 1155 921 1090 1201 1585 1985 1846 1665 1502 1083 895 230 249 725 553 64 1 3 9 14 8 7 24 17 8 12 7 0 0 0
531 651 22 29 0 0 0 0 4 7 28 4 0 0 175 442 588 448 1208 957 995 1016 1293 1798 1873 1814 1617 1468 991 377 141 74 876 846 433 0 1 5 8 12 10 28 12 7 7 1 0 0 0
340 404 191 11 0 0 0 0 0 72 66 12 16 36 451 527 657 833 1141 1183 868 1015 1428 1790 1789 1623 1691 1551 1039 253 97 15 687 924 445 1 0 2 4 5 10 19 16 8 3 0 0 0 0
238 154 63 4 0 0 0 0 1 32 3 0 56 243 94 664 769 628 1132 1084 870 1247 1476 1643 1818 1809 1738 1443 949 510 107 7 626 952 342 28 0 1 4 6 7 8 8 4 1 0 0 0 0
230 142 32 0 0 0 0 0 0 8 15 1 142 598 709 826 646 657 726 1137 1328 1417 1545 1631 1679 1693 1389 1252 856 499 163 170 577 1164 580 99 0 0 1 2 4 4 3 1 0 0 0 24 36
173 86 3 0 0 0 8 10 0 0 1 78 47 583 705 757 710 734 766 1210 1395 1387 1497 1479 1367 1264 1156 923 699 279 428 764 886 1032 784 355 162 21 0 7 0 0 0 0 0 0 0 1 30
185 94 25 0 0 0 42 7 1 17 182 235 215 562 392 569 422 826 857 928 1126 1125 1263 1266 1249 1087 645 372 269 99 491 526 918 835 509 203 102 105 56 32 59 26 11 9 7 7 0 0 0
271 90 37 3 14 11 60 0 0 96 236 81 228 463 483 786 720 728 756 756 894 955 1017 1036 1034 841 405 203 33 12 153 159 240 483 91 50 27 12 0 0 26 50 29 14 5 0 0 0 0
256 95 13 2 52 73 38 0 3 208 166 451 655 894 924 889 717 804 545 653 870 831 1011 951 871 773 374 226 32 0 0 73 61 75 57 21 13 3 0 13 11 40 33 16 9 0 0 0 0
268 54 7 27 61 131 0 4 68 216 118 26 651 759 936 938 928 803 542 711 788 833 1049 1093 877 831 499 186 70 18 2 0 2 14 0 1 6 25 21 0 1 0 0 0 0 0 0 0 0
184 16 7 75 73 125 23 29 128 144 26 11 487 830 946 1068 1082 1023 752 660 835 799 1058 1098 739 863 714 336 204 213 75 87 33 24 0 0 0 9 0 0 0 0 0 0 0 0 0 0 0
58 63 57 66 195 96 51 28 86 96 15 15 111 784 699 1062 1106 1086 930 538 753 981 1118 1233 728 921 1002 705 459 275 199 146 143 114 43 3 1 0 0 0 0 0 0 0 0 0 0 0 0
5 35 93 114 114 61 82 57 129 117 96 64 6 230 643 674 912 1102 992 701 686 872 904 1063 834 872 1068 961 623 427 203 108 215 242 150 108 53 20 0 0 0 0 0 0 0 0 0 0 0
31 49 76 134 58 40 66 28 35 113 136 100 3 23 14 236 661 731 821 711 880 766 886 977 935 900 883 828 846 678 333 211 254 271 210 193 131 65 17 0 0 0 0 0 0 0 0 0 0
12 56 119 54 117 9 60 0 41 82 100 48 5 8 27 12 65 637 674 776 826 819 930 1092 957 894 762 772 694 738 649 469 429 255 281 234 165 88 26 1 0 0 0 0 0 0 0 0 0
41 0 25 16 31 13 21 0 28 35 7 0 4 1 9 25 0 39 612 753 815 811 894 804 819 603 679 911 656 616 578 577 388 332 263 233 230 164 44 43 6 0 16 24 14 15 5 7 4
0 0 0 0 2 9 0 4 5 2 0 0 0 0 0 0 9 3 12 601 955 927 900 748 864 819 638 646 746 693 648 420 292 248 255 308 321 286 189 127 185 173 130 75 329 278 66 109 143
0 0 12 0 0 0 0 0 0 10 7 0 0 0 0 0 0 3 10 16 618 861 889 1001 994 876 778 699 702 638 550 477 296 314 306 357 379 354 339 259 233 223 394 268 314 139 476 62 23
1 35 6 0 0 0 0 0 0 2 24 18 4 0 0 0 0 0 0 4 27 630 813 896 981 936 888 800 691 642 523 557 505 433 468 625 555 492 352 349 327 320 387 726 330 236 162 123 53
18 0 0 0 0 0 0 0 0 0 31 27 2 0 0 0 0 0 0 0 1 562 900 1012 1056 945 968 863 757 797 735 772 771 706 668 655 660 567 515 487 537 838 537 524 337 389 354 169 67
0 23 50 24 0 2 0 0 0 0 5 5 3 1 0 0 0 0 0 0 0 9 693 960 1181 1007 1066 968 863 863 850 788 812 841 901 920 876 631 592 492 418 432 342 197 117 56 27 26 1
6 1 35 45 0 0 0 0 0 12 0 0 0 0 0 0 0 0 0 0 0 0 0 20 907 1132 1111 1035 1004 880 752 827 766 859 868 875 748 630 690 615 571 336 9 0 0 0 0 0 0
35 47 78 63 0 0 0 0 0 0 0 0 0 0 0 0 0 0 0 0 0 0 0 0 10 737 940 879 1060 920 803 777 773 691 710 739 687 603 239 0 0 0 0 0 0 0 0 0 0
11 25 0 0 0 0 0 0 0 0 0 0 0 0 2 0 0 0 0 0 0 0 0 0 0 0 291 606 778 830 669 627 532 438 484 519 363 67 0 0 0 0 0 0 0 0 0 0 0
5 8 5 0 0 0 0 0 0 0 0 0 0 0 0 0 0 0 0 0 0 0 0 0 0 0 0 7 45 345 512 405 379 293 137 12 0 0 0 0 0 0 0 0 0 0 0 0 0
17 0 0 0 0 0 0 0 0 0 0 0 0 0 0 0 0 0 0 0 0 0 0 0 0 0 0 30 12 0 0 8 14 0 0 0 0 0 0 0 0 0 0 0 0 0 0 0 2
1 0 0 0 0 0 0 0 0 0 0 0 0 0 0 0 0 0 0 0 0 0 0 0 0 0 0 0 0 1 0 0 0 0 0 0 0 0 0 0 0 0 0 0 0 0 0 0 0
1 0 0 0 0 0 0 0 0 0 0 0 0 0 0 0 0 0 0 0 0 0 0 0 0 0 0 11 9 0 22 37 13 0 0 0 7 0 0 0 0 0 0 0 0 0 0 0 0
0 2 0 0 0 0 0 0 0 0 0 0 0 0 0 0 0 0 0 0 0 0 0 0 0 0 0 0 1 2 0 0 0 0 0 3 6 3 0 0 0 0 0 0 0 0 0 0 0

GFSSGP_con_mucape_072.txt.gz
CAPE
486 411 429 419 1 0 0 0 0 0 0 2 0 49 170 224 119 3 432 777 711 1337 1449 1488 1740 1635 1367 1070 647 340 494 528 346 4 0 5 10 23 372 432 247 25 13 8 2 0 0 0 1
771 836 702 42 3 0 0 0 0 0 0 2 5 176 207 273 209 916 1118 860 901 1306 1377 1409 1638 1597 1240 1022 741 307 601 724 442 3 1 8 9 7 16 255 85 16 8 4 1 0 0 0 0
473 657 196 63 0 0 0 0 0 0 58 21 2 27 249 364 526 679 932 835 852 1262 1412 1530 1686 1572 1404 1131 739 283 611 801 518 11 4 4 13 13 12 5 11 6 3 3 1 0 0 0 0
322 340 191 32 0 0 0 0 0 13 0 0 1 43 156 337 508 834 1153 832 868 1181 1449 1494 1553 1548 1406 1366 720 167 797 555 435 12 1 3 5 10 12 11 14 12 6 2 1 0 0 0 0
313 209 82 43 0 0 0 0 0 0 0 0 3 91 25 159 525 932 931 697 993 1317 1509 1419 1531 1495 1359 1052 730 476 495 927 592 85 2 4 6 6 11 10 7 6 7 3 0 0 0 0 0
236 183 130 14 0 0 0 0 0 0 20 38 0 115 133 23 317 652 849 693 1236 1369 1424 1225 1280 1408 1309 1045 712 499 412 1113 950 409 2 1 5 6 8 8 9 9 7 6 0 0 40 42 16
290 120 48 6 0 0 0 0 0 0 24 86 140 282 325 193 209 470 763 930 1296 1441 1367 1264 1167 1109 1044 794 587 328 342 940 1229 800 364 61 30 9 4 7 7 6 2 18 18 1 15 45 23
334 100 12 15 2 0 0 0 0 1 241 269 342 418 136 93 341 789 945 1099 1218 1335 1335 1238 1074 901 488 288 221 480 757 828 970 688 315 70 24 37 59 78 53 17 7 8 10 7 0 0 0
298 165 12 23 12 0 7 0 11 127 332 462 415 491 297 248 430 512 855 941 963 1293 1182 1075 971 680 248 55 35 365 401 608 638 484 103 41 4 0 0 0 30 42 19 8 7 6 0 0 0
297 177 8 0 27 23 53 5 123 249 392 566 756 826 389 274 553 608 640 586 673 899 1064 1004 898 545 196 44 2 241 257 364 549 444 73 18 4 0 0 0 2 40 34 20 3 0 0 0 0
274 179 29 31 56 88 131 39 124 252 250 493 622 880 712 626 698 743 654 590 606 529 890 909 829 514 299 88 6 13 188 213 403 328 77 18 7 9 9 5 0 0 0 0 0 0 0 0 0
103 65 52 142 124 222 123 37 251 230 112 190 690 978 909 770 766 742 564 213 84 443 710 764 835 607 412 287 80 27 0 77 92 117 41 17 2 18 17 3 0 0 0 0 0 0 0 0 0
18 20 89 118 244 213 201 67 117 150 170 603 847 940 811 975 975 707 447 427 576 568 691 776 783 692 511 332 177 178 121 13 29 2 0 0 5 25 7 0 0 0 0 0 0 0 0 0 0
1 1 66 134 152 156 115 62 120 55 76 534 844 772 904 947 993 965 663 668 745 712 929 801 675 792 691 605 396 397 219 162 159 139 99 29 23 3 0 0 0 0 0 0 0 0 0 0 0
35 79 100 66 120 124 84 46 49 69 70 69 353 543 692 882 1064 1032 907 661 807 843 953 915 753 679 830 905 614 436 224 158 179 239 178 145 146 60 40 0 0 0 0 0 0 0 0 0 0
41 49 89 44 113 61 52 1 39 49 114 111 81 117 390 651 830 950 865 798 790 772 767 926 866 755 928 1012 868 599 397 209 268 290 288 195 227 118 80 16 0 0 0 0 0 0 0 0 0
47 33 7 44 157 83 2 2 85 83 101 101 75 7 4 101 569 673 703 814 889 860 801 875 899 789 894 1054 862 774 650 404 333 357 365 274 248 198 134 60 27 15 3 5 0 6 0 2 2
28 10 0 19 12 2 0 0 22 34 28 62 60 9 2 26 42 377 689 730 844 949 1018 1035 812 823 911 831 788 602 548 654 528 493 353 327 290 276 268 138 74 48 33 76 65 17 139 56 50
8 3 0 6 9 0 0 0 0 32 44 29 11 0 0 0 19 39 95 681 865 857 938 844 811 875 715 704 683 636 612 623 412 487 380 333 312 348 355 246 166 237 215 123 182 236 139 92 54
21 0 14 0 0 7 0 0 0 0 12 6 1 0 0 0 0 0 9 19 690 873 909 911 789 851 876 801 593 625 668 614 596 304 294 303 394 403 385 387 307 281 284 240 524 307 241 136 54
22 9 11 0 0 22 0 0 0 0 0 1 0 0 0 0 0 0 0 0 14 642 840 857 902 936 907 816 662 746 719 560 453 365 355 483 469 561 629 570 402 464 682 516 441 331 214 149 56
9 10 0 0 0 0 0 0 0 0 0 0 0 0 0 0 0 0 0 0 0 69 700 828 888 914 910 881 843 749 667 577 644 589 500 703 588 523 566 560 504 743 421 390 287 220 113 42 35
0 19 0 0 0 0 0 0 0 0 0 0 0 0 0 0 0 0 0 0 0 0 366 773 844 767 853 1021 813 695 665 541 481 503 455 677 657 554 607 598 596 543 435 411 455 339 30 0 0
2 26 32 0 0 0 0 0 0 0 0 0 0 0 0 0 0 0 0 0 0 0 0 153 555 698 965 1002 757 622 499 504 422 462 595 523 413 368 472 478 606 621 453 64 0 0 0 0 0
21 15 0 0 0 0 0 0 0 0 0 0 0 0 0 0 0 0 0 0 0 0 0 0 0 196 697 826 806 803 551 450 345 292 401 338 292 340 433 274 149 1 0 0 0 0 0 0 0
25 0 4 0 0 0 0 0 0 0 0 0 0 0 0 0 0 0 0 0 0 0 0 0 0 0 2 319 487 534 503 455 331 288 312 296 284 262 199 95 2 0 0 0 0 0 0 0 0
3 0 0 0 0 0 0 0 0 0 0 0 0 0 0 0 0 0 0 0 0 0 0 0 0 0 0 0 0 23 345 515 473 295 249 252 174 56 12 0 2 0 0 0 0 0 0 0 0
0 0 0 0 0 0 0 0 0 0 0 0 0 0 0 0 0 0 0 0 0 0 0 0 0 0 0 0 0 0 1 4 59 54 3 0 0 0 0 0 3 2 0 0 0 0 0 0 0
0 0 0 0 0 0 0 0 0 0 0 0 0 0 0 0 0 0 0 0 0 0 0 0 0 0 0 0 0 0 0 1 0 0 0 5 22 25 0 0 0 3 0 0 0 0 0 0 0
0 0 0 0 0 0 0 0 0 0 0 0 0 0 0 0 0 0 0 0 0 0 0 0 0 0 0 0 0 0 0 0 4 5 4 13 8 1 0 0 0 6 2 0 0 0 0 0 0

GFSSGP_con_mucape_075.txt.gz
CAPE
432 593 533 521 6 0 0 0 0 0 0 0 4 40 83 147 15 7 287 450 864 1064 1161 1141 1574 1456 1275 762 459 126 335 455 10 0 0 135 452 479 466 328 49 12 4 3 9 14 52 52 22
579 699 623 200 48 0 0 0 0 0 0 0 178 238 153 198 420 1003 761 700 963 1179 1176 1004 1426 1314 956 678 365 605 366 12 0 0 2 10 283 480 428 240 19 6 4 2 1 0 1 2 0
391 710 294 131 28 0 0 0 0 1 13 3 0 61 186 485 557 781 850 838 1121 1184 1183 1068 1386 1228 1030 724 376 673 437 29 1 5 40 18 9 361 287 92 3 5 4 1 0 0 0 0 17
283 396 241 92 23 0 0 0 0 18 73 0 0 3 209 281 469 663 936 958 1052 1143 1258 1234 1384 1196 1198 1059 672 629 391 73 1 5 13 24 6 9 8 10 2 5 3 1 0 0 0 0 43
397 246 218 96 33 0 0 0 0 0 5 30 28 0 73 305 747 1103 1137 919 924 1085 1164 1050 1338 1204 913 856 740 824 982 175 3 4 6 13 14 11 10 3 1 4 1 0 0 0 0 0 0
194 258 136 54 12 0 0 0 0 0 2 5 8 0 19 208 336 872 856 856 1071 1175 1165 1056 1159 1256 980 758 677 688 1078 685 29 5 8 9 12 14 6 8 5 5 1 0 0 0 0 0 0
186 159 148 27 0 1 0 0 0 0 0 1 0 60 227 5 78 306 571 767 1019 1225 1154 1041 926 967 958 795 612 507 920 1071 542 99 33 10 13 12 11 4 10 22 24 5 0 8 25 19 0
201 293 167 59 1 0 0 0 0 0 37 300 338 230 73 9 10 496 433 581 950 964 1000 1019 912 820 546 345 343 283 532 928 643 285 55 29 2 28 53 77 86 38 29 27 16 7 0 0 0
271 283 147 61 21 0 0 2 0 29 297 525 328 444 198 104 163 58 136 296 377 527 704 949 869 588 223 84 110 412 482 731 535 199 14 0 0 4 21 0 14 34 20 14 15 9 0 0 0
52 130 17 1 0 7 42 27 32 300 577 687 733 784 389 167 118 42 0 15 302 877 1153 1063 797 462 179 37 169 340 372 457 569 108 19 0 0 0 0 0 0 39 26 11 0 0 0 0 0
34 25 5 44 26 74 195 126 117 243 384 539 586 470 435 430 200 149 30 133 284 388 905 1104 794 460 241 49 149 319 380 379 537 327 29 10 0 0 0 0 0 0 0 0 0 0 0 0 0
49 0 74 81 62 300 152 156 155 221 164 390 849 565 386 579 524 385 378 278 99 436 248 474 696 498 320 141 30 293 283 383 567 437 103 16 9 4 6 1 0 0 0 0 0 0 0 0 0
53 1 49 153 312 425 351 172 148 227 282 763 1138 654 439 689 707 616 492 310 257 131 115 266 407 424 372 287 179 25 222 243 382 333 160 53 45 24 25 19 0 0 0 0 0 0 0 0 0
25 1 18 173 136 297 179 107 75 211 528 937 1108 785 647 695 769 514 354 266 220 133 114 363 524 556 363 253 292 167 174 74 83 119 104 73 4 17 33 15 0 0 0 0 0 0 0 0 0
1 32 26 64 87 129 139 94 62 58 272 568 775 786 658 867 819 512 446 367 307 347 383 524 560 654 483 253 240 312 331 260 179 131 89 65 67 71 20 0 0 0 0 0 0 0 0 0 0
40 48 14 18 77 92 99 17 37 47 47 179 436 573 628 732 886 743 664 575 631 655 833 712 706 643 573 471 217 290 438 263 243 239 234 204 163 202 99 66 1 0 0 0 0 0 0 0 0
30 58 0 122 125 137 72 0 52 69 47 57 132 136 240 496 770 690 579 602 752 695 748 799 763 616 609 510 526 679 437 339 244 252 302 302 199 243 191 121 45 23 17 11 11 8 7 6 0
10 17 11 54 54 56 46 14 0 3 46 24 42 40 46 86 398 444 571 703 873 835 758 748 738 696 593 617 816 677 589 564 373 343 371 356 304 242 252 205 130 70 43 36 42 64 23 17 10
0 15 0 5 56 32 33 1 0 1 5 18 37 42 29 30 43 120 443 564 699 809 631 696 587 672 410 485 713 581 568 638 572 590 521 339 434 276 312 313 245 122 122 96 146 133 204 144 87
8 52 39 18 36 0 5 0 0 0 12 17 52 60 39 32 35 33 109 134 471 577 681 791 685 677 644 661 588 587 621 359 517 592 364 376 343 380 347 368 349 223 262 304 398 312 214 275 182
36 9 33 3 13 0 0 0 0 0 2 10 16 35 11 1 0 0 9 24 44 337 594 628 650 771 777 585 635 621 434 476 585 658 536 284 331 399 389 366 414 393 425 395 426 417 404 194 110
16 23 50 41 0 0 0 0 0 0 0 0 0 3 0 0 0 0 0 0 0 14 333 627 681 716 690 682 693 638 415 389 380 547 561 279 366 372 467 578 464 489 560 504 530 609 434 258 101
1 20 30 1 0 0 0 0 0 0 0 0 0 0 0 0 0 0 0 0 0 0 0 419 588 677 757 728 729 601 551 541 349 198 217 202 309 436 436 376 313 297 266 274 240 275 194 244 317
29 27 14 0 0 0 0 0 0 0 0 0 0 0 0 0 0 0 0 0 0 0 0 0 432 625 743 777 661 628 412 336 277 183 140 143 192 212 207 166 142 112 121 167 177 263 162 0 0
36 5 0 0 0 0 0 0 0 0 0 0 0 0 0 0 0 0 0 0 0 0 0 0 107 362 505 550 666 567 443 372 402 287 210 193 215 144 122 119 147 130 68 45 0 0 0 0 0
4 0 0 0 0 0 0 0 0 0 0 0 0 0 0 0 0 0 0 0 0 0 0 0 0 0 4 115 405 456 435 420 399 365 233 222 136 71 41 76 73 41 37 0 1 0 0 0 0
7 3 0 1 0 0 0 0 0 0 0 0 0 0 0 0 0 0 0 0 0 0 0 0 0 0 0 0 0 49 298 334 368 306 187 100 37 85 120 38 29 49 0 0 0 0 0 0 0
1 0 0 0 0 0 0 0 0 0 0 0 0 0 0 0 0 0 0 0 0 0 0 0 0 0 0 0 0 0 0 0 177 299 249 205 130 85 40 13 2 0 0 0 0 0 0 0 0
0 0 0 0 0 0 0 0 0 0 0 0 0 0 0 0 0 0 0 0 0 0 0 0 0 0 0 0 0 0 0 0 0 7 114 124 76 1 6 1 16 17 22 0 0 0 1 0 0
0 0 0 0 0 0 0 0 0 0 0 0 0 0 0 0 0 0 0 0 0 0 0 0 0 0 0 0 0 0 0 0 0 0 4 3 0 2 4 3 1 2 0 0 0 0 0 0 0

GFSSGP_con_mucape_078.txt.gz
CAPE
111 308 330 355 66 20 0 0 0 0 0 7 0 41 97 130 19 0 141 419 589 876 918 963 1494 1254 1150 627 224 143 369 117 23 201 565 634 637 615 405 130 11 7 6 9 66 91 14 71 67
237 364 319 99 49 4 0 0 0 0 1 10 9 2 124 178 393 696 730 799 849 942 932 896 1132 1272 963 550 84 480 130 0 0 11 406 587 625 621 200 42 7 5 7 14 8 41 3 0 8
243 396 121 115 64 5 0 0 0 0 0 9 0 0 95 217 751 667 777 795 1047 999 970 849 1141 1185 826 328 430 470 38 0 1 29 371 455 589 531 252 8 7 5 5 8 49 0 0 99 377
130 188 127 99 47 25 0 0 0 21 7 0 5 0 191 159 516 639 1038 1000 983 1016 989 945 1176 1070 1129 691 748 417 31 2 3 47 56 321 562 526 97 7 7 7 4 31 48 0 0 57 497
235 86 74 116 65 21 20 4 0 0 28 1 4 0 89 740 1044 965 1289 1022 872 997 925 813 1128 1067 883 836 735 723 110 2 5 15 11 3 10 10 5 6 7 7 4 9 10 0 0 0 51
162 117 103 87 30 28 38 11 0 0 0 22 12 0 85 190 875 1075 1016 908 891 901 834 672 778 1124 1111 778 772 731 413 4 6 12 20 14 15 9 9 4 6 5 2 0 0 0 0 13 0
97 155 60 46 13 38 8 10 4 0 0 3 0 0 128 37 372 617 675 634 680 789 768 646 695 817 744 667 695 783 797 273 7 18 22 26 24 11 7 5 5 32 15 19 23 25 22 8 0
103 262 82 113 62 13 16 25 1 0 0 129 68 160 96 0 399 430 447 210 450 505 679 711 649 606 374 277 344 385 550 437 129 54 13 12 10 13 11 39 65 52 44 18 7 7 13 0 0
116 130 5 27 62 11 24 18 26 92 228 457 460 312 115 93 280 146 224 76 53 311 498 652 635 469 206 82 88 148 539 412 157 43 0 3 1 3 5 0 40 52 27 17 12 1 0 0 0
39 19 0 0 8 43 61 28 31 374 689 690 742 684 231 213 70 28 41 36 98 94 370 635 553 366 122 53 54 71 381 468 176 33 0 0 0 0 0 0 0 14 12 5 0 0 0 0 0
28 1 0 0 4 115 157 194 127 269 350 564 530 579 236 174 28 4 1 0 4 94 544 794 650 392 159 39 112 121 155 520 568 43 13 0 2 4 0 0 0 0 0 0 0 0 0 0 0
25 0 0 0 18 95 63 186 252 200 148 393 605 706 320 360 31 3 2 0 7 114 161 324 561 440 272 108 160 218 214 202 555 190 36 8 0 0 0 0 0 0 0 0 0 0 0 0 0
16 0 2 0 0 151 68 184 305 103 108 391 874 812 410 421 109 34 2 0 127 53 21 26 136 313 345 216 112 260 303 260 279 403 218 48 16 7 0 12 0 0 0 0 0 0 0 0 0
17 0 0 6 13 65 237 162 172 40 224 501 945 877 440 751 236 290 77 155 41 73 28 11 5 254 298 308 159 244 282 277 320 557 369 162 57 46 34 27 16 0 0 0 0 0 0 0 0
0 7 51 11 8 106 169 191 182 37 173 420 749 574 711 773 788 585 322 143 11 5 25 6 25 226 278 214 144 160 96 237 269 366 319 206 81 27 6 26 10 0 0 0 0 0 0 0 0
45 10 36 10 1 133 135 0 70 29 96 233 152 289 476 713 870 452 330 203 100 12 82 120 73 353 410 255 164 146 139 212 190 160 136 107 67 96 115 65 33 0 0 0 0 0 0 0 0
2 15 0 39 2 99 61 13 127 28 36 67 77 82 126 171 296 412 386 276 227 199 231 433 418 456 464 333 177 178 196 173 182 206 153 165 185 160 194 166 99 30 9 5 1 1 2 9 14
0 13 107 2 49 86 135 4 169 16 37 68 65 66 41 101 81 319 404 290 393 513 443 348 449 545 471 405 245 296 276 225 219 202 209 209 252 216 183 220 185 110 41 39 28 35 57 44 42
12 0 0 69 135 103 76 19 0 44 50 76 58 27 33 29 41 221 409 502 419 426 387 471 419 354 320 318 260 425 385 299 300 334 200 284 297 321 277 198 250 188 101 53 43 82 125 89 108
4 16 57 42 92 88 6 0 13 22 9 0 46 16 2 21 31 58 122 304 426 558 468 471 414 331 271 227 60 133 179 270 310 383 400 314 344 345 340 255 291 290 200 132 148 190 165 249 124
12 6 39 9 24 43 0 2 0 0 0 0 49 11 9 16 27 51 49 40 92 328 537 675 511 398 369 338 225 157 248 322 242 326 304 250 282 276 243 270 205 217 236 248 270 281 257 235 110
52 67 69 30 2 0 0 2 0 0 0 0 0 18 25 24 26 39 45 59 83 65 99 538 567 571 454 409 331 134 176 135 164 193 284 164 123 178 173 158 178 181 243 289 270 267 254 224 165
48 76 18 14 13 0 0 0 0 0 0 0 0 5 42 26 17 18 24 31 33 28 33 224 548 557 482 430 379 242 225 250 196 179 210 192 187 112 96 80 135 145 121 83 178 139 141 95 95
22 26 26 2 0 0 0 0 0 0 0 0 0 5 29 36 17 15 0 1 3 6 11 1 289 498 528 492 466 467 358 279 222 192 147 165 146 84 63 112 92 47 7 6 7 18 13 43 70
59 10 0 1 5 0 0 0 0 0 0 0 0 0 3 18 5 0 0 0 0 0 0 0 0 10 270 388 464 459 432 391 335 261 182 164 127 110 85 64 70 33 27 7 43 37 21 8 0
12 3 1 0 0 0 0 0 0 0 0 0 0 0 0 22 1 0 0 0 0 0 0 0 0 0 1 19 7 186 318 369 378 293 258 151 137 93 101 62 19 2 1 9 24 7 0 0 0
3 8 0 0 0 0 0 0 0 0 0 0 0 0 0 0 0 0 0 0 0 0 0 0 0 0 0 0 2 0 0 72 237 261 179 162 115 144 79 25 24 27 0 2 1 11 0 0 0
0 0 0 0 0 0 0 0 0 0 0 0 0 0 0 3 0 1 11 6 0 0 0 0 0 0 0 0 0 0 0 0 0 38 144 128 98 85 37 31 34 31 3 13 8 3 6 0 0
0 0 0 0 0 0 0 0 0 0 0 0 0 0 0 0 0 0 1 0 0 0 0 0 0 0 0 0 0 0 0 0 0 0 0 82 142 154 116 85 45 32 18 13 16 6 0 0 0
0 0 0 0 0 0 0 0 0 0 0 0 0 0 0 0 0 0 0 0 0 0 0 0 0 0 0 0 0 0 0 0 0 0 0 0 13 72 80 32 0 0 3 10 6 0 0 0 0

GFSSGP_con_mucape_081.txt.gz
CAPE
31 89 93 119 30 0 0 0 0 0 0 82 43 162 134 137 10 6 271 268 523 819 831 950 1371 1175 661 404 229 672 33 277 592 1062 1195 1046 1004 735 397 64 18 5 12 19 17 8 15 27 50
70 144 90 19 17 0 0 0 0 0 23 55 86 31 6 112 363 615 534 631 707 875 967 870 1223 1191 1049 414 238 519 29 0 425 708 904 954 791 747 98 18 7 10 77 14 5 12 5 29 86
68 113 75 77 2 0 0 0 0 0 47 155 146 58 14 220 561 515 780 950 870 1007 1006 915 1096 1206 982 156 526 314 6 0 158 565 676 922 1000 359 63 9 10 153 79 23 9 3 106 264 339
36 64 39 38 0 1 0 0 0 0 27 208 202 82 208 213 313 559 917 887 988 1068 1092 972 1032 1147 898 693 695 149 0 0 0 402 507 811 849 294 10 9 32 93 94 26 2 38 275 442 295
83 8 31 0 0 0 2 12 32 12 3 165 197 91 103 415 637 464 984 1060 1034 1123 1090 864 1083 1161 1015 1141 758 326 0 1 2 7 371 538 662 224 11 9 7 6 72 49 0 37 53 155 185
98 17 10 0 0 0 0 26 46 42 12 141 149 79 89 722 562 470 762 1209 1114 994 1020 788 796 1135 1092 1182 734 528 18 2 13 32 123 462 187 15 9 9 6 7 75 50 17 30 23 22 64
13 11 0 0 0 0 0 61 60 49 23 102 138 67 189 294 516 129 96 653 908 907 905 742 579 734 918 862 644 580 133 5 14 18 17 126 119 45 13 13 8 33 52 45 34 27 15 10 0
52 63 6 1 8 0 0 39 35 17 23 0 55 259 161 98 805 361 188 33 439 459 747 691 570 782 466 587 552 547 309 33 13 20 20 9 7 20 63 69 91 52 36 36 42 35 16 0 0
81 54 0 0 0 0 0 28 13 23 14 466 533 171 196 422 471 301 78 93 149 149 329 341 623 589 272 197 454 457 333 81 11 6 8 9 3 12 7 2 49 92 53 20 14 0 0 0 0
57 15 0 0 0 7 22 60 54 42 25 212 790 535 415 661 234 108 46 74 61 57 48 226 323 379 201 87 171 447 464 146 0 0 0 1 5 7 1 0 5 58 34 20 6 0 0 0 0
19 6 0 0 0 4 138 223 120 233 36 4 346 565 600 550 248 110 39 21 99 25 15 179 262 239 161 65 93 130 573 423 69 5 0 0 5 33 22 36 25 27 0 0 0 0 0 0 0
24 0 0 0 0 0 27 100 213 273 137 1 14 545 527 387 293 208 105 37 33 10 86 110 176 169 167 49 75 87 348 393 135 33 8 7 7 9 0 0 2 0 0 0 0 0 0 0 0
13 0 0 0 2 0 0 59 46 175 178 144 21 723 570 288 256 235 111 45 13 3 32 77 160 203 181 150 81 94 121 410 316 135 33 10 1 0 0 0 0 0 0 0 0 0 0 0 0
0 0 0 0 0 1 6 2 170 84 103 88 68 228 595 239 186 108 21 0 8 21 29 67 67 145 171 201 100 162 153 171 307 250 196 56 28 12 4 7 0 0 0 0 0 0 0 0 0
2 6 0 2 0 2 18 83 33 121 67 100 91 87 475 352 99 42 0 100 96 66 41 1 39 66 274 237 139 186 262 246 167 284 304 280 139 40 34 24 21 3 0 0 0 0 0 0 0
20 8 0 0 1 0 45 2 23 113 61 84 32 63 324 515 312 334 273 243 34 6 0 0 7 4 132 221 165 148 211 268 245 231 317 394 215 75 47 27 33 3 0 0 0 0 0 0 0
21 9 4 0 111 4 74 21 53 201 75 33 1 49 132 285 656 556 324 168 29 20 21 5 2 14 342 237 157 142 135 147 131 172 250 279 223 129 43 96 68 41 0 0 0 0 0 0 0
0 0 1 0 117 88 93 136 352 148 27 2 28 59 89 96 344 378 223 167 76 117 41 19 16 45 393 309 253 280 264 210 166 128 91 112 74 51 93 140 158 101 43 5 0 0 7 24 24
0 12 10 31 0 57 13 85 28 40 43 0 18 52 72 61 59 0 128 125 219 213 217 152 258 219 202 205 181 304 296 358 239 201 164 127 104 130 174 176 182 182 122 61 32 29 49 70 37
0 0 14 58 17 75 95 52 29 0 11 30 1 70 57 51 0 0 0 3 105 165 165 190 238 136 238 128 114 60 105 228 327 284 201 189 139 169 236 243 168 198 240 168 91 67 108 100 85
7 0 23 41 46 41 60 0 0 0 0 0 10 33 48 33 3 22 49 47 90 197 150 163 269 253 187 164 170 96 52 75 89 165 156 147 179 188 128 152 150 146 191 174 147 164 193 198 152
6 0 0 64 21 136 15 0 0 0 0 0 0 24 21 2 15 28 31 23 69 100 210 220 231 299 305 166 262 145 82 67 106 138 92 117 73 118 109 127 137 131 118 87 111 149 142 170 267
32 36 39 8 29 0 0 0 0 0 0 0 0 4 23 2 12 20 27 23 37 28 13 14 294 373 313 292 272 137 98 22 113 109 84 141 95 102 118 108 74 45 79 100 67 52 49 68 113
21 17 12 11 5 0 0 0 0 0 0 0 0 0 0 1 10 10 19 20 18 17 18 5 69 332 399 344 289 254 169 66 73 91 107 99 83 73 79 92 66 44 58 60 7 23 7 1 7
29 1 0 0 0 0 0 0 0 0 0 0 0 0 3 7 0 7 5 7 12 1 2 1 0 0 133 339 343 389 332 235 137 122 138 100 90 100 87 110 106 45 5 7 3 5 0 1 1
9 0 0 0 0 0 0 0 0 0 0 0 0 0 4 9 14 0 0 0 0 0 0 0 0 0 0 1 73 76 170 288 313 291 224 132 142 129 113 97 76 53 56 48 43 25 4 9 1
0 0 0 0 0 0 0 0 0 0 0 0 0 0 0 5 0 0 0 0 0 0 0 0 0 0 0 0 0 0 0 0 26 137 234 240 169 138 135 98 77 63 13 3 22 45 19 0 0
0 0 0 0 0 0 0 0 1 0 0 0 0 0 0 4 0 0 0 0 0 0 0 0 0 0 0 0 0 0 0 0 0 0 10 85 153 147 74 72 35 27 15 25 13 1 4 11 9
0 0 0 0 0 0 0 0 0 0 0 0 0 0 0 0 19 5 0 0 0 0 0 0 0 0 0 0 0 0 0 0 0 0 0 0 31 92 111 67 50 37 47 15 0 5 10 15 3
0 0 0 0 0 0 0 0 0 0 0 0 0 0 0 0 0 0 3 0 0 0 0 0 0 0 0 0 0 0 0 0 0 0 0 0 0 1 51 60 68 62 61 52 31 13 0 5 0

GFSSGP_con_mucape_084.txt.gz
CAPE
45 46 80 55 0 0 0 0 6 1 0 69 31 72 111 224 33 142 607 431 500 639 782 1112 1240 1246 1017 675 329 516 526 753 1104 1160 1160 1180 1209 747 260 114 90 111 22 52 166 372 237 8 11
79 86 102 94 3 0 0 2 0 0 0 77 216 251 222 217 458 733 850 463 628 716 768 854 1188 1181 1063 607 404 207 204 586 1182 1030 1288 1147 1040 888 156 62 54 382 227 48 18 16 16 10 20
66 110 88 69 0 0 0 19 23 1 2 161 241 284 225 287 636 735 911 788 692 716 691 771 1123 1248 1108 525 741 76 30 380 828 1043 1024 1073 1064 226 95 42 269 313 315 87 14 4 38 78 71
35 128 94 28 0 0 0 28 47 0 0 1 295 313 327 470 700 922 862 914 848 805 806 920 1119 1184 1142 765 713 155 0 62 485 678 784 841 1083 175 30 205 277 299 225 15 77 209 335 519 69
88 78 0 0 0 1 33 50 50 0 0 0 188 377 363 562 862 1032 903 965 873 758 803 927 1039 1118 895 1221 761 305 1 0 165 410 712 648 597 53 25 14 109 146 109 51 91 299 157 103 58
38 35 0 0 0 2 39 60 35 0 8 9 27 180 355 641 919 1299 1318 1082 792 783 806 735 709 1020 1105 1220 695 277 58 0 108 345 598 630 541 37 10 10 64 112 36 47 41 40 98 115 54
24 0 0 0 0 0 31 15 31 18 26 30 83 96 245 992 1131 1187 969 658 527 776 765 735 697 426 950 909 579 214 60 114 161 214 452 499 204 16 5 18 51 89 52 44 32 22 11 15 22
20 29 0 0 0 0 11 0 9 65 58 40 31 177 211 536 742 455 154 87 10 540 871 817 651 435 320 592 410 155 46 67 46 130 66 2 2 16 46 2 5 119 97 60 38 27 13 0 0
27 0 0 0 0 0 0 0 0 21 58 102 85 114 135 555 839 370 203 183 100 182 263 742 685 517 213 476 457 207 56 0 6 2 3 1 9 8 8 5 7 93 72 51 46 32 7 0 0
43 0 0 0 0 0 0 3 0 50 41 90 134 303 628 1113 933 763 348 195 78 61 43 169 629 593 251 238 634 514 43 5 3 10 12 11 2 7 3 6 46 102 87 57 18 1 0 0 0
14 0 2 1 1 4 6 6 21 95 92 90 166 157 465 814 873 653 206 3 1 0 20 86 201 460 199 8 680 747 503 57 7 2 8 12 12 12 5 36 47 22 0 0 0 0 0 0 0
0 0 0 0 15 8 3 42 67 95 40 141 151 169 502 681 641 447 199 7 0 14 43 170 151 326 228 101 128 802 739 372 129 1 0 2 5 6 2 3 0 0 0 0 0 0 0 0 0
0 0 0 0 4 3 1 1 4 32 68 229 148 175 124 281 377 400 306 181 126 122 22 84 53 138 293 254 27 241 782 679 347 94 0 0 0 10 0 0 0 0 0 0 0 0 0 0 0
0 0 3 4 0 0 1 0 16 0 50 156 236 249 58 4 371 426 470 214 235 89 66 27 23 42 134 279 167 40 294 761 651 251 102 34 25 2 0 0 0 0 0 0 0 0 0 0 0
7 0 0 0 0 7 0 0 0 0 50 251 252 186 202 6 338 281 218 152 110 58 30 9 50 55 107 324 307 83 68 300 675 595 361 150 132 75 46 28 68 52 16 0 0 0 0 3 0
0 0 0 0 0 0 6 0 0 0 11 122 137 117 229 192 407 242 102 60 81 50 101 94 88 25 72 469 309 220 219 184 222 537 585 373 249 154 136 151 149 101 26 7 1 0 0 0 0
0 0 2 1 1 1 54 0 0 0 33 133 142 130 160 264 556 328 176 82 139 144 153 65 50 12 153 454 343 250 291 368 374 332 384 427 438 299 186 114 119 122 39 21 10 13 0 0 0
12 0 9 8 39 59 98 0 0 233 289 315 250 147 76 159 375 526 300 348 254 113 70 27 8 38 165 396 373 299 193 171 245 279 393 405 455 431 304 100 110 99 57 17 19 4 0 0 6
0 22 18 73 98 93 112 4 0 281 298 227 194 105 4 25 172 164 197 41 170 130 100 82 23 89 345 508 461 360 457 408 345 330 272 246 203 190 196 78 120 168 144 73 28 7 0 7 69
0 1 7 36 96 87 133 55 50 206 81 27 79 110 10 6 59 54 26 10 69 79 179 103 152 179 75 118 241 232 270 318 326 440 474 391 303 231 190 141 151 182 213 192 80 21 55 91 162
0 0 7 56 70 180 123 83 98 128 31 0 0 8 30 20 49 66 0 0 7 37 83 94 135 95 97 148 182 150 127 159 147 223 331 441 353 243 286 261 175 127 135 310 221 182 206 377 200
0 0 0 9 64 74 103 99 98 100 13 0 0 0 13 22 14 47 14 0 0 9 73 70 102 96 89 99 125 139 125 67 105 81 244 271 255 256 175 125 76 105 55 108 104 86 117 257 203
35 8 0 0 149 109 59 69 96 29 1 0 0 0 0 0 3 12 0 0 7 5 160 114 139 167 113 171 194 104 81 68 89 43 88 155 97 141 83 117 76 37 75 56 78 32 60 58 46
51 74 40 22 58 71 16 28 0 0 0 0 0 3 9 0 35 9 4 1 1 10 15 55 55 153 267 179 145 113 24 103 83 51 60 74 99 65 86 103 89 91 100 79 58 35 34 25 35
15 100 145 116 51 0 0 0 0 0 0 0 0 0 4 14 1 0 2 5 0 0 4 1 21 111 226 312 289 264 323 286 146 95 137 187 104 96 61 93 79 100 80 67 41 11 2 11 14
3 14 52 0 0 0 0 0 0 0 0 0 13 0 9 4 11 0 2 5 0 4 0 5 12 7 3 140 152 208 377 376 259 280 318 289 175 148 126 99 83 78 66 48 6 8 0 0 0
2 0 0 0 0 0 0 0 0 0 0 0 1 0 0 18 1 0 0 5 1 4 1 0 0 0 0 0 0 47 49 142 307 312 333 309 226 180 132 84 120 60 51 42 35 24 24 16 0
0 0 0 0 0 0 0 0 0 0 0 0 4 0 8 7 7 0 0 0 0 8 1 0 0 0 0 0 0 0 0 0 0 3 59 149 195 149 130 149 119 103 65 57 12 8 9 9 29
0 0 0 0 0 0 0 0 0 0 0 0 0 0 0 0 0 0 0 0 4 5 0 0 0 0 0 0 0 0 0 0 0 0 0 0 17 117 183 177 180 152 100 12 3 5 22 30 5
0 0 0 0 0 0 0 0 0 0 0 0 0 6 4 1 0 7 0 4 8 0 0 0 0 0 0 0 0 0 0 0 0 0 0 0 0 0 68 141 147 88 30 31 42 38 1 6 22

GFSSGP_con_mucape_087.txt.gz
CAPE
0 52 74 73 9 0 0 0 0 0 0 1 14 32 74 131 240 281 727 482 457 566 969 1007 1501 1132 977 637 489 663 661 933 1407 1317 1332 1160 1198 1032 640 252 75 20 244 555 339 154 15 9 10
30 38 71 59 1 0 0 0 0 0 0 0 0 47 107 212 465 878 913 642 549 699 983 920 1439 1408 1052 805 608 687 499 672 1187 1224 1323 1319 1184 726 437 194 75 290 498 499 397 124 7 11 7
3 28 63 14 0 0 0 0 0 2 0 11 26 113 159 190 515 781 966 718 700 759 1048 980 1333 1387 1122 746 495 455 577 835 954 1030 1137 1272 1107 504 297 301 527 393 424 258 124 67 19 51 1
6 42 91 0 0 0 0 0 2 4 5 16 42 135 184 718 652 836 959 832 803 672 729 1124 1186 1271 1165 1198 629 183 339 778 962 1015 953 866 1064 351 235 414 431 259 37 55 36 111 134 94 0
23 52 0 0 0 0 2 0 0 12 2 8 10 87 222 665 973 984 1003 789 726 725 760 1096 1160 1264 1166 1157 934 438 128 584 693 838 835 670 817 157 112 359 300 175 106 91 293 364 200 53 0
33 14 0 0 0 0 0 0 0 0 9 0 19 49 189 665 1072 1053 1074 832 709 777 765 843 749 1024 1013 1285 826 475 213 292 515 707 806 633 610 67 93 232 213 160 76 118 301 146 107 64 0
22 0 0 0 0 0 0 0 10 1 10 5 30 49 78 787 910 1203 1259 1048 664 481 537 591 612 619 739 854 566 400 260 268 390 534 665 494 254 91 7 120 273 146 14 75 60 96 118 82 0
30 0 0 0 0 0 0 2 4 14 16 9 29 57 67 181 1153 1329 1103 646 553 248 220 319 582 473 29 507 373 278 240 362 309 262 219 46 32 18 32 25 201 169 67 65 38 22 14 0 0
23 0 0 0 0 0 0 0 1 7 19 25 44 68 69 872 945 883 993 621 384 311 312 194 291 470 142 418 338 100 72 57 59 121 86 30 6 6 5 13 92 144 139 78 37 25 11 3 0
22 0 0 0 1 0 4 2 3 3 7 9 1 59 91 676 619 672 605 623 192 105 26 44 53 257 238 405 368 73 1 1 0 15 180 122 19 7 0 4 26 109 100 82 46 20 0 0 0
1 0 0 5 14 14 18 5 0 22 14 23 20 8 103 421 829 550 563 496 403 242 63 15 8 90 57 477 695 290 8 0 2 0 9 37 11 2 9 10 9 35 15 2 8 0 0 0 0
0 0 0 0 0 11 34 14 0 6 36 56 137 207 170 166 635 605 605 496 348 197 95 10 0 4 2 113 782 516 380 6 6 9 3 20 7 12 5 1 0 0 0 0 0 0 0 0 0
0 0 0 0 0 0 7 9 11 0 1 41 64 137 173 222 327 436 554 418 217 78 102 8 3 2 18 179 194 427 461 260 10 3 6 8 11 36 1 0 0 0 0 0 0 0 0 0 0
0 0 0 4 0 3 0 0 0 0 0 0 7 28 134 196 203 391 399 334 139 65 51 22 10 5 18 143 241 203 391 562 314 60 0 1 2 39 32 0 6 0 0 0 0 0 0 0 0
2 0 0 0 0 0 2 0 0 0 0 0 0 27 261 265 166 106 414 417 129 59 77 44 13 3 13 139 279 185 244 387 670 308 54 0 0 0 0 0 0 0 0 0 0 0 0 0 0
17 8 0 0 0 0 4 0 0 0 0 0 0 37 197 212 260 82 529 538 326 75 164 71 54 41 36 23 134 313 147 264 340 567 286 124 113 76 54 37 66 68 50 20 0 0 0 0 0
25 0 0 0 9 2 35 7 0 0 0 0 0 0 111 247 362 336 551 469 204 77 139 168 125 91 5 20 143 379 248 163 247 489 672 471 259 247 190 199 196 146 99 26 15 10 4 6 1
0 0 20 16 86 82 69 43 0 0 0 0 0 12 142 283 343 615 513 432 234 179 130 135 114 63 8 32 262 327 326 312 375 358 354 454 472 460 411 244 131 138 154 75 41 17 32 15 8
0 0 0 19 47 85 81 8 0 0 255 129 151 258 236 297 349 615 619 544 589 282 187 191 217 13 21 68 264 302 306 305 343 409 461 451 441 442 512 371 140 173 246 185 69 36 19 18 18
0 0 3 9 47 35 133 26 36 18 227 390 279 286 260 188 239 449 307 329 304 169 93 113 45 53 71 100 156 245 446 550 507 502 486 374 338 295 321 361 223 229 267 235 212 133 44 35 60
0 0 4 0 28 107 94 106 103 50 201 265 281 299 335 128 17 211 151 92 104 131 47 94 100 65 62 79 100 81 143 269 351 496 440 419 420 340 427 432 356 279 182 221 311 175 99 149 263
0 0 0 61 7 38 30 11 47 100 236 289 244 119 169 18 0 55 73 39 7 0 6 82 51 113 89 62 91 61 134 171 213 291 321 498 380 343 347 316 391 284 195 93 103 140 93 203 254
0 5 0 0 0 1 0 59 32 79 164 234 134 87 58 8 0 4 62 26 1 48 18 17 15 23 113 70 59 91 86 105 127 68 133 189 242 193 238 310 252 158 120 92 70 68 80 17 115
6 0 0 1 3 26 23 96 88 132 85 77 131 18 17 9 0 0 2 0 41 0 1 0 37 22 58 96 120 83 113 104 63 132 108 75 96 142 136 117 182 167 51 52 56 70 59 35 74
62 75 159 131 180 49 4 20 7 1 1 2 0 20 32 6 0 0 2 5 17 13 10 43 28 57 35 32 135 72 103 117 65 103 31 42 52 87 55 116 150 84 102 56 62 70 72 55 47
4 35 131 62 45 4 0 84 0 2 0 0 10 51 0 0 0 0 0 1 1 12 9 10 2 28 34 63 115 126 189 214 110 140 128 120 154 93 81 190 113 113 77 47 68 51 47 32 15
0 82 0 10 0 0 0 0 0 0 0 1 6 31 0 0 0 1 4 13 4 0 8 0 0 0 0 21 52 77 289 319 311 220 209 207 231 265 216 230 191 172 103 57 78 80 34 14 5
0 0 0 0 19 0 5 14 0 0 0 0 10 0 19 25 16 5 6 1 0 0 2 1 1 0 0 0 0 0 23 23 124 263 368 354 415 355 232 190 169 163 141 96 78 73 24 39 40
0 0 0 0 0 2 5 4 0 0 0 2 2 4 10 21 22 2 0 0 4 1 6 6 0 0 0 0 0 0 0 0 0 0 0 8 80 317 340 290 204 139 141 151 83 64 64 8 3
0 0 0 0 0 0 0 0 0 0 0 0 0 0 6 11 3 0 0 1 8 2 1 0 0 0 0 0 0 0 0 0 0 0 0 0 0 0 7 82 221 373 401 287 187 105 35 7 16

GFSSGP_con_mucape_090.txt.gz
CAPE
0 0 5 47 1 0 0 0 0 0 0 0 0 0 11 10 362 140 461 290 831 977 802 1332 1508 1229 1051 906 514 758 815 1564 1388 1299 1233 1097 1221 1062 755 327 213 685 810 517 279 139 7 150 257
0 0 16 27 0 0 0 0 0 0 0 0 0 0 4 95 844 592 621 457 512 981 829 872 1411 1291 1059 843 571 689 465 865 1454 1245 1480 1713 1193 994 594 225 318 960 991 712 118 15 13 44 34
0 0 11 0 0 0 0 0 0 0 0 0 0 0 13 367 806 857 762 586 893 1033 752 956 1302 1365 1167 705 743 702 539 689 1194 1103 1184 1244 1103 1098 447 422 598 809 797 558 99 15 9 4 0
0 0 26 0 0 0 0 0 0 0 0 0 0 0 63 539 769 918 736 613 842 971 967 1205 1353 1218 1178 969 811 540 629 520 911 1004 1092 1292 936 699 710 617 365 321 246 332 113 89 65 0 0
0 30 0 0 0 0 0 0 0 0 0 0 0 0 26 737 992 885 940 711 802 838 1011 1061 1229 1077 1283 1165 758 631 504 917 861 904 843 809 822 493 478 344 59 15 100 60 79 116 24 0 0
4 0 0 0 0 0 0 0 0 0 0 0 0 3 62 918 988 1083 1071 810 805 817 942 771 1058 1216 1040 1126 822 461 450 791 1060 877 764 762 636 449 351 147 8 8 75 216 405 203 39 0 0
1 0 0 0 0 0 0 0 0 0 0 0 0 0 122 677 869 1131 1086 947 830 828 829 655 443 725 725 1081 765 456 320 419 731 738 610 414 408 387 34 19 118 174 143 428 354 141 80 0 0
0 0 0 0 0 0 0 0 0 0 0 0 0 0 0 547 943 1201 1199 939 625 623 562 469 338 435 348 770 439 290 182 344 254 435 226 78 8 10 9 69 62 55 169 158 171 159 118 41 0
3 0 0 0 0 0 0 0 0 0 0 0 1 0 0 851 779 895 960 904 635 526 369 154 286 346 54 175 288 167 182 142 145 153 86 61 28 0 4 11 29 66 112 110 63 35 33 6 0
0 0 0 0 0 0 0 0 0 0 0 0 0 0 0 683 401 378 341 429 639 365 220 65 113 291 144 88 136 127 34 0 30 118 88 62 15 3 3 13 23 91 102 90 72 42 22 0 0
0 0 0 0 1 0 0 0 0 0 0 0 6 0 0 4 263 261 269 215 229 299 201 103 136 138 89 52 25 74 6 0 2 5 62 47 35 0 0 4 11 10 8 5 14 4 0 0 0
0 0 0 0 0 0 0 0 0 0 0 0 0 37 82 51 154 222 167 183 451 270 144 91 62 6 1 34 15 36 55 0 0 0 2 52 17 0 0 0 0 4 0 0 0 0 0 0 0
0 0 0 0 0 0 0 0 0 0 0 0 0 8 2 21 31 63 124 134 243 277 260 130 52 8 62 97 59 89 120 0 0 0 0 2 1 0 0 0 0 0 0 0 0 0 0 0 0
0 0 0 0 0 0 0 0 0 0 0 0 0 2 0 1 10 53 251 180 223 222 104 109 57 11 109 33 25 9 138 158 0 0 0 11 0 0 0 0 0 0 0 0 0 0 0 0 0
0 0 0 0 0 0 0 0 0 0 0 0 0 0 0 6 12 50 166 223 292 165 83 93 135 44 21 53 21 64 46 107 88 0 0 4 0 0 0 0 0 0 0 0 0 0 0 0 0
0 0 0 0 0 0 0 0 0 0 0 0 0 0 0 0 82 98 120 328 349 236 113 121 144 27 12 10 77 92 82 90 89 141 0 0 0 0 0 0 0 0 0 0 0 0 0 0 0
0 0 0 0 6 6 4 0 0 0 0 0 0 0 0 0 158 145 176 366 416 298 145 35 123 89 91 90 69 100 165 47 174 129 170 8 17 3 0 0 0 20 39 39 8 0 0 0 0
0 0 0 0 0 38 20 0 0 0 0 0 0 0 0 0 215 369 320 411 448 355 179 136 137 105 83 76 50 113 196 131 174 199 190 257 136 151 116 135 131 131 108 95 33 15 13 7 16
0 0 0 0 0 0 3 0 0 20 9 10 0 0 0 9 403 413 409 354 371 283 187 114 106 81 81 39 49 66 110 193 231 262 265 267 335 387 372 236 138 106 160 154 60 55 26 30 28
0 0 0 0 0 1 10 0 1 20 9 20 185 116 395 327 300 351 409 296 398 300 197 123 115 100 86 33 42 109 114 168 165 365 370 361 280 399 368 353 290 109 174 252 207 142 99 56 26
0 0 0 0 0 0 8 1 14 8 4 332 332 278 345 300 260 448 416 305 389 287 155 166 129 88 87 70 67 93 120 82 164 263 285 277 323 347 324 294 313 242 239 263 293 246 196 101 96
0 5 1 0 0 0 5 0 0 9 6 237 196 371 366 368 227 265 327 261 279 216 33 66 123 88 52 51 36 50 41 62 69 107 246 297 343 322 344 317 298 290 250 232 235 172 160 154 127
0 0 0 0 0 0 0 0 0 1 40 127 155 291 400 329 171 116 236 244 161 1 0 0 31 40 22 21 16 21 11 54 61 50 47 94 201 193 244 253 279 247 192 189 110 115 90 61 78
3 0 0 0 0 0 4 0 0 0 21 104 190 219 290 234 152 57 111 116 94 2 0 0 0 17 20 20 13 73 45 48 28 20 46 69 113 148 145 142 189 208 212 169 140 95 70 73 68
0 2 0 0 0 0 0 1 10 0 11 100 180 248 174 51 63 28 107 40 5 3 0 0 0 12 17 11 1 24 24 47 32 31 20 77 45 37 67 67 109 162 157 86 77 43 43 58 38
0 0 0 0 0 0 0 0 0 0 3 3 138 75 16 6 10 1 13 0 0 0 0 0 4 2 0 6 25 18 66 37 51 16 21 76 35 7 12 29 41 117 102 54 102 27 27 52 53
0 0 0 2 0 0 0 0 2 5 11 1 37 10 4 5 0 2 0 0 0 1 0 9 0 0 0 27 8 41 162 77 83 93 67 60 88 83 60 50 122 101 23 54 72 19 54 56 80
0 0 0 1 18 35 21 4 0 0 0 0 11 0 0 0 0 0 1 0 0 0 1 0 0 0 0 0 2 27 45 189 78 159 167 193 156 130 144 114 93 71 66 65 61 49 67 60 61
0 0 0 5 10 16 6 0 0 0 0 3 1 8 6 9 1 0 0 2 0 0 0 0 0 0 0 1 2 2 0 9 15 1 19 198 243 227 266 219 175 116 113 110 93 78 60 59 67
0 0 0 0 0 0 0 0 0 0 0 0 8 2 22 3 0 6 0 0 0 1 3 0 0 0 0 0 0 0 0 0 0 0 0 0 0 0 0 11 176 154 157 242 165 142 130 78 75

GFSSGP_con_mucape_096.txt.gz
CAPE
0 0 0 1 0 0 0 0 0 0 0 0 0 0 0 0 0 0 676 808 722 951 1112 1089 1371 1280 1202 1154 1196 1859 1816 1672 1741 1717 1156 901 1270 991 454 136 580 799 846 812 631 511 423 214 126
0 0 0 0 0 0 0 0 0 0 0 0 0 0 0 2 505 470 656 763 729 985 1084 1026 1467 1412 1073 824 731 1435 1695 1702 1646 1724 1729 1538 1260 946 580 393 745 902 811 647 519 159 59 54 41
0 0 0 0 0 0 0 0 0 0 0 0 0 0 0 540 384 479 608 903 871 934 972 1174 1596 1474 1231 779 563 549 1337 1634 1609 1584 1613 1446 1247 883 592 834 1191 968 727 554 355 7 52 16 12
0 0 0 0 0 0 0 0 0 0 0 0 0 0 212 422 538 557 981 950 969 1016 1059 1450 1669 1524 1341 1135 789 327 592 1304 1601 1551 1279 1334 1097 933 1024 1189 1025 700 399 291 31 8 3 0 0
0 0 0 0 0 0 0 0 0 0 0 0 0 0 45 589 694 608 902 1070 1007 1023 1061 1330 1755 1632 1476 1338 1219 975 583 828 1165 1416 1056 872 1158 895 1004 1001 810 423 280 87 11 6 0 0 0
0 0 0 0 0 0 0 0 0 0 0 0 0 0 2 569 614 884 932 1053 886 884 1138 1276 1605 1541 1438 1378 1240 1146 921 960 1173 1267 1364 1230 1243 755 838 752 731 489 355 49 42 1 0 0 0
0 0 0 0 0 0 0 0 0 0 0 0 0 0 0 446 439 662 984 1015 908 1019 1077 1253 1214 1206 1183 1201 1069 977 830 1110 1300 1068 1112 924 856 480 721 576 493 79 36 362 197 0 0 0 0
0 0 0 0 0 0 0 0 0 0 0 0 0 0 0 0 431 417 350 714 885 936 881 828 973 1021 984 614 577 388 335 484 789 727 549 389 293 196 492 189 34 63 275 425 398 38 0 0 0
0 0 0 0 0 0 0 0 0 0 0 0 0 0 0 35 222 250 194 162 196 559 699 659 643 667 871 632 306 202 155 197 201 315 260 236 136 42 23 1 16 39 498 671 383 89 34 11 0
0 0 0 0 0 0 0 0 0 0 0 0 0 0 0 18 0 53 153 124 155 168 329 462 438 345 375 453 283 197 131 101 164 246 267 223 99 66 34 0 8 86 312 353 459 236 75 0 0
0 0 0 0 0 0 0 0 0 0 0 0 0 0 0 0 0 0 38 121 149 131 128 146 161 139 123 217 199 154 173 139 179 288 371 256 105 88 36 2 3 20 40 19 64 29 0 0 0
0 0 0 0 0 0 0 0 0 0 0 0 0 0 0 0 0 0 0 39 101 150 107 171 144 71 108 124 158 110 94 108 61 118 132 130 175 134 58 11 3 8 13 6 0 0 0 0 0
0 0 0 0 0 0 0 0 0 0 0 0 0 0 0 0 0 0 0 8 64 56 165 183 129 128 125 107 99 82 49 2 2 6 59 49 100 82 87 15 10 3 3 9 0 0 0 0 0
0 0 0 0 0 0 0 0 0 0 0 0 0 0 0 0 0 0 0 0 20 39 103 166 145 110 130 142 97 56 92 33 19 1 97 79 88 13 58 2 15 4 3 11 0 0 0 0 0
0 0 0 0 0 0 0 0 0 0 0 0 0 0 0 0 0 1 0 0 9 11 120 118 117 127 81 92 56 43 37 2 0 0 61 102 95 50 10 50 66 38 36 43 0 0 0 0 0
0 0 0 0 0 0 0 0 0 0 0 0 0 0 0 0 0 0 0 0 8 58 152 123 82 69 42 34 38 56 1 5 17 9 31 49 113 106 56 5 18 87 100 36 15 0 0 0 0
0 0 0 0 0 0 0 0 0 0 0 0 0 0 0 0 0 0 0 0 15 91 157 145 120 59 56 73 62 50 1 20 36 35 15 3 57 77 123 67 79 76 43 5 0 0 0 0 0
0 0 0 0 0 0 0 0 0 0 0 0 0 0 0 0 0 0 0 0 32 146 166 195 217 121 77 82 115 64 0 18 76 74 63 10 33 84 94 106 97 58 0 5 0 0 0 0 0
0 0 0 0 0 0 0 0 0 0 0 0 0 0 0 0 0 0 0 53 190 239 247 253 217 184 155 111 98 66 84 29 50 120 103 52 13 72 100 129 97 67 49 28 0 0 0 0 0
0 0 0 0 0 0 0 0 0 0 0 0 0 0 0 0 0 10 108 164 280 327 287 233 207 211 209 187 118 107 103 76 63 51 61 83 51 60 87 113 96 78 57 59 13 0 14 14 2
0 0 0 0 0 0 0 0 0 0 0 0 0 0 0 0 0 79 203 218 275 287 322 210 167 199 193 232 198 115 82 73 58 39 40 50 70 67 41 99 130 127 64 20 54 116 110 55 66
0 0 0 0 0 0 0 0 0 0 0 0 0 0 0 115 190 205 262 252 212 197 191 152 160 146 141 176 179 99 87 70 18 14 37 29 66 48 83 118 169 112 105 217 246 227 236 147 131
0 0 0 0 0 0 0 0 0 0 0 6 0 0 137 146 85 153 245 224 210 138 130 93 56 101 168 234 173 126 125 42 32 37 56 64 32 39 48 100 104 138 229 197 209 207 222 207 194
0 0 0 0 0 0 0 0 0 0 25 56 30 141 102 115 49 85 113 240 340 204 106 60 69 54 85 169 200 135 81 45 31 9 55 47 56 3 46 59 39 34 75 94 89 181 191 181 146
0 0 0 0 0 0 0 0 0 0 81 109 50 39 26 31 57 86 131 116 130 132 163 102 37 47 65 75 84 47 82 22 24 24 28 25 31 54 64 51 44 71 70 59 40 94 108 113 95
0 0 0 0 0 0 0 0 0 0 46 26 22 4 11 55 80 49 37 15 22 24 44 163 34 56 40 26 22 12 19 14 7 58 15 36 51 47 5 42 22 36 47 43 50 66 73 56 45
0 0 0 0 0 0 0 0 0 0 3 40 59 62 47 31 52 66 48 73 13 30 77 14 33 34 15 31 5 6 2 3 18 24 35 22 27 44 40 30 2 30 52 49 108 103 75 67 49
0 0 0 0 0 0 0 0 0 0 0 0 10 55 54 14 9 9 2 8 37 11 28 14 8 4 2 1 4 7 0 0 42 47 53 41 58 38 24 40 42 34 10 31 15 55 70 23 22
0 0 0 0 0 0 0 0 0 0 0 0 0 1 10 0 0 0 0 0 0 5 0 0 0 0 5 9 6 0 2 49 46 53 43 39 40 40 51 93 94 59 47 43 37 43 40 43 19
0 0 0 0 0 0 0 0 0 0 0 0 0 0 0 0 0 0 0 0 0 0 0 0 0 0 0 0 0 0 0 0 0 1 2 21 30 13 8 3 8 16 67 76 60 56 54 62 35

GFSSGP_con_mucape_099.txt.gz
CAPE
0 0 0 0 0 0 0 0 0 0 0 0 0 0 0 0 0 0 482 919 692 873 1104 1207 1475 1633 2020 2158 2260 2097 2062 1975 1788 1589 889 1424 1077 467 306 662 659 613 679 713 746 683 562 54 7
0 0 0 0 0 0 0 0 0 0 0 0 0 0 0 0 260 296 703 790 774 982 1077 1040 1502 1510 1343 1679 1872 1918 1721 1747 1796 1699 1362 1360 1110 807 307 606 889 1072 881 788 732 646 209 54 38
0 0 0 0 0 0 0 0 0 0 0 0 0 0 0 93 434 438 571 752 816 948 979 978 1537 1492 1218 989 1569 1591 1678 1592 1706 1683 1670 1474 1241 963 383 691 1248 998 998 791 525 28 80 4 0
0 0 0 0 0 0 0 0 0 0 0 0 0 0 0 256 342 478 845 838 894 942 974 1322 1638 1562 1317 1174 1039 1423 1373 1368 1541 1667 1244 1187 1192 1085 911 1344 895 833 704 439 209 130 42 1 0
0 0 0 0 0 0 0 0 0 0 0 0 0 0 0 82 487 663 962 935 906 944 1021 1366 1750 1687 1427 1222 1044 930 1315 1420 1325 1276 1025 978 1260 1110 1065 1015 741 583 577 259 51 14 35 0 0
0 0 0 0 0 0 0 0 0 0 0 0 0 0 0 112 250 644 833 940 893 969 1124 1335 1613 1619 1541 1326 1245 1009 911 1121 1484 1606 1497 1286 1201 1016 815 807 704 534 170 54 28 28 0 0 0
0 0 0 0 0 0 0 0 0 0 0 0 0 0 0 35 44 126 695 758 828 891 1060 1293 1390 1321 1330 1307 1287 1233 1194 991 1357 1430 1447 1220 843 816 813 691 710 449 226 123 30 2 0 0 0
0 0 0 0 0 0 0 0 0 0 0 0 0 0 0 0 0 122 214 457 695 772 734 716 776 797 910 933 869 786 727 1015 1222 1016 921 712 534 441 426 416 520 532 380 392 122 2 0 0 0
0 0 0 0 0 0 0 0 0 0 0 0 0 0 0 0 0 11 63 78 228 306 455 686 681 689 654 576 481 253 305 448 488 553 525 474 420 179 66 144 122 87 141 324 132 7 0 0 0
0 0 0 0 0 0 0 0 0 0 0 0 0 0 0 0 0 0 5 40 78 141 258 641 621 543 559 406 149 62 80 106 215 287 293 334 320 198 89 18 51 35 90 507 329 81 42 0 0
0 0 0 0 0 0 0 0 0 0 0 0 0 0 0 0 0 0 0 0 25 87 107 185 475 330 431 170 146 98 68 59 109 261 296 315 337 237 107 50 56 14 77 218 213 128 0 0 0
0 0 0 0 0 0 0 0 0 0 0 0 0 0 0 0 0 0 0 0 4 29 69 74 137 157 196 138 121 126 114 102 81 181 333 321 318 198 223 156 53 14 132 95 118 85 0 0 0
0 0 0 0 0 0 0 0 0 0 0 0 0 0 0 0 0 0 0 0 0 14 80 195 132 163 87 95 129 102 124 119 72 119 209 287 294 200 145 164 125 16 6 50 53 26 0 0 0
0 0 0 0 0 0 0 0 0 0 0 0 0 0 0 0 0 0 0 0 0 6 20 131 205 176 119 99 113 99 90 66 32 8 119 144 178 247 194 129 126 49 6 24 54 20 0 0 0
0 0 0 0 0 0 0 0 0 0 0 0 0 0 0 0 0 0 0 0 0 0 0 65 199 208 211 169 143 105 64 30 42 25 18 153 140 195 178 27 122 34 32 31 35 20 0 0 0
0 0 0 0 0 0 0 0 0 0 0 0 0 0 0 0 0 0 0 0 0 0 0 62 208 243 198 180 175 126 60 23 21 14 47 92 98 110 116 26 26 17 50 62 78 58 11 0 0
0 0 0 0 0 0 0 0 0 0 0 0 0 0 0 0 0 0 0 1 5 0 3 92 196 222 194 130 114 105 53 33 18 10 0 92 158 143 113 40 35 3 4 62 94 76 38 0 0
0 0 0 0 0 0 0 0 0 0 0 0 0 0 0 0 0 0 0 0 1 0 34 132 215 184 117 96 72 37 19 13 0 0 10 42 119 118 124 57 24 3 54 91 116 67 50 0 0
0 0 0 0 0 0 0 0 0 0 0 0 0 0 0 0 0 0 0 0 0 0 65 145 211 206 129 107 92 113 61 59 6 5 30 41 67 54 83 90 93 78 66 122 91 109 58 19 28
0 0 0 0 0 0 0 0 0 0 0 0 0 0 0 0 0 0 0 0 6 90 151 198 266 269 202 144 119 93 64 117 33 11 26 92 113 76 76 111 104 169 84 110 66 18 4 25 22
0 0 0 0 0 0 0 0 0 0 0 0 0 0 0 0 0 0 0 18 102 223 306 293 322 327 289 186 123 69 55 56 39 38 63 70 91 95 49 49 75 78 74 103 82 81 77 36 36
0 0 0 0 0 0 1 1 0 0 3 22 0 0 0 0 0 102 142 208 230 181 270 391 317 279 214 149 142 75 36 12 29 44 59 54 52 62 69 40 36 37 86 131 124 111 104 103 32
0 0 0 0 0 0 0 1 0 0 0 71 77 0 3 78 73 130 294 282 156 179 221 246 225 228 188 240 180 100 80 114 30 41 29 46 55 52 39 53 16 37 90 123 133 140 151 87 96
0 0 0 0 0 0 0 0 0 0 0 65 82 89 76 213 149 75 124 169 223 209 137 120 154 118 63 129 95 116 175 112 51 47 17 8 27 21 13 10 40 52 72 99 144 162 149 150 167
0 0 0 0 0 0 0 0 0 0 0 23 31 8 21 22 7 30 78 154 258 201 188 135 98 48 38 41 54 101 87 68 121 86 46 47 31 26 30 31 38 40 47 94 120 96 94 116 93
0 0 0 0 2 0 0 0 0 0 1 11 50 4 3 8 22 36 58 78 58 79 124 117 99 65 51 30 24 33 19 79 86 43 52 64 55 25 13 24 38 45 20 51 57 88 66 68 60
0 0 0 0 0 0 0 0 0 1 3 3 21 44 69 19 34 6 4 16 14 30 90 52 61 45 36 20 36 32 35 61 51 22 20 44 33 21 32 37 27 36 44 29 50 23 39 49 36
0 0 0 0 0 0 5 0 0 0 0 1 0 68 15 12 8 5 4 8 5 10 46 37 63 39 21 43 26 19 2 6 2 8 9 0 3 13 0 25 17 31 31 20 8 38 44 64 56
0 0 0 0 0 0 0 0 0 0 0 0 1 20 20 22 16 6 0 0 7 15 7 1 27 30 0 6 1 0 0 11 2 0 29 37 40 34 33 22 6 41 62 50 44 50 62 41 35
0 0 0 0 0 0 0 0 0 0 0 0 0 0 0 0 0 0 0 0 0 16 14 17 8 0 0 0 0 0 0 0 0 0 0 0 0 0 3 4 3 11 2 52 55 63 64 52 44

GFSSGP_con_mucape_102.txt.gz
CAPE
0 0 0 0 0 0 0 0 0 0 0 0 0 0 0 0 0 0 326 762 686 828 1320 1328 1617 1975 2124 1957 1927 1902 1969 1885 1624 993 478 695 719 340 417 404 148 92 137 667 735 611 154 6 9
0 0 0 0 0 0 0 0 0 0 0 0 0 0 0 0 0 74 571 810 731 1057 1213 1070 1780 1946 2128 2013 1867 1957 1700 1920 1806 1556 1120 1559 874 476 592 697 575 1085 914 776 826 464 82 6 7
0 0 0 0 0 0 0 0 0 0 0 0 0 0 0 0 242 320 506 813 960 1077 1086 1078 1669 1761 1957 1810 1827 1824 1620 1484 1536 1679 1330 1444 1185 718 549 746 1348 1038 906 935 904 361 103 31 4
0 0 0 0 0 0 0 0 0 0 0 0 0 0 0 150 175 333 459 788 1008 1027 954 1256 1643 1676 1621 1831 1954 1883 1606 1548 1470 1529 1505 1271 1320 1054 725 1326 1274 1097 806 827 492 87 16 3 0
0 0 0 0 0 0 0 0 0 0 0 0 0 0 0 0 2 358 817 835 870 961 922 1301 1791 1722 1502 1397 1661 1821 1768 1608 1449 1395 1199 1014 1196 1182 1257 1101 1085 916 701 550 200 93 19 0 0
0 0 0 0 0 0 0 0 0 0 0 0 0 0 0 0 1 116 401 752 746 859 1069 1350 1601 1690 1540 1374 1235 1269 1665 1717 1649 1502 1431 1307 1198 1216 1140 858 1054 792 569 342 69 62 15 0 0
0 0 0 0 0 0 0 0 0 0 0 0 0 0 0 0 2 2 75 321 799 829 1036 1230 1336 1369 1389 1250 1200 1083 1094 1353 1599 1570 1431 1330 867 887 1026 809 914 698 615 394 176 67 5 0 0
0 0 0 0 0 0 0 0 0 0 0 0 0 0 0 0 0 0 0 47 218 679 805 900 869 972 877 892 931 1017 1013 1012 1231 1290 1049 994 764 594 781 617 499 593 555 390 214 2 0 10 0
0 0 0 0 0 0 0 0 0 0 0 0 0 0 0 0 0 0 0 23 39 99 564 559 570 568 499 596 701 600 406 844 1010 881 824 814 609 507 327 307 341 447 530 413 86 0 0 0 0
0 0 0 0 0 0 0 0 0 0 0 0 0 0 0 0 0 0 0 19 44 16 40 120 468 487 450 490 474 290 267 300 346 355 432 482 497 453 264 232 307 294 337 356 169 7 0 0 0
0 0 0 0 0 0 0 0 0 0 0 0 0 0 0 0 0 0 0 0 2 7 0 19 128 411 413 340 133 64 57 120 139 149 216 282 435 436 323 248 242 16 52 77 169 36 0 0 0
0 0 0 0 0 0 0 0 0 0 0 0 0 0 0 0 0 0 0 0 0 0 0 21 132 195 181 190 134 62 54 20 39 152 184 238 368 349 284 238 111 61 112 117 157 51 5 0 0
0 0 0 0 0 0 0 0 0 0 0 0 0 0 0 0 0 0 0 0 0 0 0 11 220 122 180 146 99 68 51 37 43 134 207 214 219 185 201 169 122 163 143 107 154 93 7 0 0
0 0 0 0 0 0 0 0 0 0 0 0 0 0 0 0 0 0 0 0 0 0 0 0 62 357 154 137 129 36 88 60 79 121 174 156 172 183 183 151 109 181 161 149 184 90 37 3 0
0 0 0 0 0 0 0 0 0 0 0 0 0 0 0 0 0 0 0 0 0 0 0 30 31 243 251 181 160 133 106 110 73 70 45 119 121 164 169 180 136 135 87 113 73 50 42 0 0
0 0 0 0 0 0 0 0 0 0 0 0 0 0 0 0 0 0 0 0 9 1 0 42 42 133 354 266 215 170 175 136 89 52 47 20 98 105 142 166 165 182 120 51 38 55 40 22 0
0 0 0 0 0 0 0 0 0 0 0 0 0 0 0 0 0 0 0 0 3 56 32 30 27 143 260 333 308 252 215 152 103 37 24 47 68 106 104 155 177 140 159 93 38 51 82 36 12
0 0 0 0 0 0 0 0 0 0 0 0 0 0 0 0 0 0 0 0 0 52 50 42 71 163 275 319 239 171 169 160 78 30 14 5 46 93 89 112 162 75 117 91 16 1 32 71 80
0 0 0 0 0 0 0 0 0 0 0 0 0 0 0 0 0 0 0 0 0 0 40 42 125 248 281 255 185 99 54 33 12 6 0 2 2 35 93 174 101 92 23 0 0 29 68 92 151
0 0 0 0 0 0 0 0 0 0 0 0 0 0 0 0 0 0 0 0 0 0 2 36 212 325 338 259 184 138 95 41 27 2 1 12 19 22 44 67 110 93 96 58 28 27 9 19 80
0 0 0 0 0 0 0 0 0 0 0 0 0 0 0 0 0 0 0 0 1 10 115 150 348 422 403 322 211 155 81 70 55 34 20 5 6 60 64 49 93 107 89 38 37 38 38 18 7
0 0 0 0 0 0 0 0 0 0 0 0 0 0 0 0 0 0 55 123 143 140 250 413 467 464 462 415 316 259 90 39 61 51 31 16 28 18 66 68 67 97 72 54 43 35 30 64 5
0 0 0 0 0 0 0 0 0 0 0 0 0 10 48 103 75 140 273 248 314 246 271 379 412 418 389 373 453 337 128 198 47 7 1 9 23 17 17 59 69 51 55 44 62 52 58 46 63
0 0 0 0 0 0 0 0 0 0 0 0 2 1 90 30 6 37 67 175 253 175 191 208 228 241 237 250 318 286 309 210 163 76 24 0 1 2 4 11 29 51 57 45 26 26 13 49 114
0 0 0 0 0 0 0 0 0 0 0 0 6 9 0 0 0 5 33 91 154 198 172 122 189 162 122 92 47 29 38 46 43 71 49 99 14 15 12 12 2 13 13 31 26 18 24 56 98
0 0 0 0 0 0 0 0 0 0 0 1 10 9 0 22 15 8 31 54 109 115 116 170 148 98 72 39 15 1 15 19 8 36 81 27 8 40 34 52 14 11 56 67 65 13 29 63 85
0 0 0 0 0 0 0 0 0 0 3 2 0 1 63 40 19 16 58 78 109 108 76 104 70 90 66 19 9 23 70 55 42 34 43 69 23 21 49 22 19 2 25 47 60 26 29 41 58
0 0 3 0 0 0 0 0 0 0 0 0 2 0 4 0 36 25 8 4 5 11 40 48 81 79 76 57 50 43 58 48 31 24 10 8 1 17 19 15 3 0 18 25 12 25 17 35 40
0 0 0 0 0 0 0 1 0 0 0 0 0 0 0 0 2 7 2 3 1 9 9 31 17 23 41 30 2 22 30 14 9 4 1 10 2 1 1 0 4 0 23 2 20 50 49 37 17
0 0 0 0 0 0 0 0 0 0 0 0 0 0 0 0 0 0 0 0 0 7 2 1 1 25 5 8 11 0 0 0 0 0 0 0 0 0 0 0 0 0 1 1 2 4 4 47 57

GFSSGP_con_mucape_105.txt.gz
CAPE
0 0 0 0 0 0 0 0 0 0 0 0 0 0 0 0 0 0 166 547 667 869 1533 1452 2225 2475 2309 2045 1960 1970 1998 1894 1855 1832 1561 1219 839 539 216 130 142 137 542 819 827 446 182 65 7
0 0 0 0 0 0 0 0 0 0 0 0 0 0 0 0 2 93 482 566 734 1194 1542 1160 1969 2444 2270 2107 1904 1899 1942 1881 1620 1040 884 1176 682 552 426 304 202 623 1129 873 960 568 112 5 7
0 0 0 0 0 0 0 0 0 0 0 0 0 0 0 0 6 139 291 519 1013 1363 1306 1253 2024 2277 2178 2122 2046 1908 1923 1862 1786 1549 895 1396 970 710 781 801 1017 1108 952 822 802 423 202 46 4
0 0 0 0 0 0 0 0 0 0 0 0 0 0 0 0 0 0 362 760 1130 1279 1206 1357 1779 1962 2179 2050 2113 2045 1713 1587 1757 1647 1516 1139 1169 758 1203 1344 1082 662 881 815 442 403 219 220 92
0 0 0 0 0 0 0 0 0 0 0 0 0 0 0 0 0 0 577 894 1000 1056 1066 1299 1766 1575 1894 1960 1857 1883 1692 1554 1692 1591 1336 1092 1113 1106 1234 1292 1107 979 836 900 297 85 5 0 0
0 0 0 0 0 0 0 0 0 0 0 0 0 0 0 0 0 9 124 963 1139 851 1095 1310 1471 1681 1503 1513 1546 1670 1552 1484 1565 1660 1504 1243 1205 1157 1032 1155 1222 1111 900 590 225 47 0 0 0
0 0 0 0 0 0 0 0 0 0 0 0 0 0 0 0 0 0 0 17 578 577 866 1094 1221 1181 1378 1297 1214 1206 1399 1347 1356 1374 1399 1419 1201 1126 928 913 957 926 725 690 512 90 9 2 0
0 0 0 0 0 0 0 0 0 0 0 0 0 0 0 0 0 0 0 0 8 312 507 833 1121 1157 1100 998 929 897 922 996 1216 1310 1315 1121 896 738 801 719 635 592 490 542 448 248 26 55 13
0 0 0 0 0 0 0 0 0 0 0 0 0 0 0 0 0 0 0 0 1 13 96 380 448 844 838 877 745 675 742 772 753 1003 1032 947 1017 843 573 312 378 443 449 595 486 217 53 55 3
0 0 0 0 0 0 0 0 0 0 0 0 0 0 0 0 0 0 0 0 0 0 35 48 125 358 618 697 778 756 454 727 857 882 804 913 894 763 568 322 339 437 391 445 374 117 30 4 0
0 0 0 0 0 0 0 0 0 0 0 0 0 0 0 0 0 0 0 0 0 0 0 5 38 104 278 648 459 163 165 177 227 225 371 506 553 594 574 479 480 366 300 409 146 33 3 3 0
0 0 0 0 0 0 0 0 0 0 0 0 0 0 0 0 0 0 0 0 0 0 15 0 9 36 356 301 253 127 101 114 178 182 176 295 456 430 452 407 544 305 265 255 231 66 3 0 0
0 0 0 0 0 0 0 0 0 0 0 0 0 0 0 0 0 0 0 0 0 0 7 33 2 23 311 365 211 117 39 26 37 140 185 183 271 205 221 214 202 255 177 243 239 125 10 0 0
0 0 0 0 0 0 0 0 0 0 0 0 0 0 0 0 0 0 0 0 0 0 0 34 23 25 26 402 375 152 87 37 39 53 183 238 194 158 158 154 163 160 131 128 197 164 91 0 0
0 0 0 0 0 0 0 0 0 0 0 0 0 0 0 0 0 0 0 0 0 0 0 0 31 6 108 411 370 188 135 1 73 68 122 183 191 172 137 134 142 140 102 66 111 94 104 38 0
0 0 0 0 0 0 0 0 0 0 0 0 0 0 0 0 0 0 0 0 0 0 0 0 5 22 110 141 346 235 165 49 38 97 101 92 141 160 165 160 160 134 122 151 149 96 130 84 62
0 0 0 0 0 0 0 0 0 0 0 0 0 0 0 0 0 0 0 0 0 0 0 3 12 41 83 160 376 258 212 134 109 64 76 81 70 114 142 144 142 133 126 127 143 63 91 79 48
0 0 0 0 0 0 0 0 0 0 0 0 0 0 0 0 0 0 0 0 0 0 0 17 62 70 110 195 421 307 275 215 186 108 109 95 71 106 100 74 95 129 117 128 113 88 90 67 31
0 0 0 0 0 0 0 0 0 0 0 0 0 0 0 0 0 0 0 0 0 0 0 0 94 94 205 245 306 588 438 338 225 202 99 42 39 38 97 108 173 64 114 84 86 97 92 8 3
0 0 0 0 0 0 0 0 0 0 0 0 0 0 0 0 0 0 0 0 0 0 0 0 39 213 340 363 350 330 264 195 104 54 48 27 37 34 63 127 151 143 72 55 27 22 30 18 11
0 0 0 0 0 0 0 0 0 0 0 0 0 0 0 0 0 4 0 0 0 0 0 0 22 258 266 342 334 309 226 190 191 169 118 59 38 90 36 55 171 158 66 135 23 21 4 2 1
0 0 0 0 0 0 0 0 0 0 0 0 0 0 0 1 3 14 136 205 175 178 177 297 312 507 399 360 425 394 360 337 188 211 141 109 64 46 111 103 97 150 121 110 47 43 15 8 4
0 0 0 0 0 0 0 0 0 0 0 0 0 0 0 3 0 1 52 228 235 235 284 591 674 592 488 424 552 611 565 377 322 259 84 29 30 63 80 136 122 161 163 138 119 49 41 23 5
0 0 0 0 0 0 0 0 0 0 0 0 0 0 0 0 0 0 0 59 187 146 189 385 338 211 423 470 515 479 541 400 318 285 259 141 67 29 12 34 109 144 112 94 59 52 49 41 23
0 0 0 0 0 0 0 0 0 0 0 0 0 0 0 2 0 1 0 41 143 56 68 77 62 73 132 297 287 365 184 135 84 79 82 241 87 48 23 15 20 35 73 82 62 51 27 21 15
0 0 0 0 0 0 0 0 0 0 0 0 0 0 0 1 17 0 10 44 76 114 133 89 65 73 108 105 101 135 78 64 30 24 19 38 98 28 36 4 84 29 15 35 22 14 6 22 24
0 0 0 0 0 0 0 0 0 0 0 0 0 0 0 6 21 6 11 2 43 55 155 103 90 78 87 77 81 71 52 53 96 60 34 80 12 15 26 11 21 15 9 4 14 3 26 6 20
0 0 0 0 0 0 0 0 0 0 0 0 0 0 0 0 0 15 11 7 3 34 51 58 52 88 88 83 85 42 44 40 48 49 17 18 32 9 3 16 8 3 2 21 22 16 9 18 26
0 0 0 0 0 0 0 0 0 0 0 0 0 0 0 0 0 0 0 0 3 9 31 18 14 27 21 17 19 19 58 21 15 30 8 2 8 0 0 0 1 4 3 3 5 1 0 0 0
0 0 0 0 0 0 0 0 0 0 0 0 0 0 0 0 0 0 0 0 0 7 4 0 19 2 13 2 8 0 4 9 16 15 2 1 0 0 0 0 0 0 0 0 0 1 1 0 0

GFSSGP_con_mucape_108.txt.gz
CAPE
0 0 0 0 0 0 0 0 0 0 0 0 0 0 0 0 0 0 463 655 1142 1147 1452 1219 2322 2458 2312 2373 2303 2180 2274 2145 2110 2015 1332 1406 1044 653 337 232 110 553 1215 666 394 393 279 216 6
0 0 0 0 0 0 0 0 0 0 0 0 0 0 0 0 22 0 704 257 1107 1240 1524 1327 2307 2227 2312 2229 2139 2084 2116 2140 2020 2008 2011 1534 1120 759 335 278 229 485 1052 1103 1161 896 536 94 5
0 0 0 0 0 0 0 0 0 0 0 0 0 0 0 0 0 0 75 273 1136 1433 1557 1425 1914 1837 2079 2135 2096 2007 2066 2016 1689 1568 1430 1738 1030 838 537 409 696 948 779 1000 1015 580 299 65 4
0 0 0 0 0 0 0 0 0 0 0 0 0 0 0 0 0 0 0 625 1248 1451 1427 1378 1798 1828 1646 1699 1712 1890 1945 1970 1850 1682 1404 1576 1080 976 1009 1278 1111 1203 793 822 385 115 79 150 7
0 0 0 0 0 0 0 0 0 0 0 0 0 0 0 0 0 0 55 1079 1178 1311 1341 1213 1470 1437 1574 1757 1627 1510 1640 1450 1510 1480 1330 1151 1167 1231 1177 1008 1051 807 859 667 340 136 71 72 113
0 0 0 0 0 0 0 0 0 0 0 0 0 0 0 0 0 0 17 42 815 825 1198 1088 1127 1277 1165 1376 1391 1455 1630 1475 1502 1447 1436 1346 1174 1261 1016 1163 1412 1040 952 784 482 233 52 3 0
0 0 0 0 0 0 0 0 0 0 0 0 0 0 0 0 0 0 0 0 66 918 1177 923 744 886 1174 1338 1284 1318 1598 1507 1537 1310 1318 1209 1141 1177 1182 1252 1370 1192 1185 699 724 276 14 33 27
0 0 0 0 0 0 0 0 0 0 0 0 0 0 0 0 0 0 0 0 0 17 165 843 903 567 619 565 963 922 1034 1195 1432 1251 1107 1050 1032 966 881 876 966 973 906 905 618 439 72 84 110
0 0 0 0 0 0 0 0 0 0 0 0 0 0 0 0 0 0 0 0 0 0 0 54 406 934 662 534 426 582 600 624 669 870 1064 1123 829 646 699 509 550 562 603 572 600 521 208 112 19
0 0 0 0 0 0 0 0 0 0 0 0 0 0 0 0 0 0 0 0 0 0 0 0 0 199 884 702 631 476 344 303 94 76 232 644 513 463 390 427 288 464 451 395 571 535 202 22 0
0 0 0 0 0 0 0 0 0 0 0 0 0 0 0 0 0 0 0 0 0 0 0 0 0 28 136 989 920 872 802 670 495 350 625 381 332 563 614 580 656 879 277 473 372 371 35 5 0
0 0 0 0 0 0 0 0 0 0 0 0 0 0 0 0 0 0 0 0 0 0 0 15 26 2 7 381 790 1001 773 437 424 385 316 248 278 573 407 403 661 794 660 587 425 268 16 3 0
0 0 0 0 0 0 0 0 0 0 0 0 0 0 0 0 0 0 0 0 0 0 0 0 4 31 19 77 383 733 704 232 114 229 407 322 373 597 525 680 709 904 846 660 733 294 85 40 0
0 0 0 0 0 0 0 0 0 0 0 0 0 0 0 0 0 0 0 0 0 0 0 0 0 8 22 20 143 531 568 328 17 6 66 259 505 707 773 744 698 658 787 475 330 363 193 64 5
0 0 0 0 0 0 0 0 0 0 0 0 0 0 0 0 0 0 0 0 0 0 0 0 0 0 24 25 132 234 454 489 260 16 9 77 226 384 422 584 555 593 706 222 210 262 138 125 13
0 0 0 0 0 0 0 0 0 0 0 0 0 0 0 0 0 0 0 0 0 0 0 0 0 0 0 39 132 226 598 225 96 54 11 50 155 255 320 320 364 362 349 359 351 292 184 169 84
0 0 0 0 0 0 0 0 0 0 0 0 0 0 0 0 0 0 0 0 0 0 0 0 0 0 0 0 118 246 481 343 160 195 40 33 59 94 228 262 218 206 273 282 347 343 292 103 138
0 0 0 0 0 0 0 0 0 0 0 0 0 0 0 0 0 0 0 0 0 0 0 0 0 0 0 0 143 292 245 453 497 339 230 72 67 120 212 230 218 166 157 208 313 261 238 197 210
0 0 0 0 0 0 0 0 0 0 0 0 0 0 0 0 0 0 0 0 0 0 0 0 0 0 0 0 112 413 435 435 373 339 392 200 95 126 219 227 206 112 82 134 105 92 156 110 112
0 0 0 0 0 0 0 0 0 0 0 0 0 0 0 1 0 0 1 0 0 0 0 0 0 0 20 44 276 467 525 422 549 666 514 412 261 253 234 213 237 234 153 215 140 114 71 62 152
0 0 0 0 0 0 0 0 0 0 0 0 0 0 0 2 0 18 0 58 162 102 28 2 0 0 34 112 563 676 668 719 674 590 583 486 352 296 287 218 297 255 197 95 244 203 155 110 99
0 0 0 0 0 0 0 0 0 0 0 0 0 0 0 0 0 0 0 3 67 194 441 559 311 311 99 402 670 574 849 792 606 656 631 600 502 426 333 323 200 227 223 195 309 313 155 138 59
0 0 0 0 0 0 0 0 0 0 0 0 0 0 0 0 0 0 0 0 2 37 467 821 742 689 709 448 360 597 517 519 424 320 339 489 427 359 339 338 329 287 289 215 283 305 251 167 32
0 0 0 0 0 0 0 0 0 0 0 0 0 0 0 0 0 0 0 0 17 99 108 434 502 504 410 91 182 108 163 278 252 236 486 353 468 379 229 153 171 214 296 262 363 237 151 175 34
0 0 0 0 0 0 0 0 0 0 0 0 0 0 0 0 0 0 0 12 17 28 143 232 228 102 98 101 121 156 168 133 163 304 103 96 143 202 109 19 14 69 67 126 148 112 134 100 114
0 0 0 0 0 0 0 0 0 0 0 0 0 0 0 0 0 0 4 0 52 17 14 34 69 74 76 78 80 71 84 56 19 29 50 85 75 32 80 61 4 15 47 14 40 54 72 109 68
0 0 0 0 0 0 0 0 0 0 0 0 0 0 0 0 0 0 6 4 56 26 51 7 18 21 12 0 9 10 15 7 41 29 56 124 126 127 52 11 18 36 8 17 29 23 40 46 37
0 0 0 0 0 0 0 0 0 0 0 0 0 0 0 0 0 0 5 5 0 9 23 38 34 33 23 13 20 26 36 30 32 52 79 100 50 114 54 39 17 29 11 21 21 10 23 11 5
0 0 0 0 0 0 0 0 0 0 0 0 0 0 0 0 0 0 0 0 4 10 1 2 16 2 1 7 39 32 20 19 32 26 12 70 25 36 37 27 12 5 0 5 2 2 4 12 3
0 0 0 0 0 0 0 0 0 0 0 0 0 0 0 0 0 0 0 0 0 4 8 0 2 0 0 4 4 9 1 5 9 9 16 7 6 0 0 5 0 0 0 0 0 0 0 3 0

GFSSGP_con_mucape_111.txt.gz
CAPE
0 0 0 0 0 0 0 0 0 0 0 0 0 0 0 0 0 0 131 108 447 1586 1406 1335 2253 2273 2284 2182 2096 2379 2337 2085 2163 1996 1446 1585 1138 840 383 246 92 359 470 589 276 815 751 304 111
0 0 0 0 0 0 0 0 0 0 0 0 0 0 0 0 0 0 84 199 525 1211 1658 1428 2135 2070 1971 2212 2095 2316 2278 2120 2000 1857 1610 1442 1355 888 457 321 166 545 943 1107 967 974 768 426 85
0 0 0 0 0 0 0 0 0 0 0 0 0 0 0 0 0 0 0 47 630 1512 1373 1512 1942 1896 1788 1823 1726 1485 1777 2123 1915 1959 1846 1423 1316 1082 607 330 414 843 1009 846 886 899 491 149 51
0 0 0 0 0 0 0 0 0 0 0 0 0 0 0 0 0 0 0 193 675 1420 1253 1493 1874 1838 1787 1682 1858 1840 1682 1723 1494 1403 1436 1653 1232 1105 838 1024 994 1084 831 882 945 415 140 214 93
0 0 0 0 0 0 0 0 0 0 0 0 0 0 0 0 0 0 0 11 561 955 1481 1316 1712 1557 1736 1666 1638 1549 1419 1454 1498 1462 1268 1247 1118 1163 1122 1123 1434 1327 760 794 532 199 101 28 30
0 0 0 0 0 0 0 0 0 0 0 0 0 0 0 0 0 0 0 0 156 698 1072 1130 1197 1250 1415 1555 1546 1473 1541 1441 1410 1381 1165 1042 1265 1203 1065 1152 1302 1194 731 709 519 281 107 20 24
0 0 0 0 0 0 0 0 0 0 0 0 0 0 0 0 0 0 0 0 0 9 529 1094 1044 884 1028 1251 1283 1314 1454 1606 1699 1569 1462 1228 1064 1136 1128 1013 1197 1205 1232 1095 835 539 302 27 9
0 0 0 0 0 0 0 0 0 0 0 0 0 0 0 0 0 0 0 0 0 0 8 140 831 979 686 641 976 1028 1308 1303 1492 1378 1213 958 837 813 855 785 780 1204 1142 1029 821 442 227 124 148
0 0 0 0 0 0 0 0 0 0 0 0 0 0 0 0 0 0 0 0 0 0 0 0 4 503 778 702 537 595 587 636 670 802 791 893 677 374 501 458 427 848 875 777 582 423 295 216 63
0 0 0 0 0 0 0 0 0 0 0 0 0 0 0 0 0 0 0 0 0 0 0 0 0 0 166 729 853 648 238 114 45 30 73 362 143 93 65 195 339 600 770 570 606 477 300 52 0
0 0 0 0 0 0 0 0 0 0 0 0 0 0 0 0 0 0 0 0 0 0 0 0 0 0 2 217 914 875 748 890 510 224 86 55 68 312 237 358 535 681 381 764 351 292 119 3 0
0 0 0 0 0 0 0 0 0 0 0 0 0 0 0 0 0 0 0 0 0 0 0 0 0 0 0 46 238 886 823 905 525 330 241 206 250 408 134 259 608 765 757 789 925 693 235 56 0
0 0 0 0 0 0 0 0 0 0 0 0 0 0 0 0 0 0 0 0 0 0 0 0 0 0 0 0 156 520 837 894 722 321 195 178 294 474 326 372 599 587 903 867 880 801 320 93 24
0 0 0 0 0 0 0 0 0 0 0 0 0 0 0 0 0 0 0 0 0 0 0 0 0 0 0 0 0 321 556 635 576 286 148 163 179 293 541 837 924 911 1141 1030 772 573 666 169 42
0 0 0 0 0 0 0 0 0 0 0 0 0 0 0 0 0 0 0 0 0 0 0 0 0 0 0 0 0 1 408 598 534 338 80 41 24 89 251 483 821 811 1028 865 981 676 548 209 53
0 0 0 0 0 0 0 0 0 0 0 0 0 0 0 0 0 0 0 0 0 0 0 0 0 0 0 0 0 0 291 556 855 564 356 136 72 55 133 214 436 411 433 505 512 299 151 168 58
0 0 0 0 0 0 0 0 0 0 0 0 0 0 0 0 0 0 0 0 0 0 0 0 0 0 0 0 0 0 309 525 723 578 172 92 134 106 81 22 80 170 265 288 340 489 481 312 314
0 0 0 0 0 0 0 0 0 0 0 0 0 0 0 0 0 0 0 0 0 0 0 0 0 0 0 0 0 0 284 686 635 421 230 195 150 105 88 113 51 72 196 315 331 340 351 275 209
0 0 0 0 0 0 0 0 0 0 0 0 0 0 0 0 0 0 0 0 0 0 0 0 0 0 0 0 0 38 300 403 660 799 503 391 363 268 245 176 119 213 200 181 224 215 208 197 197
0 0 0 0 0 0 0 0 0 0 0 0 0 0 0 0 0 0 0 1 0 3 15 0 0 0 0 0 0 179 323 379 619 592 586 571 465 342 324 166 198 303 334 199 190 176 197 159 132
0 0 0 0 0 0 0 0 0 0 0 0 0 0 0 0 0 0 0 0 0 0 17 21 45 0 0 0 105 502 724 646 589 630 883 769 579 603 511 392 354 236 320 303 254 154 133 149 186
0 0 0 0 0 0 0 0 0 0 0 0 0 0 0 0 0 0 0 0 0 0 5 46 244 265 146 298 207 707 825 1003 1046 839 704 843 574 485 531 558 485 387 287 259 344 331 288 286 248
0 0 0 0 0 0 0 0 0 0 0 0 0 0 0 0 0 0 0 0 0 0 2 89 371 461 484 492 630 821 716 651 503 426 500 601 566 471 410 378 387 410 343 297 319 313 359 358 289
0 0 0 0 0 0 0 0 0 0 0 0 0 0 0 0 0 0 0 0 1 0 12 21 68 257 497 531 468 327 235 241 3 14 116 188 244 344 391 510 302 297 210 218 245 287 257 287 265
0 0 3 0 0 0 0 0 0 0 0 0 0 0 0 0 0 0 0 0 0 2 11 7 85 142 100 150 66 37 75 11 0 62 70 106 109 246 301 167 227 151 69 151 139 119 179 246 120
0 0 0 0 1 1 0 0 0 0 0 0 0 0 0 0 0 0 0 0 1 0 0 28 26 57 47 59 29 0 42 100 20 51 27 2 2 110 233 124 67 65 54 57 88 92 115 72 26
0 0 0 0 0 0 0 0 0 0 0 0 0 0 0 0 0 0 0 0 0 9 5 5 16 26 36 45 61 28 33 37 45 21 2 13 26 57 115 73 106 63 22 27 87 34 172 42 35
0 0 0 0 0 0 0 0 0 0 0 0 0 0 0 0 0 0 0 0 0 0 1 20 13 5 5 1 0 0 12 12 3 12 4 33 24 26 69 58 49 28 16 14 57 27 22 36 16
0 0 0 0 0 0 0 0 0 0 0 0 0 0 0 0 0 0 0 0 0 0 1 1 0 4 0 7 32 7 23 12 11 12 17 17 8 25 11 3 27 31 8 13 11 10 14 28 18
0 0 0 0 0 0 0 0 0 0 0 0 0 0 0 0 0 0 0 0 0 0 3 0 0 0 0 0 5 3 0 2 2 3 8 1 5 6 2 6 0 0 0 0 1 2 0 2 1

GFSSGP_con_mucape_114.txt.gz
CAPE
0 0 0 0 0 0 0 0 0 0 0 0 0 0 0 0 0 17 21 116 444 1021 1483 1467 2405 2241 2011 2033 2326 1878 1995 2011 1938 1654 1663 1492 1324 917 281 108 12 58 199 229 33 666 722 401 312
0 0 0 0 0 0 0 0 0 0 0 0 0 0 0 0 0 0 0 1 448 1102 1629 1254 2135 2084 2073 2147 2148 2177 1999 1984 1712 1504 1378 1468 1295 1042 588 304 66 439 754 982 899 909 850 271 229
0 0 0 0 0 0 0 0 0 0 0 0 0 0 0 0 0 0 0 40 564 1098 1161 1477 1853 1851 1956 1709 1607 1661 2025 1857 1790 1482 1558 1488 1075 1203 718 482 466 626 814 877 929 1156 649 280 297
0 0 0 0 0 0 0 0 0 0 0 0 0 0 0 0 0 0 0 0 376 863 1140 1249 1327 1769 1821 1757 1702 1569 1570 1746 1460 1388 1597 1255 1218 1174 973 995 838 829 882 853 1013 708 305 404 346
0 0 0 0 0 0 0 0 0 0 0 0 0 0 0 0 0 0 0 0 129 978 1148 1144 1345 1495 1387 1531 1526 1618 1550 1490 1423 1352 1402 1283 1281 872 1097 1304 1243 1127 1186 770 719 484 192 107 188
0 0 0 0 0 0 0 0 0 0 0 0 0 0 0 0 0 0 0 0 0 300 836 994 1008 1374 1347 1379 1436 1455 1471 1365 1527 1405 1366 1400 1283 1204 1012 929 1115 1429 1227 636 793 491 159 76 60
0 0 0 0 0 0 0 0 0 0 0 0 0 0 0 0 0 0 0 0 0 0 176 611 837 824 878 1139 1280 1356 1376 1442 1389 1604 1441 1261 1060 1093 1030 1240 1096 1072 1314 734 964 599 403 79 113
0 0 0 0 0 0 0 0 0 0 0 0 0 0 0 0 0 0 0 0 0 0 0 0 253 539 667 650 866 1011 1072 1190 1230 1322 1127 920 695 708 976 929 781 1038 1152 1156 902 633 474 451 223
0 0 0 0 0 0 0 0 0 0 0 0 0 0 0 0 0 0 0 0 0 0 0 0 0 0 173 469 697 649 663 837 863 900 847 724 641 458 360 439 357 721 1067 1148 1005 718 410 221 64
0 0 0 0 0 0 0 0 0 0 0 0 0 0 0 0 0 0 0 0 0 0 0 0 0 0 0 57 346 576 552 262 93 230 505 480 524 416 180 408 406 591 777 819 867 559 278 87 0
0 0 0 0 0 0 0 0 0 0 0 0 0 0 0 0 0 0 0 0 0 0 0 0 0 0 0 0 102 480 490 557 317 152 53 31 104 49 24 89 388 340 524 539 442 231 71 39 0
0 0 0 0 0 0 0 0 0 0 0 0 0 0 0 0 0 0 0 0 0 0 0 0 0 0 0 0 0 71 577 503 469 422 275 125 63 99 139 130 409 362 488 486 419 255 147 51 4
0 0 0 0 0 0 0 0 0 0 0 0 0 0 0 0 0 0 0 0 0 0 0 0 0 0 0 0 0 45 259 588 507 478 259 162 156 131 121 93 170 494 527 448 451 347 229 131 32
0 0 0 0 0 0 0 0 0 0 0 0 0 0 0 0 0 0 0 0 0 0 0 0 0 0 0 0 0 0 211 369 572 451 336 246 190 161 201 218 262 312 350 558 515 403 343 165 91
0 0 0 0 0 0 0 0 0 0 0 0 0 0 0 0 0 0 0 0 0 0 0 0 0 0 0 0 0 0 0 333 430 411 395 248 199 190 213 245 242 275 295 451 380 437 403 212 73
0 0 0 0 0 0 0 0 0 0 0 0 0 0 0 0 0 0 0 0 0 0 0 0 0 0 0 0 0 0 0 25 336 357 406 225 95 75 89 240 243 263 250 255 268 351 318 345 190
0 0 0 0 0 0 0 0 0 0 0 0 0 0 0 0 0 0 0 0 0 0 0 0 0 0 0 0 0 0 0 28 256 403 283 351 309 114 82 199 189 162 115 101 87 151 217 125 142
0 0 0 0 0 0 0 0 0 0 0 0 0 0 0 0 0 0 0 0 0 0 0 0 0 0 0 0 0 0 0 13 255 478 384 337 203 170 94 67 64 55 29 25 46 61 77 122 144
0 0 0 0 0 0 0 0 0 0 0 0 0 0 0 0 0 0 0 0 0 0 0 0 0 0 0 0 0 0 0 120 336 410 448 250 276 232 149 155 82 46 34 17 83 80 133 180 200
0 0 0 0 0 0 0 0 0 0 0 0 0 0 0 0 0 0 0 0 0 0 0 0 0 0 0 0 0 0 0 238 209 385 458 385 405 363 303 293 212 137 130 167 138 84 137 152 170
0 0 0 0 0 0 0 0 0 0 0 0 0 0 0 0 0 0 0 0 0 0 0 0 0 0 0 11 0 0 20 340 473 500 598 472 462 420 360 292 226 228 173 296 244 183 154 95 106
0 0 0 0 0 0 0 0 0 0 0 0 0 0 0 0 0 0 0 0 0 0 0 0 2 26 45 90 24 3 72 287 449 538 762 744 713 543 444 229 532 376 256 214 217 216 183 116 120
0 0 0 0 0 0 0 0 0 0 0 0 0 0 0 0 0 0 0 0 0 0 0 0 2 3 8 136 149 181 216 175 171 203 402 499 415 237 395 270 416 334 248 179 152 200 169 175 120
0 0 0 0 0 0 0 0 0 0 0 0 0 0 0 0 0 0 0 0 0 1 0 0 0 3 0 98 26 70 114 122 162 134 121 137 65 92 135 233 423 371 184 157 146 156 144 160 128
0 0 0 0 0 0 0 0 0 0 0 0 0 0 0 0 0 0 0 0 0 1 0 0 6 0 1 24 22 17 22 51 29 68 61 8 0 12 86 77 119 138 81 107 128 70 78 153 120
0 0 0 0 0 0 0 0 0 0 0 0 0 0 0 0 0 0 0 0 0 0 5 0 4 19 21 0 0 3 0 2 0 13 3 3 0 31 51 82 36 42 47 35 20 17 38 54 69
0 0 0 0 0 0 0 0 0 0 0 0 0 0 0 0 0 0 0 0 0 0 0 0 2 0 32 27 48 9 4 24 30 6 3 42 27 29 8 3 4 2 25 27 37 4 37 27 45
0 0 0 0 0 0 0 0 0 0 0 0 0 0 0 0 0 0 0 0 0 0 0 0 0 12 3 11 3 6 1 17 13 17 13 13 10 7 6 6 3 14 12 8 21 3 27 10 47
0 0 0 0 0 0 0 0 0 0 0 0 0 0 0 0 0 0 0 0 0 0 0 5 2 1 0 2 0 9 12 6 12 5 14 3 17 10 10 12 7 1 14 8 20 20 14 15 13
0 0 0 0 0 0 0 0 0 0 0 0 0 0 0 0 0 0 0 0 0 0 0 0 0 0 7 7 10 10 10 0 0 8 7 7 7 6 0 0 0 1 0 0 0 8 1 0 1

GFSSGP_con_mucape_117.txt.gz
CAPE
0 0 0 0 0 0 0 0 0 0 0 0 0 0 0 0 0 0 32 24 511 880 1320 1599 2249 2129 2016 2117 2047 1717 1951 1844 1637 1527 1500 1253 1191 853 256 50 21 288 105 19 44 507 674 423 491
0 0 0 0 0 0 0 0 0 0 0 0 0 0 0 0 0 0 0 0 703 1154 1469 1316 2124 1985 2185 2232 2236 1858 1835 1713 1773 1663 1544 1380 1134 1132 570 275 56 211 325 679 461 884 927 318 312
0 0 0 0 0 0 0 0 0 0 0 0 0 0 0 0 0 0 0 0 600 1006 1161 1182 1537 1496 1517 1549 1758 2031 1943 1843 1784 1673 1453 1455 1271 1133 880 621 365 476 805 1066 1040 908 625 358 294
0 0 0 0 0 0 0 0 0 0 0 0 0 0 0 0 0 0 0 0 382 596 1055 1147 1181 1295 1337 1405 1381 1370 1491 1506 1508 1590 1467 1484 1079 1044 1090 1021 883 596 697 941 1277 729 406 540 383
0 0 0 0 0 0 0 0 0 0 0 0 0 0 0 0 0 0 0 0 110 722 1004 1014 1173 1249 1323 1222 1230 1313 1376 1392 1348 1309 1390 1350 1118 1141 1070 1248 1135 1014 1057 1044 894 624 365 182 210
0 0 0 0 0 0 0 0 0 0 0 0 0 0 0 0 0 0 0 0 0 265 607 805 833 1090 1159 1241 1257 1243 1355 1395 1425 1409 1432 1443 1311 1413 1209 1294 1218 1413 1200 1153 710 811 418 138 90
0 0 0 0 0 0 0 0 0 0 0 0 0 0 0 0 0 0 0 0 0 0 104 443 672 658 697 903 1059 1228 1334 1203 1252 1469 1455 1258 1190 1226 1178 1357 1294 1254 1475 1176 820 948 647 188 145
0 0 0 0 0 0 0 0 0 0 0 0 0 0 0 0 0 0 0 0 0 0 0 0 36 129 770 509 726 833 1000 1010 1148 1138 1112 908 767 633 1004 1013 1015 1253 1163 1139 993 1018 631 452 363
0 0 0 0 0 0 0 0 0 0 0 0 0 0 0 0 0 0 0 0 0 0 0 0 0 0 0 105 436 518 695 753 854 847 862 781 653 512 429 477 495 712 1043 1088 1185 939 667 384 206
0 0 0 0 0 0 0 0 0 0 0 0 0 0 0 0 0 0 0 0 0 0 0 0 0 0 0 0 0 187 528 481 505 587 650 615 565 485 341 322 291 342 731 783 1210 1002 572 124 9
0 0 0 0 0 0 0 0 0 0 0 0 0 0 0 0 0 0 0 0 0 0 0 0 0 0 0 0 0 0 26 377 563 292 112 158 403 375 307 358 262 338 407 497 601 634 304 115 26
0 0 0 0 0 0 0 0 0 0 0 0 0 0 0 0 0 0 0 0 0 0 0 0 0 0 0 0 0 0 0 54 277 422 394 323 180 164 206 49 57 204 396 449 376 349 252 150 81
0 0 0 0 0 0 0 0 0 0 0 0 0 0 0 0 0 0 0 0 0 0 0 0 0 0 0 0 0 0 0 1 102 275 388 331 282 218 148 187 201 322 388 397 418 308 250 179 148
0 0 0 0 0 0 0 0 0 0 0 0 0 0 0 0 0 0 0 0 0 0 0 0 0 0 0 0 0 0 0 0 26 107 282 411 347 212 222 298 178 241 381 471 404 377 306 290 222
0 0 0 0 0 0 0 0 0 0 0 0 0 0 0 0 0 0 0 0 0 0 0 0 0 0 0 0 0 0 0 0 0 74 211 404 421 382 263 289 239 304 453 555 437 328 368 339 263
0 0 0 0 0 0 0 0 0 0 0 0 0 0 0 0 0 0 0 0 0 0 0 0 0 0 0 0 0 0 0 0 0 11 207 254 245 347 277 287 346 312 350 342 316 349 331 334 280
0 0 0 0 0 0 0 0 0 0 0 0 0 0 0 0 0 0 0 0 0 0 0 0 0 0 0 0 0 0 0 0 0 10 120 240 329 281 246 172 346 346 345 304 248 247 243 172 161
0 0 0 0 0 0 0 0 0 0 0 0 0 0 0 0 0 0 0 0 0 0 0 0 0 0 0 0 0 0 0 0 0 0 104 312 293 336 303 170 253 313 317 276 212 129 79 74 37
0 0 0 0 0 0 0 0 0 0 0 0 0 0 0 0 0 0 0 0 0 0 0 0 0 0 0 0 0 0 0 0 0 0 160 230 250 269 385 302 202 249 239 170 89 73 47 30 16
0 0 0 0 0 0 0 0 0 0 0 0 0 0 0 0 0 0 0 0 0 0 0 0 0 0 0 6 0 0 0 0 5 49 41 66 173 258 378 375 239 202 216 138 98 91 119 138 151
0 0 0 0 0 0 0 0 0 0 0 0 0 0 0 0 0 0 0 0 0 0 0 0 0 0 0 0 0 0 5 0 53 35 6 12 147 217 386 447 347 231 164 125 139 154 167 116 141
0 0 0 0 0 0 0 0 0 0 0 0 0 0 0 0 0 0 0 0 0 0 0 0 0 0 0 0 0 0 0 0 3 12 93 139 175 158 122 234 352 230 244 183 249 235 181 146 108
0 0 0 0 0 0 0 0 0 0 0 0 0 0 0 0 0 0 0 0 0 0 0 0 0 0 0 0 0 0 0 4 0 10 55 120 185 260 314 184 58 52 178 124 144 197 257 242 204
0 0 0 0 0 0 0 0 0 0 0 0 0 0 0 0 0 0 0 0 0 0 0 0 0 0 0 0 0 0 0 0 5 23 28 70 77 94 135 203 51 63 90 126 129 98 119 134 134
0 0 0 0 0 0 0 0 0 0 0 0 0 0 0 0 0 0 0 0 0 0 0 0 0 0 0 0 6 2 5 6 1 0 0 82 49 22 24 9 38 2 6 52 40 36 51 97 59
0 0 0 0 0 0 0 0 0 0 0 0 0 0 0 0 0 0 0 0 0 0 0 0 1 5 0 10 16 5 6 1 0 1 3 3 4 0 0 0 0 31 61 38 5 45 12 16 15
0 0 0 0 0 0 0 0 0 0 0 0 0 0 0 0 0 0 0 0 0 0 0 0 0 0 0 6 11 5 14 0 11 0 3 16 0 0 4 3 15 30 9 18 0 3 6 6 5
0 0 0 0 0 0 0 0 0 0 0 0 0 0 0 0 0 0 0 0 0 0 0 0 0 0 0 6 0 0 5 4 0 5 1 6 9 0 7 11 6 15 4 6 7 3 0 0 0
0 0 0 0 0 0 0 0 0 0 0 0 0 0 0 0 0 0 0 0 0 0 0 0 0 0 0 9 8 1 6 0 9 1 0 0 0 8 9 12 13 11 3 7 5 15 12 10 14
0 0 0 0 0 0 0 0 0 0 0 0 0 0 0 0 0 0 0 0 0 0 0 0 0 0 0 0 0 0 0 0 1 5 1 2 5 4 1 3 8 2 0 0 0 0 0 0 0

GFSSGP_con_mucape_120.txt.gz
CAPE
0 0 0 0 0 0 0 0 0 0 0 0 0 0 0 0 0 0 1 12 594 894 1297 1337 2035 2215 2069 1970 1821 1744 2064 1869 1716 1559 1358 1380 1283 723 232 33 225 271 63 0 84 532 626 536 483
0 0 0 0 0 0 0 0 0 0 0 0 0 0 0 0 0 0 0 0 654 892 1292 1385 1780 1682 1824 1888 1940 1676 1803 1798 1689 1628 1447 1292 1193 1075 540 211 68 188 304 399 207 619 652 382 271
0 0 0 0 0 0 0 0 0 0 0 0 0 0 0 0 0 0 0 0 528 813 1156 1106 1207 1377 1414 1798 1878 1861 1739 1745 1762 1716 1657 1483 1345 1165 1013 648 299 434 669 943 1081 898 632 339 296
0 0 0 0 0 0 0 0 0 0 0 0 0 0 0 0 0 0 0 0 365 478 992 1102 831 890 1140 1183 1243 1300 1174 1515 1592 1732 1552 1498 1306 1221 1256 1182 1083 695 657 916 984 993 585 586 358
0 0 0 0 0 0 0 0 0 0 0 0 0 0 0 0 0 0 0 0 99 380 633 926 1127 902 1089 1145 1123 1172 1329 1436 1480 1454 1258 1226 1162 1147 1147 1391 1218 1055 935 944 955 956 611 387 303
0 0 0 0 0 0 0 0 0 0 0 0 0 0 0 0 0 0 0 0 0 105 72 386 636 839 996 1066 1162 1276 1401 1483 1527 1512 1515 1331 1328 1389 1528 1534 1446 1477 959 886 1089 1128 733 418 155
0 0 0 0 0 0 0 0 0 0 0 0 0 0 0 0 0 0 0 0 0 0 0 2 85 475 629 593 863 1110 1267 1435 1417 1386 1483 1434 1287 1402 1409 1554 1558 1428 1496 1455 1237 1274 1181 606 300
0 0 0 0 0 0 0 0 0 0 0 0 0 0 0 0 0 0 0 0 0 0 0 0 0 2 3 542 358 505 828 906 998 1104 994 1002 802 666 1035 1104 1099 1442 1307 1036 1186 1114 1111 711 573
0 0 0 0 0 0 0 0 0 0 0 0 0 0 0 0 0 0 0 0 0 0 0 0 0 0 0 0 3 28 325 486 591 720 700 712 663 543 460 433 536 730 1130 1132 981 1015 954 555 300
0 0 0 0 0 0 0 0 0 0 0 0 0 0 0 0 0 0 0 0 0 0 0 0 0 0 0 0 0 0 5 176 417 451 500 549 596 556 448 338 244 313 596 819 1079 1056 959 429 163
0 0 0 0 0 0 0 0 0 0 0 0 0 0 0 0 0 0 0 0 0 0 0 0 0 0 0 0 0 0 0 0 5 240 458 200 277 358 360 296 205 181 240 285 534 688 679 382 200
0 0 0 0 0 0 0 0 0 0 0 0 0 0 0 0 0 0 0 0 0 0 0 0 0 0 0 0 0 0 0 0 0 0 186 381 382 230 203 192 181 169 237 279 345 342 408 428 283
0 0 0 0 0 0 0 0 0 0 0 0 0 0 0 0 0 0 0 0 0 0 0 0 0 0 0 0 0 0 0 0 0 0 0 171 249 341 385 221 126 166 115 214 348 355 244 328 321
0 0 0 0 0 0 0 0 0 0 0 0 0 0 0 0 0 0 0 0 0 0 0 0 0 0 0 0 0 0 0 0 0 0 0 0 30 86 250 266 298 266 253 345 420 375 358 265 249
0 0 0 0 0 0 0 0 0 0 0 0 0 0 0 0 0 0 0 0 0 0 0 0 0 0 0 0 0 0 0 0 0 0 0 0 0 3 172 187 213 322 392 417 419 415 347 303 312
0 0 0 0 0 0 0 0 0 0 0 0 0 0 0 0 0 0 0 0 0 0 0 0 0 0 0 0 0 0 0 0 0 0 0 0 0 0 37 89 149 269 296 412 397 365 363 346 338
0 0 0 0 0 0 0 0 0 0 0 0 0 0 0 0 0 0 0 0 0 0 0 0 0 0 0 0 0 0 0 0 0 0 0 0 0 0 87 76 135 89 242 292 417 468 386 313 490
0 0 0 0 0 0 0 0 0 0 0 0 0 0 0 0 0 0 0 0 0 0 0 0 0 0 0 0 0 0 0 0 0 0 0 0 13 137 132 60 82 203 139 236 321 360 366 365 317
0 0 0 0 0 0 0 0 0 0 0 0 0 0 0 0 0 0 0 0 0 0 0 0 0 0 0 0 0 0 0 0 0 0 0 47 43 22 21 31 60 99 130 213 184 220 281 310 236
0 0 0 0 0 0 0 0 0 0 0 0 0 0 0 0 0 0 0 0 0 0 0 0 0 0 0 0 0 0 0 0 0 0 0 0 7 9 4 0 87 233 179 278 288 271 205 168 124
0 0 0 0 0 0 0 0 0 0 0 0 0 0 0 0 0 0 0 0 0 0 0 0 0 0 0 0 0 0 0 0 0 0 5 13 22 31 13 12 59 289 290 206 280 308 218 177 195
0 0 0 0 0 0 0 0 0 0 0 0 0 0 0 0 0 0 0 0 0 0 0 0 0 0 0 0 0 0 0 0 3 1 8 11 2 29 27 64 99 109 296 257 201 245 247 189 108
0 0 0 0 0 0 0 0 0 0 0 0 0 0 0 0 0 0 0 0 0 0 0 0 0 0 0 0 0 0 0 0 0 0 0 10 18 50 133 138 97 96 53 30 225 179 102 185 143
0 0 0 0 0 0 0 0 0 0 0 0 0 0 0 0 0 0 0 0 0 0 0 0 0 0 0 0 0 0 0 0 0 0 0 0 4 27 48 54 85 190 98 6 12 0 78 114 137
0 0 0 0 0 0 0 0 0 0 0 0 0 0 0 0 0 0 0 0 0 0 0 0 0 0 0 0 0 0 0 0 0 0 0 0 1 47 48 27 26 75 85 7 0 1 29 35 18
0 0 0 0 0 0 0 0 0 0 0 0 0 0 0 0 0 0 0 0 0 0 0 0 0 0 0 0 0 0 0 0 0 0 0 0 8 13 3 0 1 48 5 0 0 0 1 61 0
0 0 0 0 0 0 0 0 0 0 0 0 0 0 0 0 0 0 0 0 0 0 0 0 0 0 0 0 0 0 0 0 0 0 0 0 0 2 0 0 0 0 0 0 0 0 10 39 53
0 0 0 0 0 0 0 0 0 0 0 0 0 0 0 0 0 0 0 0 0 0 0 0 0 0 0 0 0 0 0 0 0 0 0 0 0 0 1 2 5 8 9 6 1 0 6 7 0
0 0 0 0 0 0 0 0 0 0 0 0 0 0 0 0 0 0 0 0 0 0 0 0 0 0 0 0 0 0 0 0 0 0 0 0 0 0 0 0 1 5 11 8 8 9 3 10 9
0 0 0 0 0 0 0 0 0 0 0 0 0 0 0 0 0 0 0 0 0 0 0 0 0 0 0 0 0 0 0 0 0 0 0 0 0 0 0 0 0 0 0 0 0 0 0 0 0

GFSSGP_con_mucape_123.txt.gz
CAPE
0 0 0 0 0 0 0 0 0 0 0 0 0 0 0 0 0 0 0 0 528 669 1254 1334 1716 1696 1828 1749 1592 1742 1810 1614 1407 1296 1413 1382 1196 625 167 55 299 267 19 1 177 541 443 545 511
0 0 0 0 0 0 0 0 0 0 0 0 0 0 0 0 0 0 0 0 482 614 1029 1240 1420 1230 1382 1630 1561 1575 1717 1625 1533 1476 1387 1375 1214 1034 539 147 52 414 327 194 131 481 618 499 387
0 0 0 0 0 0 0 0 0 0 0 0 0 0 0 0 0 0 0 0 405 465 994 1019 1095 1074 1104 1310 1391 1460 1511 1565 1705 1641 1596 1453 1376 1165 1110 717 225 453 810 854 1012 765 710 401 364
0 0 0 0 0 0 0 0 0 0 0 0 0 0 0 0 0 0 0 0 289 83 835 808 874 590 641 1017 1155 1152 1159 1183 1534 1608 1534 1500 1400 1305 1323 1249 1278 828 733 813 907 960 795 671 397
0 0 0 0 0 0 0 0 0 0 0 0 0 0 0 0 0 0 0 0 10 2 99 668 634 830 773 749 766 1107 1027 1260 1482 1549 1240 1304 1179 1152 1267 1446 1350 1306 751 668 1009 967 937 587 321
0 0 0 0 0 0 0 0 0 0 0 0 0 0 0 0 0 0 0 0 0 1 0 0 150 447 439 488 1122 1204 1154 1226 1305 1499 1397 1232 1359 1357 1656 1606 1499 1293 1008 711 1017 1112 1060 758 364
0 0 0 0 0 0 0 0 0 0 0 0 0 0 0 0 0 0 0 0 0 0 0 0 0 0 32 137 338 443 499 1178 1241 1251 1267 1185 1316 1537 1355 1559 1615 1433 1354 1334 1354 1509 1234 1181 721
0 0 0 0 0 0 0 0 0 0 0 0 0 0 0 0 0 0 0 0 0 0 0 0 0 0 0 0 0 5 119 321 643 797 732 735 724 750 1051 1165 1184 1510 1558 1479 1270 1359 1477 1115 628
0 0 0 0 0 0 0 0 0 0 0 0 0 0 0 0 0 0 0 0 0 0 0 0 0 0 0 0 0 0 0 0 170 308 256 227 334 539 513 447 470 708 1122 1358 1259 1219 1235 874 383
0 0 0 0 0 0 0 0 0 0 0 0 0 0 0 0 0 0 0 0 0 0 0 0 0 0 0 0 0 0 0 0 0 39 227 239 253 282 388 433 373 324 599 713 1139 1235 977 621 371
0 0 0 0 0 0 0 0 0 0 0 0 0 0 0 0 0 0 0 0 0 0 0 0 0 0 0 0 0 0 0 0 0 0 0 31 171 218 175 186 246 240 201 157 269 582 748 555 439
0 0 0 0 0 0 0 0 0 0 0 0 0 0 0 0 0 0 0 0 0 0 0 0 0 0 0 0 0 0 0 0 0 0 0 0 0 128 252 231 225 168 163 170 199 265 372 499 412
0 0 0 0 0 0 0 0 0 0 0 0 0 0 0 0 0 0 0 0 0 0 0 0 0 0 0 0 0 0 0 0 0 0 0 0 0 0 3 142 196 233 226 151 213 274 307 350 307
0 0 0 0 0 0 0 0 0 0 0 0 0 0 0 0 0 0 0 0 0 0 0 0 0 0 0 0 0 0 0 0 0 0 0 0 0 0 0 3 115 79 157 214 251 254 230 272 331
0 0 0 0 0 0 0 0 0 0 0 0 0 0 0 0 0 0 0 0 0 0 0 0 0 0 0 0 0 0 0 0 0 0 0 0 0 0 0 0 0 0 6 80 245 276 308 279 297
0 0 0 0 0 0 0 0 0 0 0 0 0 0 0 0 0 0 0 0 0 0 0 0 0 0 0 0 0 0 0 0 0 0 0 0 0 0 0 0 0 0 19 27 203 335 351 302 345
0 0 0 0 0 0 0 0 0 0 0 0 0 0 0 0 0 0 0 0 0 0 0 0 0 0 0 0 0 0 0 0 0 0 0 0 0 0 11 11 38 45 18 21 113 290 316 223 189
0 0 0 0 0 0 0 0 0 0 0 0 0 0 0 0 0 0 0 0 0 0 0 0 0 0 0 0 0 0 0 0 0 0 0 0 0 0 0 0 0 20 38 5 8 148 260 294 281
0 0 0 0 0 0 0 0 0 0 0 0 0 0 0 0 0 0 0 0 0 0 0 0 0 0 0 0 0 0 0 0 0 0 0 0 0 0 0 2 4 5 30 1 35 160 247 246 252
0 0 0 0 0 0 0 0 0 0 0 0 0 0 0 0 0 0 0 0 0 0 0 0 0 0 0 0 0 0 0 0 0 0 0 0 0 0 0 0 0 7 137 69 87 179 355 218 268
0 0 0 0 0 0 0 0 0 0 0 0 0 0 0 0 0 0 0 0 0 0 0 0 0 0 0 0 0 0 0 0 0 0 0 0 0 0 0 0 1 22 95 254 157 386 223 310 301
0 0 0 0 0 0 0 0 0 0 0 0 0 0 0 0 0 0 0 0 0 0 0 0 0 0 0 0 0 0 0 0 0 0 0 0 0 0 0 0 26 116 210 360 412 430 331 371 314
0 0 0 0 0 0 0 0 0 0 0 0 0 0 0 0 0 0 0 0 0 0 0 0 0 0 0 0 0 0 0 0 0 0 0 0 0 0 0 0 79 110 155 241 246 118 547 343 280
0 0 0 0 0 0 0 0 0 0 0 0 0 0 0 0 0 0 0 0 0 0 0 0 0 0 0 0 0 0 0 0 0 0 0 0 0 0 0 1 1 30 80 113 113 74 144 47 129
0 0 0 0 0 0 0 0 0 0 0 0 0 0 0 0 0 0 0 0 0 0 0 0 0 0 0 0 0 0 0 0 0 0 0 0 0 6 0 0 1 2 27 36 87 42 1 0 0
0 0 0 0 0 0 0 0 0 0 0 0 0 0 0 0 0 0 0 0 0 0 0 0 0 0 0 0 0 0 0 0 0 0 0 0 0 0 0 0 0 0 0 5 5 0 2 0 0
0 0 0 0 0 0 0 0 0 0 0 0 0 0 0 0 0 0 0 0 0 0 0 0 0 0 0 0 0 0 0 0 0 0 0 0 0 0 0 0 0 0 0 1 2 3 0 0 0
0 0 0 0 0 0 0 0 0 0 0 0 0 0 0 0 0 0 0 0 0 0 0 0 0 0 0 0 0 0 0 0 0 0 0 0 0 0 0 0 0 0 0 0 0 0 1 0 0
0 0 0 0 0 0 0 0 0 0 0 0 0 0 0 0 0 0 0 0 0 0 0 0 0 0 0 0 0 0 0 0 0 0 0 0 0 0 0 0 0 0 0 0 0 0 0 0 0
0 0 0 0 0 0 0 0 0 0 0 0 0 0 0 0 0 0 0 0 0 0 0 0 0 0 0 0 0 0 0 0 0 0 0 0 0 0 0 0 0 0 0 0 0 0 0 0 0